[[{"header":{"parameterUnit":"m.s-1","parameterCategory":1,"la1":31.0,"la2":29.5877,"lo1":-88.7671,"lo2":-86.6584,"dy":0.0162,"dx":0.0185,"nx":115,"ny":88,"refTime":"2024-04-29T06:00:00:Z","depth":0,"parameterNumber":2,"parameterNumberName":"U-component_of_WINDS"},"data":[0.0,0.0,0.0,0.0,0.0,0.0,0.0,0.0,0.0,0.0,0.0,0.0,0.0,0.0,0.0,0.0,0.0,0.0,0.0,0.0,0.0,0.0,0.0,0.0,0.0,0.0,0.0,0.0,0.0,0.0,0.0,0.0,0.0,0.0,0.0,0.0,0.0,0.0,0.0,0.0,0.0,0.0,0.0,0.0,0.0,0.0,0.0,0.0,0.0,0.0,0.0,0.0,0.0,0.0,0.0,0.0,0.0,0.0,0.0,0.0,0.0,0.0,0.0,0.0,0.0,0.0,0.0,0.0,0.0,0.0,0.0,0.0,0.0,0.0,0.0,0.0,0.0,0.0,0.0,0.0,0.0,0.0,0.0,0.0,0.0,0.0,0.0,0.0,0.0,0.0,0.0,0.0,0.0,0.0,0.0,0.0,0.0,0.0,0.0,0.0,0.0,0.0,0.0,0.0,0.0,0.0,0.0,0.0,0.0,0.0,0.0,0.0,0.0,0.0,0.0,0.0,0.0,0.0,0.0,0.0,0.0,0.0,0.0,0.0,0.0,0.0,0.0,0.0,0.0,0.0,0.0,0.0,0.0,0.0,0.0,0.0,0.0,0.0,0.0,0.0,0.0,0.0,0.0,0.0,0.0,0.0,0.0,0.0,0.0,0.0,0.0,0.0,0.0,0.0,0.0,0.0,0.0,0.0,0.0,0.0,0.0,0.0,0.0,0.0,0.0,0.0,0.0,0.0,0.0,0.0,0.0,0.0,0.0,0.0,0.0,0.0,0.0,0.0,0.0,0.0,0.0,0.0,0.0,0.0,0.0,0.0,0.0,0.0,0.0,0.0,0.0,0.0,0.0,0.0,0.0,0.0,0.0,0.0,0.0,0.0,0.0,0.0,0.0,0.0,0.0,0.0,0.0,0.0,0.0,0.0,0.0,0.0,0.0,0.0,0.0,0.0,0.0,0.0,0.0,0.0,0.0,0.0,0.0,0.0,0.0,0.0,0.0,0.0,0.0,0.0,0.0,0.0,0.0,0.0,0.0,0.0,0.0,0.0,0.0,0.0,0.0,0.0,0.0,0.0,0.0,0.0,0.0,0.0,0.0,0.0,0.0,0.0,0.0,0.0,0.0,0.0,0.0,0.0,0.0,0.0,0.0,0.0,0.0,0.0,0.0,0.0,0.0,0.0,0.0,0.0,0.0,0.0,0.0,0.0,0.0,0.0,0.0,0.0,0.0,0.0,0.0,0.0,0.0,0.0,0.0,0.0,0.0,0.0,0.0,0.0,0.0,0.0,0.0,0.0,0.0,0.0,0.0,0.0,0.0,0.0,0.0,0.0,0.0,0.0,0.0,0.0,0.0,0.0,0.0,0.0,0.0,0.0,0.0,0.0,0.0,0.0,0.0,0.0,0.0,0.0,0.0,0.0,0.0,0.0,0.0,0.0,0.0,0.0,0.0,0.0,0.0,0.0,0.0,0.0,0.0,0.0,0.0,0.0,0.0,0.0,0.0,0.0,0.0,0.0,0.0,0.0,0.0,0.0,0.0,0.0,0.0,0.0,0.0,0.0,0.0,0.0,0.0,0.0,0.0,0.0,0.0,0.0,0.0,0.0,0.0,0.0,0.0,0.0,0.0,0.0,0.0,0.0,0.0,0.0,0.0,0.0,0.0,0.0,0.0,0.0,0.0,0.0,0.0,0.0,0.0,0.0,0.0,0.0,0.0,0.0,0.0,0.0,0.0,0.0,0.0,0.0,0.0,0.0,0.0,0.0,0.0,0.0,0.0,0.0,0.0,0.0,0.0,0.0,0.0,0.0,0.0,0.0,0.0,0.0,0.0,0.0,0.0,0.0,0.0,0.0,0.0,0.0,0.0,0.0,0.0,0.0,0.0,0.0,0.0,0.0,0.0,0.0,0.0,0.0,0.0,0.0,0.0,0.0,0.0,0.0,0.0,0.0,0.0,0.0,0.0,0.0,0.0,0.0,0.0,0.0,0.0,0.0,0.0,0.0,0.0,0.0,0.0,0.0,0.0,0.0,0.0,0.0,0.0,0.0,0.0,0.0,0.0,0.0,0.0,0.0,0.0,0.0,0.0,0.0,0.0,0.0,0.0,0.0,0.0,0.0,0.0,0.0,0.0,0.0,0.0,0.0,0.0,0.0,0.0,0.0,0.0,0.0,0.0,0.0,0.0,0.0,0.0,0.0,0.0,0.0,0.0,0.0,0.0,0.0,0.0,0.0,0.0,0.0,0.0,0.0,0.0,0.0,0.0,0.0,0.0,0.0,0.0,0.0,0.0,0.0,0.0,0.0,0.0,0.0,0.0,0.0,0.0,0.0,0.0,0.0,0.0,0.0,0.0,0.0,0.0,0.0,0.0,0.0,0.0,0.0,0.0,0.0,0.0,0.0,0.0,0.0,0.0,0.0,0.0,0.0,0.0,0.0,0.0,0.0,0.0,0.0,0.0,0.0,0.0,0.0,0.0,0.0,0.0,0.0,0.0,0.0,0.0,0.0,0.0,0.0,0.0,0.0,0.0,0.0,0.0,0.0,0.0,0.0,0.0,0.0,0.0,0.0,0.0,0.0,0.0,0.0,0.0,0.0,0.0,0.0,0.0,0.0,0.0,0.0,0.0,0.0,0.0,0.0,0.0,0.0,0.0,0.0,0.0,0.0,0.0,0.0,0.0,0.0,0.0,0.0,0.0,0.0,0.0,0.0,0.0,0.0,0.0,0.0,0.0,0.0,0.0,0.0,0.0,0.0,0.0,0.0,0.0,0.0,0.0,0.0,0.0,0.0,0.0,0.0,0.0,0.0,0.0,0.0,0.0,0.0,0.0,0.0,0.0,0.0,0.0,0.0,0.0,0.0,0.0,0.0,0.0,0.0,0.0,0.0,0.0,0.0,0.0,0.0,0.0,0.0,0.0,0.0,0.0,0.0,0.0,0.0,0.0,0.0,0.0,0.0,0.0,0.0,0.0,0.0,0.0,0.0,0.0,0.0,0.0,0.0,0.0,0.0,0.0,0.0,0.0,0.0,0.0,0.0,0.0,0.0,0.0,0.0,0.0,0.0,0.0,0.0,0.0,0.0,0.0,0.0,0.0,0.0,0.0,0.0,0.0,0.0,0.0,0.0,0.0,0.0,0.0,0.0,0.0,0.0,0.0,0.0,0.0,0.0,0.0,0.0,0.0,0.0,0.0,0.0,0.0,0.0,0.0,0.0,0.0,0.0,0.0,0.0,0.0,0.0,0.0,0.0,0.0,0.0,0.0,0.0,0.0,0.0,0.0,0.0,0.0,0.0,0.0,0.0,0.0,0.0,0.0,0.0,0.0,0.0,0.0,0.0,0.0,0.0,0.0,0.0,0.0,0.0,0.0,0.0,0.0,0.0,0.0,0.0,0.0,0.0,0.0,0.0,0.0,0.0,0.0,0.0,0.0,0.0,0.0,0.0,0.0,0.0,0.0,0.0,0.0,0.0,0.0,0.0,0.0,0.0,0.0,0.0,0.0,0.0,0.0,0.0,0.0,0.0,0.0,0.0,0.0,0.0,0.0,0.0,0.0,0.0,0.0,0.0,0.0,0.0,0.0,0.0,0.0,0.0,0.0,0.0,0.0,0.0,0.0,0.0,0.0,0.0,0.0,0.0,0.0,0.0,0.0,0.0,0.0,0.0,0.0,0.0,0.0,0.0,0.0,0.0,0.0,0.0,0.0,0.0,0.0,0.0,0.0,0.0,0.0,0.0,0.0,0.0,0.0,0.0,0.0,0.0,0.0,0.0,0.0,0.0,0.0,0.0,0.0,0.0,0.0,0.0,0.0,0.0,0.0,0.0,0.0,0.0,0.0,0.0,0.0,0.0,0.0,0.0,0.0,0.0,0.0,0.0,0.0,0.0,0.0,0.0,0.0,0.0,0.0,0.0,0.0,0.0,0.0,0.0,0.0,0.0,0.0,0.0,0.0,0.0,0.0,0.0,0.0,0.0,0.0,0.0,0.0,0.0,0.0,0.0,0.0,0.0,0.0,0.0,0.0,0.0,0.0,0.0,0.0,0.0,0.0,0.0,0.0,0.0,0.0,0.0,0.0,0.0,0.0,0.0,0.0,0.0,0.0,0.0,0.0,0.0,0.0,0.0,0.0,0.0,0.0,0.0,0.0,0.0,0.0,0.0,0.0,0.0,0.0,0.0,0.0,0.0,0.0,0.0,0.0,0.0,0.0,0.0,0.0,0.0,0.0,0.0,0.0,0.0,0.0,0.0,-6.5641,0.0,0.0,0.0,-6.3092,0.0,0.0,0.0,0.0,0.0,0.0,0.0,0.0,0.0,0.0,0.0,0.0,0.0,0.0,0.0,0.0,0.0,0.0,0.0,0.0,0.0,0.0,0.0,0.0,0.0,0.0,0.0,0.0,0.0,0.0,0.0,0.0,0.0,0.0,0.0,0.0,0.0,0.0,0.0,0.0,0.0,0.0,0.0,0.0,0.0,0.0,0.0,0.0,0.0,0.0,0.0,0.0,0.0,0.0,0.0,0.0,0.0,0.0,0.0,0.0,0.0,0.0,0.0,0.0,0.0,0.0,0.0,0.0,0.0,0.0,0.0,0.0,0.0,0.0,0.0,0.0,0.0,0.0,0.0,0.0,0.0,0.0,0.0,0.0,0.0,0.0,0.0,0.0,0.0,0.0,0.0,0.0,0.0,0.0,0.0,0.0,0.0,0.0,0.0,0.0,0.0,0.0,0.0,0.0,0.0,0.0,0.0,0.0,0.0,0.0,-6.5807,-6.5846,-6.5038,-6.4398,-6.3911,0.0,0.0,0.0,0.0,0.0,0.0,0.0,0.0,0.0,0.0,0.0,0.0,0.0,0.0,0.0,0.0,0.0,0.0,0.0,0.0,0.0,0.0,0.0,0.0,0.0,0.0,0.0,0.0,0.0,0.0,0.0,0.0,0.0,0.0,0.0,0.0,0.0,0.0,0.0,0.0,0.0,0.0,0.0,0.0,0.0,0.0,0.0,0.0,0.0,0.0,0.0,0.0,0.0,0.0,0.0,0.0,0.0,0.0,0.0,0.0,0.0,0.0,0.0,0.0,0.0,0.0,0.0,0.0,0.0,0.0,0.0,0.0,0.0,0.0,0.0,0.0,0.0,0.0,0.0,0.0,0.0,0.0,0.0,0.0,0.0,0.0,0.0,0.0,0.0,0.0,0.0,0.0,0.0,0.0,0.0,0.0,0.0,0.0,0.0,0.0,0.0,0.0,0.0,0.0,0.0,0.0,0.0,0.0,0.0,0.0,0.0,0.0,-6.5321,-6.4667,-6.4154,0.0,0.0,0.0,0.0,0.0,0.0,0.0,0.0,0.0,0.0,0.0,0.0,0.0,0.0,0.0,0.0,0.0,0.0,0.0,0.0,0.0,0.0,0.0,0.0,0.0,0.0,0.0,0.0,0.0,0.0,0.0,0.0,0.0,0.0,0.0,0.0,0.0,0.0,0.0,0.0,0.0,0.0,0.0,0.0,0.0,0.0,0.0,0.0,0.0,0.0,0.0,0.0,0.0,0.0,0.0,0.0,0.0,0.0,0.0,0.0,0.0,0.0,0.0,0.0,0.0,0.0,0.0,0.0,0.0,0.0,0.0,0.0,0.0,0.0,0.0,0.0,0.0,0.0,0.0,0.0,0.0,0.0,0.0,0.0,0.0,0.0,0.0,0.0,0.0,0.0,0.0,0.0,0.0,0.0,0.0,0.0,0.0,0.0,0.0,0.0,0.0,0.0,0.0,0.0,0.0,0.0,0.0,0.0,0.0,0.0,-6.6033,-6.6869,-6.6167,0.0,-6.3334,0.0,0.0,0.0,0.0,0.0,0.0,0.0,0.0,0.0,0.0,0.0,0.0,0.0,0.0,0.0,0.0,0.0,0.0,0.0,0.0,0.0,0.0,0.0,0.0,0.0,0.0,0.0,0.0,0.0,0.0,0.0,0.0,0.0,0.0,0.0,0.0,0.0,0.0,0.0,0.0,0.0,0.0,0.0,0.0,0.0,0.0,0.0,0.0,0.0,0.0,0.0,0.0,0.0,0.0,0.0,0.0,0.0,0.0,0.0,0.0,0.0,0.0,0.0,0.0,0.0,0.0,0.0,0.0,0.0,0.0,0.0,0.0,0.0,0.0,0.0,0.0,0.0,0.0,0.0,0.0,0.0,0.0,0.0,0.0,0.0,0.0,0.0,0.0,0.0,0.0,0.0,0.0,0.0,0.0,0.0,0.0,0.0,0.0,0.0,0.0,0.0,0.0,0.0,0.0,0.0,0.0,0.0,0.0,0.0,0.0,-6.6485,-6.6954,-6.6636,-6.5433,0.0,0.0,0.0,0.0,0.0,0.0,0.0,0.0,0.0,0.0,0.0,0.0,0.0,0.0,0.0,0.0,0.0,0.0,0.0,0.0,0.0,0.0,0.0,0.0,0.0,0.0,0.0,0.0,0.0,0.0,0.0,0.0,0.0,0.0,0.0,0.0,0.0,0.0,0.0,0.0,0.0,0.0,0.0,0.0,0.0,0.0,0.0,0.0,0.0,0.0,0.0,0.0,0.0,0.0,0.0,0.0,0.0,0.0,0.0,0.0,0.0,0.0,0.0,0.0,0.0,0.0,0.0,0.0,0.0,0.0,0.0,0.0,0.0,0.0,0.0,0.0,0.0,0.0,0.0,0.0,0.0,0.0,0.0,0.0,0.0,0.0,0.0,0.0,0.0,0.0,0.0,0.0,0.0,0.0,0.0,0.0,0.0,0.0,0.0,0.0,0.0,0.0,0.0,0.0,0.0,0.0,0.0,0.0,0.0,0.0,-6.6106,-6.6795,-6.6926,-6.7156,-6.5925,-6.311,0.0,0.0,0.0,0.0,0.0,0.0,0.0,0.0,0.0,0.0,0.0,0.0,0.0,0.0,0.0,0.0,0.0,0.0,0.0,0.0,0.0,0.0,0.0,0.0,0.0,0.0,0.0,0.0,0.0,0.0,0.0,0.0,0.0,0.0,0.0,0.0,0.0,0.0,0.0,0.0,0.0,0.0,0.0,0.0,0.0,0.0,0.0,0.0,0.0,0.0,0.0,0.0,0.0,0.0,0.0,0.0,0.0,0.0,0.0,0.0,0.0,0.0,0.0,0.0,0.0,0.0,0.0,0.0,0.0,0.0,0.0,0.0,0.0,0.0,0.0,0.0,0.0,0.0,0.0,0.0,0.0,0.0,0.0,0.0,0.0,0.0,0.0,0.0,0.0,0.0,0.0,0.0,0.0,0.0,0.0,0.0,0.0,0.0,0.0,0.0,0.0,0.0,0.0,0.0,0.0,0.0,0.0,0.0,-6.4687,-6.5889,-6.6682,-6.702,-6.7759,-6.6514,0.0,0.0,0.0,0.0,0.0,0.0,0.0,0.0,0.0,0.0,0.0,0.0,0.0,0.0,0.0,0.0,0.0,0.0,0.0,0.0,0.0,0.0,0.0,0.0,0.0,0.0,0.0,0.0,0.0,0.0,0.0,0.0,0.0,0.0,0.0,0.0,0.0,0.0,0.0,0.0,0.0,0.0,0.0,0.0,0.0,0.0,0.0,0.0,0.0,0.0,0.0,0.0,0.0,0.0,0.0,0.0,0.0,0.0,0.0,0.0,0.0,0.0,0.0,0.0,0.0,0.0,0.0,0.0,0.0,0.0,0.0,0.0,0.0,0.0,0.0,0.0,0.0,0.0,0.0,0.0,0.0,0.0,0.0,0.0,0.0,0.0,0.0,0.0,0.0,0.0,0.0,0.0,0.0,0.0,0.0,0.0,0.0,0.0,0.0,0.0,0.0,0.0,0.0,0.0,0.0,0.0,0.0,0.0,0.0,-6.5351,-6.7237,-6.8043,-6.7659,-6.7882,-6.6391,0.0,0.0,0.0,0.0,0.0,0.0,0.0,0.0,0.0,0.0,0.0,0.0,0.0,0.0,0.0,0.0,0.0,0.0,0.0,0.0,0.0,0.0,0.0,0.0,0.0,0.0,0.0,0.0,0.0,0.0,0.0,0.0,0.0,0.0,0.0,0.0,0.0,0.0,0.0,0.0,0.0,0.0,0.0,0.0,0.0,0.0,0.0,0.0,0.0,0.0,0.0,0.0,0.0,0.0,0.0,0.0,0.0,0.0,0.0,0.0,0.0,0.0,0.0,0.0,0.0,0.0,0.0,0.0,0.0,0.0,0.0,0.0,0.0,0.0,0.0,0.0,0.0,0.0,0.0,0.0,0.0,0.0,0.0,0.0,0.0,0.0,0.0,0.0,0.0,0.0,0.0,0.0,0.0,0.0,0.0,0.0,0.0,0.0,0.0,0.0,0.0,0.0,0.0,0.0,0.0,0.0,0.0,0.0,0.0,-6.6067,0.0,-6.8679,-6.7919,-6.7865,-6.6253,0.0,0.0,0.0,0.0,0.0,0.0,0.0,0.0,0.0,0.0,0.0,0.0,0.0,0.0,0.0,0.0,0.0,0.0,0.0,0.0,0.0,0.0,0.0,0.0,0.0,0.0,0.0,0.0,0.0,0.0,0.0,0.0,0.0,0.0,0.0,0.0,0.0,0.0,0.0,0.0,0.0,0.0,0.0,0.0,0.0,0.0,0.0,0.0,0.0,0.0,0.0,0.0,0.0,0.0,0.0,0.0,0.0,0.0,0.0,0.0,0.0,0.0,0.0,0.0,0.0,0.0,0.0,0.0,0.0,0.0,0.0,0.0,0.0,0.0,0.0,0.0,0.0,0.0,0.0,0.0,0.0,0.0,0.0,0.0,0.0,0.0,0.0,0.0,0.0,0.0,0.0,0.0,0.0,0.0,0.0,0.0,0.0,0.0,0.0,0.0,0.0,0.0,0.0,0.0,0.0,0.0,0.0,0.0,-6.3126,-6.6739,-6.8092,-6.8387,-6.7601,-6.7702,-6.614,0.0,0.0,0.0,0.0,0.0,0.0,0.0,0.0,0.0,0.0,0.0,0.0,0.0,0.0,0.0,0.0,0.0,0.0,0.0,0.0,0.0,0.0,0.0,0.0,0.0,0.0,0.0,0.0,0.0,0.0,0.0,0.0,0.0,0.0,0.0,0.0,0.0,0.0,0.0,0.0,0.0,0.0,0.0,0.0,0.0,0.0,0.0,0.0,0.0,0.0,0.0,0.0,0.0,0.0,0.0,0.0,0.0,0.0,0.0,0.0,0.0,0.0,0.0,0.0,0.0,0.0,0.0,0.0,0.0,0.0,0.0,0.0,0.0,0.0,0.0,0.0,0.0,0.0,0.0,0.0,0.0,0.0,0.0,0.0,0.0,0.0,0.0,0.0,0.0,0.0,0.0,0.0,0.0,0.0,0.0,0.0,0.0,0.0,0.0,0.0,0.0,0.0,0.0,0.0,0.0,0.0,0.0,0.0,0.0,-6.6518,-6.8227,-6.8486,-6.726,-6.7334,-6.5778,0.0,0.0,0.0,0.0,0.0,0.0,0.0,0.0,0.0,0.0,0.0,0.0,0.0,0.0,0.0,0.0,0.0,0.0,0.0,0.0,0.0,0.0,0.0,0.0,0.0,0.0,0.0,0.0,0.0,0.0,0.0,0.0,0.0,0.0,0.0,0.0,0.0,0.0,0.0,0.0,0.0,0.0,0.0,0.0,0.0,0.0,0.0,0.0,0.0,0.0,0.0,0.0,0.0,0.0,0.0,0.0,0.0,0.0,0.0,0.0,0.0,0.0,0.0,0.0,0.0,0.0,0.0,0.0,0.0,0.0,0.0,0.0,0.0,0.0,0.0,0.0,0.0,0.0,0.0,0.0,0.0,0.0,0.0,0.0,0.0,0.0,0.0,0.0,0.0,0.0,0.0,0.0,0.0,0.0,0.0,0.0,0.0,0.0,0.0,0.0,0.0,0.0,0.0,0.0,0.0,0.0,0.0,0.0,0.0,-6.6716,-6.8166,-6.8366,-6.7138,-6.7002,-6.5538,-6.2598,0.0,0.0,0.0,0.0,0.0,0.0,0.0,0.0,0.0,0.0,0.0,0.0,0.0,0.0,0.0,0.0,0.0,0.0,0.0,0.0,0.0,0.0,0.0,0.0,0.0,0.0,0.0,0.0,0.0,0.0,0.0,0.0,0.0,0.0,0.0,0.0,0.0,0.0,0.0,0.0,0.0,0.0,0.0,0.0,0.0,0.0,0.0,0.0,0.0,0.0,0.0,0.0,0.0,0.0,0.0,0.0,0.0,0.0,0.0,0.0,0.0,0.0,0.0,0.0,0.0,0.0,0.0,0.0,0.0,0.0,0.0,0.0,0.0,0.0,0.0,0.0,0.0,0.0,0.0,0.0,0.0,0.0,0.0,0.0,0.0,0.0,0.0,0.0,0.0,0.0,0.0,0.0,0.0,0.0,0.0,0.0,0.0,0.0,0.0,0.0,0.0,0.0,0.0,0.0,0.0,0.0,0.0,0.0,-6.7198,-6.7941,-6.8011,-6.73,-6.6754,-6.5352,0.0,0.0,0.0,0.0,0.0,0.0,0.0,0.0,0.0,0.0,0.0,0.0,0.0,0.0,0.0,0.0,0.0,0.0,0.0,0.0,0.0,0.0,0.0,0.0,0.0,0.0,0.0,0.0,0.0,0.0,0.0,0.0,0.0,0.0,0.0,0.0,0.0,0.0,0.0,0.0,0.0,0.0,0.0,0.0,0.0,0.0,0.0,0.0,0.0,0.0,0.0,0.0,0.0,0.0,0.0,0.0,0.0,0.0,0.0,0.0,0.0,0.0,0.0,0.0,0.0,0.0,0.0,0.0,0.0,0.0,0.0,0.0,0.0,0.0,0.0,0.0,0.0,0.0,0.0,0.0,0.0,0.0,0.0,0.0,0.0,0.0,0.0,0.0,0.0,0.0,0.0,0.0,0.0,0.0,0.0,0.0,0.0,0.0,0.0,0.0,0.0,0.0,0.0,0.0,0.0,0.0,0.0,0.0,0.0,-6.7122,-6.7367,-6.7433,-6.7432,-6.6494,-6.5125,0.0,0.0,0.0,0.0,0.0,0.0,0.0,0.0,0.0,0.0,0.0,0.0,0.0,0.0,0.0,0.0,0.0,0.0,0.0,0.0,0.0,0.0,0.0,0.0,0.0,0.0,0.0,0.0,0.0,0.0,0.0,0.0,0.0,0.0,0.0,0.0,0.0,0.0,0.0,0.0,0.0,0.0,0.0,0.0,0.0,0.0,0.0,0.0,0.0,0.0,0.0,0.0,0.0,0.0,0.0,0.0,0.0,0.0,0.0,0.0,0.0,0.0,0.0,0.0,0.0,0.0,0.0,0.0,0.0,0.0,0.0,0.0,0.0,0.0,0.0,0.0,0.0,0.0,0.0,0.0,0.0,0.0,0.0,0.0,0.0,0.0,0.0,0.0,0.0,0.0,0.0,0.0,0.0,0.0,0.0,0.0,0.0,0.0,0.0,0.0,0.0,0.0,0.0,0.0,0.0,0.0,0.0,0.0,-6.5375,-6.7275,-6.7176,-6.7254,-6.7499,-6.6363,-6.5062,0.0,0.0,0.0,0.0,0.0,0.0,0.0,0.0,0.0,0.0,0.0,0.0,0.0,0.0,0.0,0.0,0.0,0.0,0.0,0.0,0.0,0.0,0.0,0.0,0.0,0.0,0.0,0.0,0.0,0.0,0.0,0.0,0.0,0.0,0.0,0.0,0.0,0.0,0.0,0.0,0.0,0.0,0.0,0.0,0.0,0.0,0.0,0.0,0.0,0.0,0.0,0.0,0.0,0.0,0.0,0.0,0.0,0.0,0.0,0.0,0.0,0.0,0.0,0.0,0.0,0.0,0.0,0.0,0.0,0.0,0.0,0.0,0.0,0.0,0.0,0.0,0.0,0.0,0.0,0.0,0.0,0.0,0.0,0.0,0.0,0.0,0.0,0.0,0.0,0.0,0.0,0.0,0.0,0.0,0.0,0.0,0.0,0.0,0.0,0.0,0.0,0.0,0.0,0.0,0.0,0.0,0.0,0.0,-6.5855,-6.7339,-6.7271,-6.7306,-6.7445,-6.6346,-6.5129,0.0,0.0,0.0,0.0,0.0,0.0,0.0,0.0,0.0,0.0,0.0,0.0,0.0,0.0,0.0,0.0,0.0,0.0,0.0,0.0,0.0,0.0,0.0,0.0,0.0,0.0,0.0,0.0,0.0,0.0,0.0,0.0,0.0,0.0,0.0,0.0,0.0,0.0,0.0,0.0,0.0,0.0,0.0,0.0,0.0,0.0,0.0,0.0,0.0,0.0,0.0,0.0,0.0,0.0,0.0,0.0,0.0,0.0,0.0,0.0,0.0,0.0,0.0,0.0,0.0,0.0,0.0,0.0,0.0,0.0,0.0,0.0,0.0,0.0,0.0,0.0,0.0,0.0,0.0,0.0,0.0,0.0,0.0,0.0,0.0,0.0,0.0,0.0,0.0,0.0,0.0,0.0,0.0,0.0,0.0,0.0,0.0,0.0,0.0,0.0,0.0,0.0,0.0,0.0,0.0,0.0,0.0,0.0,-6.5233,-6.6593,-6.7071,-6.7347,-6.7501,-6.6432,-6.5226,0.0,0.0,0.0,0.0,0.0,0.0,0.0,0.0,0.0,0.0,0.0,0.0,0.0,0.0,0.0,0.0,0.0,0.0,0.0,0.0,0.0,0.0,0.0,0.0,0.0,0.0,0.0,0.0,0.0,0.0,0.0,0.0,0.0,0.0,0.0,0.0,0.0,0.0,0.0,0.0,0.0,0.0,0.0,0.0,0.0,0.0,0.0,0.0,-6.3245,0.0,0.0,0.0,0.0,0.0,0.0,0.0,0.0,0.0,0.0,0.0,0.0,0.0,0.0,0.0,0.0,0.0,0.0,0.0,0.0,0.0,0.0,0.0,0.0,0.0,0.0,0.0,0.0,0.0,0.0,0.0,0.0,0.0,0.0,0.0,0.0,0.0,0.0,0.0,0.0,0.0,0.0,0.0,0.0,0.0,0.0,0.0,0.0,0.0,0.0,0.0,0.0,0.0,0.0,0.0,0.0,0.0,0.0,0.0,-6.5547,-6.6842,-6.7207,-6.7379,-6.7394,-6.6492,-6.5389,0.0,0.0,0.0,0.0,0.0,0.0,0.0,0.0,0.0,0.0,0.0,0.0,0.0,0.0,0.0,0.0,0.0,0.0,0.0,0.0,0.0,0.0,0.0,0.0,0.0,0.0,0.0,0.0,0.0,0.0,0.0,0.0,0.0,0.0,0.0,0.0,0.0,0.0,0.0,0.0,0.0,0.0,0.0,0.0,0.0,0.0,0.0,0.0,0.0,0.0,0.0,0.0,0.0,0.0,0.0,0.0,0.0,0.0,0.0,0.0,0.0,0.0,0.0,0.0,0.0,0.0,0.0,0.0,0.0,0.0,0.0,0.0,0.0,0.0,0.0,0.0,0.0,0.0,0.0,0.0,0.0,0.0,0.0,0.0,0.0,0.0,0.0,0.0,0.0,0.0,0.0,0.0,0.0,0.0,0.0,0.0,0.0,0.0,0.0,0.0,0.0,0.0,0.0,0.0,0.0,0.0,0.0,-6.4393,-6.604,-6.7127,-6.7414,-6.7482,-6.7373,-6.6475,-6.5435,-6.4261,0.0,0.0,0.0,0.0,0.0,0.0,0.0,0.0,0.0,0.0,0.0,0.0,0.0,0.0,0.0,0.0,0.0,0.0,0.0,0.0,0.0,0.0,0.0,0.0,0.0,0.0,0.0,0.0,0.0,0.0,0.0,0.0,0.0,0.0,0.0,0.0,0.0,0.0,-5.9732,-6.1776,0.0,0.0,0.0,0.0,0.0,0.0,0.0,0.0,-6.1987,0.0,0.0,0.0,0.0,0.0,0.0,0.0,0.0,0.0,0.0,0.0,0.0,0.0,0.0,0.0,0.0,0.0,0.0,0.0,0.0,0.0,0.0,0.0,0.0,0.0,0.0,0.0,0.0,0.0,0.0,0.0,0.0,0.0,0.0,0.0,0.0,0.0,0.0,0.0,0.0,0.0,0.0,0.0,0.0,0.0,0.0,0.0,0.0,0.0,0.0,0.0,0.0,0.0,0.0,0.0,0.0,-6.1422,-6.4233,-6.585,-6.6235,-6.7122,-6.7554,-6.7444,-6.6038,-6.4824,-6.383,0.0,0.0,0.0,0.0,0.0,0.0,0.0,0.0,0.0,0.0,0.0,0.0,0.0,0.0,0.0,0.0,0.0,0.0,0.0,0.0,0.0,0.0,0.0,0.0,0.0,0.0,0.0,0.0,0.0,0.0,0.0,0.0,0.0,0.0,0.0,0.0,0.0,0.0,0.0,-6.2208,-6.3358,0.0,0.0,0.0,0.0,0.0,0.0,0.0,0.0,-6.1372,0.0,0.0,0.0,0.0,0.0,0.0,0.0,0.0,0.0,0.0,0.0,0.0,0.0,0.0,0.0,0.0,0.0,0.0,0.0,0.0,0.0,0.0,0.0,0.0,0.0,0.0,0.0,0.0,0.0,0.0,0.0,0.0,0.0,0.0,0.0,0.0,0.0,0.0,0.0,0.0,0.0,0.0,0.0,0.0,0.0,0.0,0.0,0.0,0.0,0.0,0.0,0.0,0.0,0.0,0.0,-6.1361,-6.3843,-6.5598,-6.6555,-6.6879,-6.7179,-6.7513,-6.5682,-6.4234,0.0,0.0,0.0,0.0,0.0,0.0,0.0,0.0,0.0,0.0,0.0,0.0,0.0,0.0,0.0,0.0,0.0,0.0,0.0,0.0,0.0,0.0,0.0,0.0,0.0,0.0,0.0,0.0,0.0,0.0,0.0,0.0,0.0,0.0,0.0,0.0,0.0,0.0,0.0,0.0,-6.1442,-6.237,-6.2791,0.0,0.0,0.0,0.0,0.0,0.0,-6.0666,-6.0807,0.0,0.0,0.0,0.0,0.0,0.0,0.0,0.0,0.0,0.0,0.0,0.0,0.0,0.0,0.0,0.0,0.0,0.0,0.0,0.0,0.0,0.0,0.0,0.0,0.0,0.0,0.0,0.0,0.0,0.0,0.0,0.0,0.0,0.0,0.0,0.0,0.0,0.0,0.0,0.0,0.0,0.0,0.0,0.0,0.0,0.0,0.0,0.0,0.0,0.0,0.0,0.0,0.0,0.0,0.0,-6.1285,-6.3415,-6.5312,-6.6889,-6.6812,-6.6918,-6.7314,-6.5377,-6.3761,0.0,0.0,0.0,0.0,0.0,0.0,0.0,0.0,0.0,0.0,0.0,0.0,0.0,0.0,0.0,0.0,0.0,0.0,0.0,0.0,0.0,0.0,0.0,0.0,0.0,0.0,0.0,0.0,0.0,0.0,0.0,0.0,0.0,0.0,0.0,0.0,0.0,0.0,0.0,0.0,0.0,-6.1195,-6.1816,-6.2076,0.0,0.0,0.0,0.0,-6.0175,-6.015,0.0,0.0,0.0,0.0,0.0,0.0,0.0,0.0,0.0,0.0,0.0,0.0,0.0,0.0,0.0,0.0,0.0,0.0,0.0,0.0,0.0,0.0,0.0,0.0,0.0,0.0,0.0,0.0,0.0,0.0,0.0,0.0,0.0,0.0,0.0,0.0,0.0,0.0,0.0,0.0,0.0,0.0,0.0,0.0,0.0,0.0,0.0,0.0,0.0,0.0,0.0,0.0,0.0,0.0,0.0,0.0,-6.076,-6.3129,-6.4952,-6.6177,-6.7004,-6.71,-6.6513,-6.527,-6.3768,0.0,0.0,0.0,0.0,0.0,0.0,0.0,0.0,0.0,0.0,0.0,0.0,0.0,0.0,0.0,0.0,0.0,0.0,0.0,0.0,0.0,0.0,0.0,0.0,0.0,0.0,0.0,0.0,0.0,0.0,0.0,0.0,0.0,0.0,0.0,0.0,0.0,0.0,0.0,0.0,0.0,-6.0672,-6.1365,-6.1144,-6.0713,0.0,0.0,-5.9964,-5.9674,-5.9336,0.0,0.0,0.0,0.0,0.0,0.0,0.0,0.0,0.0,0.0,0.0,0.0,0.0,0.0,0.0,0.0,0.0,0.0,0.0,0.0,0.0,0.0,0.0,0.0,0.0,0.0,0.0,0.0,0.0,0.0,0.0,0.0,0.0,0.0,0.0,0.0,0.0,0.0,0.0,0.0,0.0,0.0,0.0,0.0,0.0,0.0,0.0,0.0,0.0,0.0,0.0,0.0,0.0,0.0,0.0,-5.8624,-6.0292,-6.2639,-6.4352,-6.5425,-6.6181,-6.6381,-6.5966,-6.4551,-6.3099,0.0,0.0,0.0,0.0,0.0,0.0,0.0,0.0,0.0,0.0,0.0,0.0,0.0,0.0,0.0,0.0,0.0,0.0,0.0,0.0,0.0,0.0,0.0,0.0,0.0,0.0,0.0,0.0,0.0,0.0,0.0,0.0,0.0,0.0,0.0,0.0,0.0,0.0,0.0,0.0,0.0,0.0,-6.0436,-6.0173,0.0,0.0,0.0,-5.9507,-5.9407,0.0,0.0,0.0,0.0,0.0,0.0,0.0,0.0,0.0,0.0,0.0,0.0,0.0,0.0,0.0,0.0,0.0,0.0,0.0,0.0,0.0,0.0,0.0,0.0,0.0,0.0,0.0,0.0,0.0,0.0,0.0,0.0,0.0,0.0,0.0,0.0,0.0,0.0,0.0,0.0,0.0,0.0,0.0,0.0,0.0,0.0,0.0,0.0,0.0,0.0,0.0,0.0,0.0,0.0,0.0,0.0,0.0,-5.987,-6.2085,-6.3721,-6.4774,-6.556,-6.5765,-6.5326,-6.3948,0.0,0.0,0.0,0.0,0.0,0.0,0.0,0.0,0.0,0.0,0.0,0.0,0.0,0.0,0.0,0.0,0.0,0.0,0.0,0.0,0.0,0.0,0.0,0.0,0.0,0.0,0.0,-4.9351,0.0,0.0,0.0,0.0,0.0,0.0,0.0,0.0,0.0,0.0,0.0,0.0,0.0,0.0,-5.8352,-5.9804,-5.9588,-5.9338,0.0,0.0,-5.9216,-5.9285,-5.8782,-5.8446,0.0,0.0,0.0,0.0,0.0,0.0,0.0,0.0,0.0,0.0,0.0,0.0,0.0,0.0,0.0,0.0,0.0,0.0,0.0,0.0,0.0,0.0,0.0,0.0,0.0,0.0,0.0,0.0,-5.5936,0.0,0.0,0.0,0.0,0.0,0.0,0.0,0.0,0.0,0.0,0.0,0.0,0.0,0.0,0.0,0.0,0.0,0.0,0.0,0.0,0.0,0.0,0.0,0.0,0.0,-5.7075,-5.9608,-6.1488,-6.3159,-6.45,-6.5586,-6.5618,-6.4583,-6.3623,-6.2163,0.0,0.0,0.0,0.0,0.0,0.0,0.0,0.0,0.0,0.0,0.0,0.0,0.0,0.0,0.0,0.0,0.0,0.0,0.0,0.0,0.0,0.0,0.0,0.0,0.0,0.0,0.0,0.0,0.0,0.0,0.0,0.0,0.0,0.0,0.0,0.0,0.0,0.0,0.0,0.0,0.0,-5.7684,-5.9722,-5.941,-5.916,0.0,-5.9348,-5.9097,-5.95,-5.8627,-5.8128,-5.8753,0.0,0.0,0.0,0.0,0.0,0.0,0.0,0.0,0.0,0.0,0.0,0.0,0.0,0.0,0.0,0.0,0.0,0.0,0.0,0.0,0.0,0.0,0.0,0.0,0.0,-5.5879,-5.5619,0.0,-5.5234,0.0,0.0,0.0,0.0,0.0,0.0,0.0,0.0,0.0,0.0,0.0,0.0,0.0,0.0,0.0,0.0,0.0,0.0,0.0,0.0,0.0,0.0,0.0,0.0,-5.6834,-5.9088,-6.0912,-6.2371,-6.3431,-6.4499,-6.4615,-6.3704,-6.3064,-6.1834,0.0,0.0,0.0,0.0,0.0,0.0,0.0,0.0,0.0,0.0,0.0,0.0,0.0,0.0,0.0,0.0,0.0,0.0,0.0,0.0,0.0,0.0,0.0,0.0,0.0,0.0,0.0,0.0,-5.0301,-5.0481,-5.0904,0.0,0.0,0.0,0.0,0.0,0.0,0.0,0.0,0.0,0.0,-5.7633,-5.8908,-5.8771,0.0,0.0,-5.8962,-5.8798,-5.8891,-5.8325,-5.7902,-5.7993,-5.7313,0.0,0.0,0.0,0.0,0.0,0.0,0.0,0.0,0.0,0.0,0.0,0.0,0.0,0.0,0.0,0.0,0.0,0.0,0.0,0.0,0.0,0.0,0.0,0.0,0.0,0.0,-5.534,-5.5277,0.0,0.0,0.0,0.0,0.0,0.0,0.0,0.0,0.0,0.0,0.0,0.0,0.0,0.0,0.0,0.0,0.0,0.0,0.0,0.0,0.0,0.0,0.0,0.0,-5.655,-5.8683,-6.0474,-6.1805,-6.2634,-6.3623,-6.3776,-6.3133,-6.2399,-6.1294,-5.9822,0.0,0.0,0.0,0.0,0.0,0.0,0.0,0.0,0.0,0.0,0.0,0.0,0.0,0.0,0.0,0.0,0.0,0.0,0.0,0.0,0.0,0.0,0.0,0.0,0.0,0.0,0.0,-5.0199,-5.0241,-5.0691,0.0,0.0,0.0,0.0,0.0,0.0,0.0,0.0,0.0,0.0,-5.7425,-5.8293,-5.8458,-5.8624,-5.8991,-5.8889,-5.8785,-5.877,-5.8315,-5.7932,-5.7855,0.0,0.0,0.0,0.0,0.0,0.0,0.0,0.0,0.0,0.0,0.0,0.0,0.0,0.0,0.0,0.0,0.0,0.0,0.0,0.0,0.0,0.0,0.0,0.0,0.0,0.0,0.0,-5.6167,0.0,0.0,-5.4499,0.0,0.0,0.0,0.0,0.0,0.0,0.0,0.0,0.0,0.0,0.0,0.0,0.0,0.0,0.0,0.0,0.0,0.0,0.0,0.0,0.0,0.0,-5.6199,-5.8455,-6.0178,-6.1492,-6.231,-6.3066,-6.3316,-6.29,-6.1625,-6.046,-5.9425,0.0,0.0,0.0,0.0,0.0,0.0,0.0,0.0,0.0,0.0,0.0,0.0,0.0,0.0,0.0,0.0,0.0,0.0,0.0,0.0,0.0,0.0,0.0,0.0,0.0,0.0,-5.0493,-5.0136,-4.9931,0.0,0.0,0.0,0.0,0.0,0.0,0.0,0.0,0.0,-5.6248,-5.6395,-5.6831,-5.8115,-5.8653,-5.9114,-5.9834,-5.9348,-5.8975,-5.9225,-5.8726,-5.8379,0.0,0.0,0.0,0.0,0.0,0.0,0.0,0.0,0.0,0.0,0.0,0.0,0.0,0.0,0.0,0.0,0.0,0.0,0.0,0.0,0.0,0.0,0.0,0.0,0.0,0.0,0.0,-5.6511,-5.5926,0.0,0.0,0.0,0.0,0.0,0.0,0.0,0.0,0.0,0.0,0.0,-5.629,-5.6568,0.0,0.0,0.0,0.0,0.0,0.0,0.0,0.0,0.0,0.0,0.0,0.0,-5.6081,-5.7731,-5.9408,-6.0646,-6.1403,-6.2189,-6.2374,-6.1975,-6.1613,-6.0434,-5.8561,0.0,0.0,0.0,0.0,0.0,0.0,0.0,0.0,0.0,0.0,0.0,0.0,0.0,0.0,0.0,0.0,0.0,0.0,0.0,0.0,0.0,0.0,0.0,0.0,0.0,-5.0947,0.0,0.0,0.0,0.0,0.0,0.0,0.0,0.0,0.0,0.0,-5.4464,-5.5329,-5.6221,-5.6785,-5.7414,-5.8313,-5.8776,-5.9128,0.0,0.0,0.0,0.0,0.0,0.0,0.0,0.0,0.0,0.0,0.0,0.0,0.0,-5.6199,-5.648,-5.598,-5.6054,-5.5898,-5.5144,0.0,0.0,0.0,0.0,0.0,0.0,0.0,0.0,0.0,0.0,0.0,0.0,0.0,0.0,-5.7357,-5.6843,-5.6501,0.0,0.0,0.0,0.0,0.0,0.0,0.0,0.0,-5.7494,-5.7917,-5.7727,-5.8,-5.77,-5.6971,-5.6586,-5.5669,0.0,0.0,0.0,0.0,0.0,0.0,0.0,0.0,-5.6398,-5.7779,-5.9253,-6.0276,-6.0865,-6.1497,-6.1615,-6.1204,-6.0996,-5.9938,-5.7902,-5.6201,-5.4575,0.0,0.0,0.0,0.0,0.0,0.0,0.0,0.0,0.0,0.0,0.0,0.0,0.0,0.0,0.0,0.0,0.0,0.0,0.0,0.0,0.0,0.0,0.0,-5.0782,0.0,0.0,0.0,0.0,0.0,0.0,0.0,0.0,0.0,-5.3622,-5.45,-5.5448,-5.6355,-5.6972,-5.758,-5.7999,0.0,0.0,0.0,0.0,0.0,0.0,0.0,-5.8238,-5.7819,-5.6981,-5.6228,-5.5805,-5.5543,-5.5338,-5.5099,0.0,0.0,-5.5144,-5.5287,-5.5286,-5.4799,-5.4854,-5.4875,-5.4699,-5.4648,-5.4648,0.0,0.0,0.0,0.0,-5.9266,0.0,0.0,0.0,-5.9033,-5.883,0.0,-5.7935,0.0,0.0,0.0,0.0,-5.6167,-5.7329,0.0,0.0,-5.8306,-5.8894,-5.9625,-5.914,-5.865,-5.8217,-5.7961,-5.7264,-5.6152,-5.4246,-5.3531,0.0,0.0,0.0,0.0,0.0,-5.6988,-5.8388,-5.9652,-6.0406,-6.0589,-6.0964,-6.1013,-6.0713,-5.9975,-5.8947,-5.7473,-5.6278,-5.5292,-5.4496,-5.2106,0.0,0.0,0.0,0.0,0.0,0.0,0.0,0.0,0.0,0.0,0.0,0.0,0.0,0.0,0.0,0.0,0.0,0.0,0.0,0.0,-5.0585,0.0,0.0,0.0,0.0,0.0,0.0,0.0,0.0,0.0,-5.4577,-5.448,-5.4639,-5.5226,-5.6532,0.0,0.0,0.0,0.0,-5.8195,-5.8195,-5.8195,-5.8195,-5.8195,-5.814,-5.811,-5.814,0.0,0.0,-5.4691,-5.4405,-5.4173,-5.3646,-5.35,-5.3766,-5.4628,-5.4849,-5.4734,-5.4257,-5.4229,-5.4246,-5.4451,-5.4406,-5.4406,-6.2874,0.0,0.0,0.0,0.0,-6.0114,-6.0084,-6.0326,-6.0018,-5.9593,-5.9069,-5.8832,0.0,0.0,0.0,0.0,0.0,0.0,-5.9024,-5.9147,-5.9798,-6.0039,-5.9898,-6.0052,-5.9682,-5.8922,-5.9031,-5.8423,-5.7214,-5.6315,-5.5446,-5.4621,0.0,0.0,0.0,0.0,-5.6522,-5.7695,-5.8605,-5.9503,-6.0295,-6.0396,-6.0438,-6.0377,-5.9635,-5.9041,-5.8349,-5.7101,-5.5782,-5.456,-5.3174,0.0,0.0,0.0,0.0,0.0,0.0,0.0,0.0,0.0,0.0,0.0,0.0,0.0,0.0,0.0,0.0,0.0,0.0,0.0,-5.1463,-5.1832,-5.1553,0.0,0.0,0.0,0.0,0.0,0.0,0.0,0.0,0.0,-5.4701,-5.5389,-5.6179,0.0,0.0,-5.7399,-5.7871,-5.8077,-5.8169,-5.7948,-5.7948,0.0,-5.7584,-5.7416,-5.7276,-5.7276,-5.6474,-5.5415,-5.4041,-5.3812,-5.3611,-5.3062,-5.2947,-5.302,-5.3268,-5.3958,-5.4309,-5.3992,-5.401,-5.4007,-5.3604,-5.32,-5.2963,-6.4252,-6.3481,-6.23,-6.1741,-6.1695,-6.1297,-6.1295,-6.1561,-6.1218,-6.0801,-6.0344,-5.9965,-5.9572,-5.9118,-5.9118,0.0,0.0,0.0,-5.9993,-5.9826,-6.0566,-6.0706,-6.0446,-6.0605,-6.0377,-5.9822,-5.9993,-5.949,-5.8427,-5.7759,-5.7042,-5.6183,0.0,-5.4552,-5.4905,-5.57,-5.6809,-5.8047,-5.862,-5.9277,-6.0196,-5.9933,-5.9825,-5.9797,-5.9168,-5.8696,-5.8367,-5.7196,-5.6052,-5.4896,-5.3496,-5.2057,0.0,0.0,0.0,0.0,0.0,0.0,0.0,0.0,0.0,0.0,0.0,-4.739,-4.7657,0.0,0.0,0.0,-5.0236,-5.1106,-5.1641,-5.2003,0.0,0.0,0.0,0.0,0.0,0.0,0.0,-5.3077,-5.3683,-5.43,-5.5045,-5.5805,-5.6511,-5.686,-5.689,-5.7035,-5.7414,0.0,-5.7416,-5.7276,-5.7276,-5.722,-5.6964,-5.6823,-5.6652,-5.6537,-5.608,-5.5339,-5.4232,-5.3834,-5.3437,-5.2869,-5.2528,-5.2383,-5.2437,-5.3025,-5.3541,-5.3576,-5.3845,-5.39,-5.3614,-5.3278,-5.306,-6.5436,-6.4804,-6.3994,-6.3192,-6.2468,-6.2864,-6.3013,-6.2962,-6.2478,-6.2217,-6.2155,-6.1225,-6.0791,-6.0791,-6.0791,0.0,-6.0455,-6.1126,-6.1001,-6.0211,-6.0783,-6.1157,-6.1144,-6.0882,-6.0706,-6.0706,-6.0706,-6.0385,-5.9654,-5.8769,-5.8294,-5.8147,-5.6183,-5.5586,-5.635,-5.6564,-5.7444,-5.8997,-5.9073,-5.9445,-6.0075,-5.9459,-5.9149,-5.9121,-5.8559,-5.8034,-5.7746,-5.6847,-5.6078,-5.5307,-5.3451,-5.2082,-5.14,0.0,0.0,0.0,0.0,0.0,0.0,0.0,0.0,0.0,0.0,0.0,0.0,0.0,0.0,-4.9345,-5.0717,0.0,-5.1686,-5.1744,0.0,0.0,0.0,-5.1563,-5.211,-5.2448,-5.2915,-5.3571,0.0,0.0,-5.5424,-5.588,-5.625,-5.6222,-5.6337,-5.6423,-5.6423,-5.6451,-5.6423,-5.6423,-5.6423,-5.6337,-5.6337,-5.6279,-5.6193,-5.5961,-5.5932,-5.5475,-5.4682,-5.4119,-5.3529,-5.2826,-5.2236,-5.1952,-5.2141,-5.2221,-5.2437,-5.3208,-5.3629,-5.389,-5.4061,-5.3994,-5.3928,-6.6504,-6.6375,-6.6177,-6.4994,-6.3308,-6.3173,-6.3161,-6.3109,-6.2579,-6.2365,-6.2342,-6.1805,-6.1636,-6.1636,-6.1605,-6.1582,-6.1558,-6.2006,-6.2117,-6.1954,-6.187,-6.185,-6.1821,-6.1319,-6.1081,-6.1081,-6.1081,-6.0613,-5.9709,-5.9479,-5.8956,-5.8204,-5.6821,-5.6191,-5.6344,-5.6368,-5.7062,-5.8404,-5.8201,-5.8547,-5.9397,-5.8817,-5.8502,-5.8502,-5.7912,-5.7475,-5.7151,-5.6619,-5.5851,-5.4732,-5.3466,-5.2235,-5.1111,-4.8905,0.0,0.0,0.0,0.0,0.0,0.0,0.0,0.0,0.0,-4.7593,-4.7985,0.0,-4.9549,0.0,-5.1104,-5.2554,-5.3041,-5.3528,0.0,0.0,-5.3229,-5.3153,-5.2923,-5.2909,-5.3247,-5.3892,-5.3997,-5.4243,-5.4775,-5.497,-5.5054,-5.5054,-5.5845,-5.6423,-5.6423,-5.6423,-5.6365,-5.6135,-5.6077,-5.6019,-5.5729,-5.5496,-5.532,-5.5261,-5.5113,-5.4772,-5.4276,-5.4111,-5.3721,-5.2911,-5.2602,-5.2376,-5.2008,-5.2059,-5.2221,-5.2491,-5.2947,-5.3319,-5.3372,-5.3204,-5.3062,-6.7196,-6.6919,-6.6919,-6.6195,-6.5049,-6.4607,-6.4189,-6.3718,-6.3281,-6.3036,-6.287,-6.2561,-6.2479,-6.2393,-6.2449,-6.2544,-6.2845,-6.3036,-6.3282,-6.3408,-6.312,-6.2911,-6.2731,-6.2278,-6.189,-6.16,-6.1418,-6.095,-6.0134,-5.9666,-5.9171,-5.8708,-5.7707,-5.7082,-5.6752,-5.6501,-5.6995,-5.8204,-5.85,-5.8838,-5.9149,-5.8615,-5.8306,-5.8278,-5.7435,-5.6708,-5.6265,-5.5818,-5.5055,-5.3945,-5.3066,-5.211,-5.1012,-4.9076,-4.7984,0.0,0.0,0.0,0.0,0.0,0.0,0.0,0.0,0.0,0.0,0.0,-5.0587,-5.0753,-5.1917,-5.2798,-5.3163,-5.3754,-5.3979,-5.3641,-5.3977,-5.4198,-5.4114,-5.4132,-5.4401,-5.5011,-5.4694,-5.4607,-5.4939,-5.4745,-5.4607,-5.4607,-5.5172,-5.5613,-5.5613,-5.5641,-5.5554,-5.5407,-5.5348,-5.5348,-5.5113,-5.4936,-5.4817,-5.4817,-5.4726,-5.4529,-5.4373,-5.4068,-5.3768,-5.3386,-5.2883,-5.2463,-5.2264,-5.2065,-5.2004,-5.2059,-5.2411,-5.2734,-5.2894,-5.2872,-5.2903,-6.7689,-6.7165,-6.7165,-6.7104,-6.7012,-6.6339,-6.5525,-6.4657,-6.4314,-6.3944,-6.3544,-6.3314,-6.3228,-6.3318,-6.3318,-6.3617,-6.4126,-6.4126,-6.4278,-6.4545,-6.4273,-6.3879,-6.3573,-6.3266,-6.279,-6.2238,-6.1784,-6.1282,-6.0736,-5.974,-5.9244,-5.9155,-5.8557,-5.8047,-5.7505,-5.6905,-5.719,-5.8332,-5.9196,-5.9544,-5.9205,-5.8559,-5.8193,-5.8137,-5.6957,-5.5973,-5.5357,-5.4823,-5.4064,-5.3156,-5.2476,-5.1839,-5.1093,-4.9366,-4.8411,0.0,-4.6962,0.0,0.0,0.0,0.0,0.0,0.0,0.0,0.0,-5.0475,-5.1672,-5.2827,-5.2903,-5.2975,-5.3141,-5.3637,-5.3941,-5.3968,-5.441,-5.4874,-5.537,-5.5453,-5.5585,-5.6108,-5.5783,-5.5508,-5.548,-5.4957,-5.4598,-5.4538,-5.4516,-5.452,-5.446,-5.458,-5.4726,-5.4607,-5.4607,-5.4726,-5.4667,-5.4607,-5.452,-5.452,-5.446,-5.446,-5.452,-5.4079,-5.3723,-5.3849,-5.3214,-5.2659,-5.2659,-5.2209,-5.1899,-5.1869,-5.2004,-5.2275,-5.2573,-5.2812,-5.3054,-6.8643,-6.852,-6.852,-6.8212,-6.7662,-6.7277,-6.6702,-6.5945,-6.514,-6.4495,-6.3944,-6.3885,-6.4126,-6.4635,-6.4665,-6.4725,-6.4844,-6.4785,-6.4726,-6.4516,-6.4244,-6.3909,-6.3603,-6.3295,-6.3022,-6.2877,-6.2014,-6.136,-6.097,-6.009,-5.947,-5.9223,-5.8602,-5.8236,-5.8123,0.0,0.0,0.0,-5.8963,-5.9267,-5.9177,-5.8137,-5.7547,-5.7519,-5.6339,0.0,-5.4432,-5.4262,-5.3612,-5.2476,-5.1985,0.0,0.0,0.0,0.0,0.0,0.0,0.0,0.0,0.0,0.0,0.0,-5.0711,-5.049,-5.0225,-5.1097,-5.2377,-5.3951,-5.4138,-5.4548,-5.5513,-5.5707,-5.5789,-5.5789,-5.5716,-5.5669,-5.5778,-5.5558,-5.5488,-5.557,-5.5488,-5.5434,-5.5379,-5.4889,-5.4508,-5.4515,-5.41,-5.38,-5.38,-5.4221,-5.4607,-5.4607,-5.4548,-5.4607,-5.4607,-5.4341,-5.4221,-5.4134,-5.3954,-5.3894,-5.4134,-5.4139,-5.3869,-5.3779,-5.3738,-5.341,-5.2631,-5.2463,-5.2349,-5.1871,-5.1841,-5.195,-5.2221,-5.2544,-5.2841,-6.8889,-6.8889,-6.8889,-6.8705,0.0,-6.8015,-6.7596,-6.7113,-6.5789,-6.4927,-6.4515,-6.4515,-6.4695,-6.5024,-6.5024,-6.5203,-6.5503,-6.5322,-6.532,-6.5496,-6.5005,-6.4725,-6.4539,-6.4226,-6.3864,-6.3545,-6.2697,-6.2068,-6.1594,-6.0807,-6.0259,-6.0132,-5.9514,-5.894,-5.8507,-5.8014,-5.8138,-5.8755,-5.8877,-5.8955,-5.8927,-5.778,-5.7136,-5.7108,-5.6111,0.0,0.0,0.0,0.0,0.0,0.0,0.0,0.0,-5.1013,-5.0568,-5.0518,-4.9661,-4.9662,-5.0574,-5.06,-5.0953,-5.2014,-5.2257,-5.2203,-5.1944,-5.2506,-5.3365,-5.4508,-5.4521,-5.4642,-5.5274,-5.5537,-5.5817,-5.6033,-5.6151,-5.6342,-5.6468,-5.6405,-5.6278,-5.6251,-5.6034,-5.5844,-5.5844,-5.503,-5.4514,-5.446,-5.3972,-5.3619,-5.3592,-5.3833,-5.4101,-5.4101,-5.4101,-5.4101,-5.4101,-5.3981,-5.3833,-5.3833,-5.3713,-5.3652,-5.3833,-5.3833,-5.3844,-5.3842,-5.3744,-5.345,-5.3297,-5.2826,-5.2463,-5.2237,-5.1983,-5.1869,-5.2004,-5.2221,-5.2519,-6.8889,-6.8889,-6.8889,-6.8858,-6.8772,-6.8476,-6.8119,-6.7698,-6.625,0.0,0.0,-6.5203,-6.5263,-6.5323,-6.5323,-6.5562,-6.604,-6.5765,-6.5878,-6.629,-6.5727,-6.5475,-6.5412,-6.5094,-6.4706,-6.4149,-6.337,-6.2708,-6.2251,-6.1465,-6.1088,-6.1059,-6.0554,-5.9858,-5.901,-5.8222,-5.8285,-5.9235,-5.8878,-5.8578,-5.8613,-5.7555,-5.6971,-5.6999,-5.6041,-5.4956,-5.3864,-5.3724,-5.3246,-5.2462,-5.2405,-5.2512,-5.2694,-5.2248,-5.2075,-5.2194,-5.135,-5.1397,-5.262,-5.2263,-5.2332,-5.3075,-5.3441,-5.3646,-5.3612,-5.3858,-5.4208,-5.4861,-5.4634,-5.4533,-5.4576,-5.5028,-5.5477,-5.5827,-5.6321,-5.672,-5.7044,-5.7109,-5.7055,-5.7119,-5.6739,-5.6441,-5.6414,-5.5518,-5.4731,-5.4596,-5.4189,-5.3673,-5.3619,-5.3592,-5.3652,-5.3652,-5.3652,-5.3592,-5.3592,-5.3592,-5.3592,-5.3592,-5.3592,-5.3592,-5.3592,-5.3592,-5.3713,-5.3926,-5.3576,-5.3571,-5.376,-5.3101,-5.2519,-5.2575,-5.2208,-5.1787,-5.1841,-5.195,-5.2113,-6.8889,-6.8889,-6.8889,-6.8713,-6.8446,-6.8179,-6.7729,-6.7122,-6.6251,-6.5922,-6.5862,-6.5892,-6.6191,-6.6729,-6.6423,-6.633,-6.6419,-6.6077,-6.5856,-6.5664,-6.5538,-6.5348,-6.506,-6.506,-6.4938,-6.4758,-6.3571,-6.2936,-6.273,-6.1663,-6.1088,-6.1088,-6.1003,-6.0698,-6.0264,-5.9857,-5.9727,-5.9847,-5.8851,-5.8262,-5.8262,-5.7598,-5.7238,-5.7183,-5.6138,-5.5169,-5.4449,-5.3924,-5.3312,-5.2674,-5.2883,-5.2893,-5.262,-5.2788,-5.2756,-5.2559,-5.2364,-5.2604,-5.321,-5.321,-5.3325,-5.3673,-5.4217,-5.4425,-5.4223,-5.4223,-5.448,-5.5039,-5.5055,-5.5268,-5.5785,-5.5853,-5.5972,-5.6064,-5.6117,-5.6328,-5.6747,-5.6812,-5.6877,-5.7109,-5.7119,-5.7038,-5.6929,-5.6387,-5.5762,-5.5328,-5.4677,-5.4162,-5.3754,-5.3592,-5.3592,-5.3592,-5.3592,-5.3592,-5.3592,-5.3592,-5.3592,-5.3592,-5.3592,-5.3592,-5.3592,-5.3592,-5.3652,-5.3652,-5.3784,-5.3805,-5.3485,-5.3232,-5.2907,-5.2547,-5.2155,-5.1871,-5.1815,-5.1841,-5.195,-6.8889,-6.8889,-6.8889,-6.8682,-6.8327,-6.797,-6.7487,-6.6969,-6.667,-6.655,-6.655,-6.6367,-6.6455,-6.6661,-6.6382,-6.6195,-6.6195,-6.5882,-6.5694,-6.5475,-6.5285,-6.5187,-6.4996,-6.4996,-6.4996,-6.4967,-6.4038,-6.3508,-6.3414,-6.2538,-6.2071,-6.2006,-6.1342,-6.0913,-6.0661,-5.9858,-5.9593,-5.996,-5.927,-5.8896,-5.8869,-5.7743,-5.7186,-5.7186,-5.6038,-5.5046,-5.4445,-5.4172,-5.3839,-5.3386,-5.345,-5.3504,-5.3555,-5.3637,-5.3547,-5.326,-5.326,-5.3435,-5.3825,-5.4167,-5.4392,-5.4551,-5.4748,-5.484,-5.4773,-5.4747,-5.4853,-5.5116,-5.5143,-5.5248,-5.5512,-5.5538,-5.5604,-5.5802,-5.5802,-5.6,-5.6328,-5.6616,-5.6747,-5.6942,-5.7109,-5.7174,-5.7174,-5.6658,-5.6224,-5.5844,-5.5111,-5.4379,-5.408,-5.3782,-5.3592,-5.3592,-5.3592,-5.3592,-5.3592,-5.3592,-5.3592,-5.3592,-5.3592,-5.3592,-5.3592,-5.3592,-5.3592,-5.3592,-5.3713,-5.3812,-5.3604,-5.3433,-5.3118,-5.2909,-5.2408,-5.2072,-5.1872,-5.1787,-5.1841,-6.8889,-6.8889,-6.8889,-6.8654,-6.8238,-6.7669,-6.7243,-6.6999,-6.6999,-6.6999,-6.6937,-6.6629,-6.6506,-6.6444,-6.607,-6.5882,-6.5819,-6.5538,-6.5412,-6.5348,-6.5124,-6.4996,-6.4996,-6.4996,-6.4996,-6.4932,-6.4354,-6.403,-6.39,-6.3244,-6.2876,-6.2659,-6.1681,-6.1098,-6.0965,-5.9951,-5.9616,-6.0023,-5.9884,-5.9609,-5.9172,-5.7955,-5.7217,-5.6963,-5.5988,-5.5168,-5.461,-5.4448,-5.4243,-5.4021,-5.4065,-5.417,-5.4379,-5.441,-5.4361,-5.4103,-5.4103,-5.4183,-5.4367,-5.4837,-5.5099,-5.5099,-5.5099,-5.5099,-5.5099,-5.5099,-5.5099,-5.5099,-5.5072,-5.5072,-5.5099,-5.5099,-5.5232,-5.5498,-5.5472,-5.5604,-5.5934,-5.6263,-5.6551,-5.6655,-5.6942,-5.7109,-5.7119,-5.6794,-5.6468,-5.617,-5.5247,-5.4541,-5.4406,-5.3972,-5.3619,-5.3592,-5.3592,-5.3592,-5.3592,-5.3592,-5.3592,-5.3592,-5.3592,-5.3592,-5.3592,-5.3592,-5.3592,-5.3592,-5.3592,-5.3713,-5.3899,-5.3554,-5.3268,-5.3093,-5.2656,-5.2184,-5.1872,-5.1787,-5.1787,-6.8889,-6.8889,-6.8889,-6.8535,-6.797,-6.7365,-6.706,-6.6999,-6.6999,-6.6999,-6.6937,-6.6691,-6.6506,-6.6444,-6.5853,-6.5538,-6.5538,-6.5158,-6.5031,-6.506,-6.4996,-6.4996,-6.4996,-6.4996,-6.4996,-6.4932,-6.4354,-6.403,-6.3965,-6.3244,-6.2715,-6.2448,-6.1963,-6.1571,-6.126,-6.0798,-6.0688,-6.0674,-6.0715,-5.9873,-5.8325,-5.8107,-5.7586,-5.672,-5.6128,-5.5559,-5.5104,-5.4624,-5.433,-5.4293,-5.4478,-5.4601,-5.4707,-5.4892,-5.4982,-5.4982,-5.4982,-5.4968,-5.502,-5.5072,-5.5099,-5.5099,-5.5099,-5.5099,-5.5099,-5.5099,-5.5099,-5.5099,-5.5099,-5.5099,-5.5099,-5.5099,-5.5099,-5.5165,-5.5165,-5.5299,-5.5538,-5.567,-5.5934,-5.6616,-5.6682,-5.6877,-5.7109,-5.7092,-5.6875,-5.6441,-5.5437,-5.465,-5.4541,-5.408,-5.3646,-5.3619,-5.3592,-5.3592,-5.3592,-5.3592,-5.3592,-5.3592,-5.3592,-5.3592,-5.3592,-5.3592,-5.3592,-5.3592,-5.3592,-5.3652,-5.3604,-5.343,-5.3225,-5.3131,-5.2733,-5.224,-5.1874,-5.1787,-5.1787,-6.8889,-6.8889,-6.8889,-6.8535,-6.7939,-6.7304,-6.6999,-6.6999,-6.6999,-6.6999,-6.6937,-6.6629,-6.6382,-6.6195,-6.5727,-6.5412,-6.5222,-6.5031,-6.4996,-6.4996,-6.4996,-6.4996,-6.4996,-6.4996,-6.4996,-6.4932,-6.4354,-6.403,-6.39,-6.3244,-6.2809,-6.2648,-6.2086,-6.1749,-6.1546,-6.1098,-6.0755,-6.0755,-6.0755,-6.0077,-5.8802,-5.8386,-5.7823,-5.6929,-5.6105,-5.5524,-5.5195,-5.4892,-5.4761,-5.4787,-5.4892,-5.4931,-5.4958,-5.5034,-5.5099,-5.5099,-5.5099,-5.5099,-5.5099,-5.5099,-5.5099,-5.5099,-5.5099,-5.5099,-5.5099,-5.5099,-5.5099,-5.5099,-5.5099,-5.5099,-5.5099,-5.5099,-5.5099,-5.5099,-5.5099,-5.5165,-5.5299,-5.5498,-5.5736,-5.6,-5.6197,-5.6459,-5.685,-5.7044,-5.7092,-5.6766,-5.6034,-5.5437,-5.5084,-5.4514,-5.3999,-5.37,-5.3592,-5.3592,-5.3592,-5.3592,-5.3592,-5.3592,-5.3592,-5.3592,-5.3592,-5.3592,-5.3592,-5.3592,-5.3592,-5.3592,-5.3592,-5.3549,-5.3397,-5.3198,-5.2757,-5.2268,-5.2128,-5.193,-5.1843,-6.8889,-6.8889,-6.8713,-6.8417,-6.797,-6.7304,-6.6999,-6.6999,-6.6999,-6.6999,-6.6999,-6.6753,-6.6444,-6.6132,-6.5664,-6.5348,-6.5187,-6.506,-6.4996,-6.4996,-6.4996,-6.4996,-6.4996,-6.4996,-6.4996,-6.4932,-6.4354,-6.39,-6.3704,-6.3178,-6.2876,-6.2648,-6.2086,-6.1721,-6.1614,-6.1098,-6.0755,-6.0755,-6.0755,-6.0213,-5.9154,-5.8697,-5.8053,-5.693,-5.6173,-5.5538,-5.5232,-5.5165,-5.5099,-5.5099,-5.5099,-5.5099,-5.5099,-5.5099,-5.5099,-5.5099,-5.5099,-5.5099,-5.5099,-5.5099,-5.5099,-5.5099,-5.5099,-5.5099,-5.5099,-5.5099,-5.5099,-5.5099,-5.5099,-5.5099,-5.5099,-5.5099,-5.5099,-5.5099,-5.5099,-5.5099,-5.5099,-5.5365,-5.5498,-5.5604,-5.5868,-5.6132,-5.6616,-5.6942,-5.7044,-5.7092,-5.6631,-5.6088,-5.5491,-5.4867,-5.427,-5.3727,-5.3592,-5.3592,-5.3592,-5.3592,-5.3592,-5.3592,-5.3592,-5.3592,-5.3592,-5.3592,-5.3592,-5.3592,-5.3592,-5.3592,-5.3592,-5.3598,-5.3522,-5.3253,-5.2834,-5.2404,-5.2099,-5.1989,-5.1875,-6.8889,-6.883,-6.8298,-6.803,-6.797,-6.7304,-6.6999,-6.6999,-6.6999,-6.6999,-6.6999,-6.6999,-6.6785,-6.6444,-6.5853,-6.5475,-6.5412,-6.5158,-6.4996,-6.4996,-6.4996,-6.4996,-6.4996,-6.4996,-6.4996,-6.4932,-6.4354,-6.3638,-6.3046,-6.2942,-6.2715,-6.2476,-6.2018,-6.1614,-6.137,-6.0961,-6.0755,-6.0755,-6.0755,-6.0185,-5.9154,-5.8992,-5.825,-5.687,-5.6263,-5.5868,-5.5538,-5.5299,-5.5099,-5.5099,-5.5099,-5.5099,-5.5099,-5.5099,-5.5099,-5.5099,-5.5099,-5.5099,-5.5099,-5.5099,-5.5099,-5.5099,-5.5099,-5.5099,-5.5099,-5.5099,-5.5099,-5.5099,-5.5099,-5.5099,-5.5099,-5.5099,-5.5099,-5.5099,-5.5099,-5.5099,-5.5099,-5.5099,-5.5299,-5.5472,-5.5604,-5.5934,-5.6551,-5.6682,-5.6877,-5.6963,-5.6685,-5.6142,-5.5573,-5.4921,-5.4351,-5.3863,-5.3646,-5.3592,-5.3592,-5.3592,-5.3592,-5.3592,-5.3592,-5.3592,-5.3592,-5.3592,-5.3592,-5.3592,-5.3592,-5.3592,-5.3592,-5.3571,-5.3441,-5.3325,-5.3198,-5.2828,-5.2398,-5.2266,-5.2073,-6.8889,-6.883,-6.8269,-6.803,-6.791,-6.7304,-6.6999,-6.6999,-6.6999,-6.6999,-6.6999,-6.6999,-6.6937,-6.6814,-6.6382,-6.5915,-6.5538,-6.5348,-6.5222,-6.506,-6.4996,-6.4996,-6.4996,-6.4996,-6.4996,-6.4932,-6.4354,-6.3638,-6.298,-6.2914,-6.2876,-6.2648,-6.2086,-6.1749,-6.1546,-6.1098,-6.0755,-6.0755,-6.0755,-6.0213,-5.9127,-5.8992,-5.8356,-5.7088,-5.6459,-5.5934,-5.5604,-5.5299,-5.5099,-5.5099,-5.5099,-5.5099,-5.5099,-5.5099,-5.5099,-5.5099,-5.5099,-5.5099,-5.5099,-5.5099,-5.5099,-5.5099,-5.5099,-5.5099,-5.5099,-5.5099,-5.5099,-5.5099,-5.5099,-5.5099,-5.5099,-5.5099,-5.5099,-5.5099,-5.5099,-5.5099,-5.5099,-5.5099,-5.5165,-5.5299,-5.5432,-5.5736,-5.6,-5.6197,-5.6459,-5.6785,-5.6688,-5.6347,-5.5998,-5.5464,-5.484,-5.427,-5.3836,-5.3592,-5.3592,-5.3592,-5.3592,-5.3592,-5.3592,-5.3592,-5.3592,-5.3592,-5.3592,-5.3592,-5.3592,-5.3592,-5.3592,-5.3592,-5.3522,-5.3468,-5.3375,-5.317,-5.2798,-5.2478,-5.2124,-6.8889,-6.883,-6.8358,-6.809,-6.797,-6.7396,-6.7121,-6.6999,-6.6999,-6.6999,-6.6999,-6.6999,-6.6999,-6.6999,-6.6753,-6.6382,-6.579,-6.5601,-6.5348,-6.5187,-6.5031,-6.4996,-6.4996,-6.4996,-6.4996,-6.4932,-6.4354,-6.3638,-6.298,-6.2914,-6.2914,-6.2848,-6.2153,-6.1789,-6.1681,-6.1166,-6.0755,-6.0755,-6.0755,-6.0185,-5.9154,-5.8992,-5.8422,-5.7326,-5.659,-5.6132,-5.5802,-5.5432,-5.5232,-5.5099,-5.5099,-5.5099,-5.5099,-5.5099,-5.5099,-5.5099,-5.5099,-5.5099,-5.5099,-5.5099,-5.5099,-5.5099,-5.5099,-5.5099,-5.5099,-5.5099,-5.5099,-5.5099,-5.5099,-5.5099,-5.5099,-5.5099,-5.5099,-5.5099,-5.5099,-5.5099,-5.5099,-5.5099,-5.5099,-5.5165,-5.5299,-5.5498,-5.5604,-5.5802,-5.6132,-5.6459,-5.6551,-5.6413,-5.6131,-5.56,-5.5068,-5.4569,-5.3944,-5.3673,-5.3592,-5.3592,-5.3592,-5.3592,-5.3592,-5.3592,-5.3592,-5.3592,-5.3592,-5.3592,-5.3592,-5.3592,-5.3592,-5.3592,-5.3592,-5.3565,-5.3522,-5.3261,-5.2947,-5.2657,-5.2306,-6.8889,-6.883,-6.8505,-6.8238,-6.797,-6.7608,-6.7304,-6.706,-6.6999,-6.6999,-6.6999,-6.6999,-6.6999,-6.6999,-6.6937,-6.6814,-6.6382,-6.5853,-6.5538,-6.5412,-6.5187,-6.4996,-6.4996,-6.4996,-6.4932,-6.4839,-6.426,-6.361,-6.2914,-6.2914,-6.2914,-6.2781,-6.222,-6.1856,-6.1789,-6.1166,-6.0851,-6.0851,-6.0755,-6.0185,-5.9154,-5.8992,-5.8422,-5.7336,-5.685,-5.6524,-5.6132,-5.5736,-5.5405,-5.5165,-5.5099,-5.5099,-5.5099,-5.5099,-5.5099,-5.5099,-5.5099,-5.5099,-5.5099,-5.5099,-5.5099,-5.5099,-5.5099,-5.5099,-5.5099,-5.5099,-5.5099,-5.5099,-5.5099,-5.5099,-5.5099,-5.5099,-5.5099,-5.5099,-5.5099,-5.5099,-5.5099,-5.5099,-5.5099,-5.5099,-5.5165,-5.5232,-5.5472,-5.5604,-5.5736,-5.6,-5.6105,-5.6103,-5.5891,-5.5401,-5.4853,-5.4499,-5.4053,-5.3619,-5.3592,-5.3592,-5.3592,-5.3592,-5.3592,-5.3592,-5.3592,-5.3592,-5.3592,-5.3592,-5.3592,-5.3592,-5.3592,-5.3592,-5.3592,-5.3565,-5.3489,-5.3408,-5.3147,-5.2888,-5.2674,-6.8889,-6.8889,-6.8505,-6.8238,-6.797,-6.7669,-6.7304,-6.6999,-6.6999,-6.6999,-6.6999,-6.6999,-6.6999,-6.6999,-6.6999,-6.6937,-6.6814,-6.6195,-6.5727,-6.5475,-6.5187,-6.4996,-6.4996,-6.4996,-6.474,-6.4268,-6.3637,-6.3175,-6.2924,-6.2914,-6.2914,-6.2781,-6.2448,-6.2086,-6.1816,-6.1343,-6.1057,-6.0824,-6.0755,-6.0185,-5.9127,-5.8992,-5.8422,-5.7336,-5.7109,-5.685,-5.6524,-5.5934,-5.5538,-5.5432,-5.5232,-5.5099,-5.5099,-5.5099,-5.5099,-5.5099,-5.5099,-5.5099,-5.5099,-5.5099,-5.5099,-5.5099,-5.5099,-5.5099,-5.5099,-5.5099,-5.5099,-5.5099,-5.5099,-5.5099,-5.5099,-5.5099,-5.5099,-5.5099,-5.5099,-5.5099,-5.5099,-5.5099,-5.5099,-5.5099,-5.5099,-5.5165,-5.5232,-5.5299,-5.5432,-5.567,-5.5736,-5.5736,-5.585,-5.5344,-5.488,-5.4772,-5.414,-5.3619,-5.3592,-5.3592,-5.3592,-5.3592,-5.3592,-5.3592,-5.3592,-5.3592,-5.3592,-5.3592,-5.3592,-5.3592,-5.3592,-5.3592,-5.3592,-5.3592,-5.3537,-5.3429,-5.332,-5.3169,-5.2902,-6.8889,-6.8889,-6.8713,-6.8358,-6.803,-6.7789,-6.7426,-6.706,-6.6999,-6.6999,-6.6999,-6.6999,-6.6999,-6.6999,-6.6999,-6.6999,-6.6937,-6.6319,-6.5882,-6.5601,-6.5187,-6.4996,-6.4938,-6.4706,-6.43,-6.3608,-6.2965,-6.2636,-6.2577,-6.2605,-6.2623,-6.282,-6.2582,-6.218,-6.1789,-6.1478,-6.1098,-6.0824,-6.0755,-6.0185,-5.9263,-5.8992,-5.8422,-5.7391,-5.7174,-5.7109,-5.6877,-5.6355,-5.5895,-5.5631,-5.5299,-5.5099,-5.5099,-5.5099,-5.5099,-5.5099,-5.5099,-5.5099,-5.5099,-5.5099,-5.5099,-5.5099,-5.5099,-5.5099,-5.5099,-5.5099,-5.5099,-5.5099,-5.5099,-5.5099,-5.5099,-5.5099,-5.5099,-5.5099,-5.5099,-5.5099,-5.5099,-5.5099,-5.5099,-5.5099,-5.5099,-5.5099,-5.5099,-5.5099,-5.5165,-5.5339,-5.5405,-5.5538,-5.563,-5.513,-5.4895,-5.4611,-5.414,-5.3775,-5.3619,-5.3592,-5.3592,-5.3592,-5.3592,-5.3592,-5.3592,-5.3592,-5.3592,-5.3592,-5.3592,-5.3592,-5.3592,-5.3592,-5.3592,-5.3592,-5.3592,-5.3537,-5.3429,-5.3347,-5.3136,-6.8889,-6.8889,-6.8889,-6.8535,-6.7999,-6.7909,-6.7487,-6.697,-6.6879,-6.6879,-6.6879,-6.6969,-6.6999,-6.6999,-6.6999,-6.6999,-6.6876,-6.6382,-6.6007,-6.5819,-6.5378,-6.506,-6.4909,-6.4328,-6.3659,-6.3093,-6.2365,-6.2068,-6.2099,-6.2127,-6.2324,-6.2792,-6.2582,-6.2248,-6.1884,-6.1506,-6.1302,-6.1029,-6.0892,-6.0321,-5.9206,-5.9058,-5.8488,-5.732,-5.7238,-5.7174,-5.7109,-5.6812,-5.6263,-5.567,-5.5339,-5.5232,-5.5165,-5.5099,-5.5165,-5.5099,-5.5099,-5.5099,-5.5099,-5.5099,-5.5099,-5.5099,-5.5099,-5.5099,-5.5099,-5.5099,-5.5099,-5.5099,-5.5099,-5.5099,-5.5099,-5.5099,-5.5099,-5.5099,-5.5099,-5.5099,-5.5099,-5.5099,-5.5099,-5.5099,-5.5099,-5.5099,-5.5099,-5.5099,-5.5099,-5.5165,-5.5165,-5.5299,-5.5327,-5.4993,-5.4661,-5.4298,-5.399,-5.3802,-5.3592,-5.3592,-5.3592,-5.3592,-5.3592,-5.3592,-5.3592,-5.3592,-5.3592,-5.3592,-5.3592,-5.3592,-5.3592,-5.3592,-5.3592,-5.3592,-5.3592,-5.3592,-5.3537,-5.3456,-5.3402,-6.8889,-6.8889,-6.8889,-6.8535,-6.7939,-6.7484,-6.6883,-6.6341,-6.6281,-6.6311,-6.637,-6.6789,-6.6999,-6.6999,-6.6999,-6.6999,-6.6876,-6.6568,-6.6195,-6.5945,-6.5538,-6.5222,-6.4798,-6.3864,-6.3198,-6.2892,-6.1908,-6.1557,-6.1959,-6.1959,-6.2296,-6.2914,-6.2781,-6.2582,-6.2248,-6.2113,-6.1912,-6.1614,-6.1546,-6.0969,-5.9885,-5.9495,-5.8762,-5.7696,-5.7367,-5.7238,-5.7174,-5.6877,-5.6459,-5.6066,-5.5868,-5.5736,-5.5472,-5.5472,-5.5365,-5.5165,-5.5099,-5.5099,-5.5099,-5.5099,-5.5099,-5.5099,-5.5099,-5.5099,-5.5099,-5.5099,-5.5099,-5.5099,-5.5099,-5.5099,-5.5099,-5.5099,-5.5099,-5.5099,-5.5099,-5.5099,-5.5099,-5.5099,-5.5099,-5.5099,-5.5099,-5.5099,-5.5099,-5.5099,-5.5099,-5.5099,-5.5099,-5.5072,-5.5129,-5.4784,-5.4347,-5.4252,-5.3966,-5.3761,-5.3592,-5.3592,-5.3592,-5.3592,-5.3592,-5.3592,-5.3592,-5.3592,-5.3592,-5.3592,-5.3592,-5.3592,-5.3592,-5.3592,-5.3592,-5.3592,-5.3592,-5.3592,-5.3592,-5.3537,-5.3537,-6.9006,-6.8889,-6.8889,-6.8535,-6.7939,-6.7241,-6.6612,-6.6072,-6.6011,-6.6011,-6.6161,-6.67,-6.6999,-6.6999,-6.6999,-6.6999,-6.6937,-6.6629,-6.6319,-6.5945,-6.5504,-6.5187,-6.474,-6.3719,-6.2972,-6.2457,-6.1336,-6.116,-6.1489,-6.1621,-6.2099,-6.2773,-6.2914,-6.2743,-6.2409,-6.2409,-6.2248,-6.1884,-6.1761,-6.1209,-6.0104,-5.9797,-5.8941,-5.7934,-5.7496,-5.7394,-5.7174,-5.6979,-5.6655,-5.6263,-5.6066,-5.6,-5.5802,-5.567,-5.5472,-5.5299,-5.5165,-5.5099,-5.5099,-5.5099,-5.5099,-5.5099,-5.5099,-5.5099,-5.5099,-5.5099,-5.5099,-5.5099,-5.5099,-5.5099,-5.5099,-5.5099,-5.5099,-5.5099,-5.5099,-5.5099,-5.5099,-5.5099,-5.5099,-5.5099,-5.5099,-5.5099,-5.5099,-5.5099,-5.5099,-5.5099,-5.5099,-5.5099,-5.5034,-5.4522,-5.4193,-5.4233,-5.3922,-5.3612,-5.3585,-5.3619,-5.3592,-5.3592,-5.3592,-5.3592,-5.3592,-5.3592,-5.3592,-5.3592,-5.3592,-5.3592,-5.3592,-5.3592,-5.3592,-5.3592,-5.3592,-5.3592,-5.3592,-5.3592,-5.3592,-6.924,-6.8948,-6.8948,-6.8505,-6.7787,-6.715,-6.637,-6.5832,-6.5802,-6.5862,-6.6011,-6.667,-6.6969,-6.6999,-6.6999,-6.6999,-6.6999,-6.6753,-6.6382,-6.5945,-6.5441,-6.5124,-6.4822,-6.369,-6.2765,-6.2062,-6.0794,-6.062,-6.0906,-6.1059,-6.1734,-6.2549,-6.283,-6.2715,-6.2582,-6.2476,-6.2248,-6.2086,-6.2018,-6.1448,-6.0439,-6.0097,-5.9321,-5.8008,-5.756,-5.7431,-5.7238,-5.7109,-5.6915,-5.6263,-5.6197,-5.6236,-5.6197,-5.5868,-5.567,-5.5538,-5.5365,-5.5165,-5.5099,-5.5099,-5.5099,-5.5099,-5.5099,-5.5099,-5.5099,-5.5099,-5.5099,-5.5099,-5.5099,-5.5099,-5.5099,-5.5099,-5.5099,-5.5099,-5.5099,-5.5099,-5.5099,-5.5099,-5.5099,-5.5099,-5.5099,-5.5099,-5.5099,-5.5099,-5.5099,-5.5099,-5.5099,-5.5099,-5.4982,-5.4655,-5.4452,-5.4533,-5.4101,-5.3497,-5.3545,-5.3673,-5.3619,-5.3592,-5.3592,-5.3592,-5.3592,-5.3592,-5.3592,-5.3592,-5.3592,-5.3592,-5.3592,-5.3592,-5.3592,-5.3592,-5.3592,-5.3592,-5.3592,-5.3592,-5.3592,-6.9387,-6.9271,-6.9006,-6.8229,-6.7179,-6.6482,-6.5525,-6.4515,-6.5024,-6.5263,-6.5503,-6.646,-6.6939,-6.6999,-6.6999,-6.6999,-6.6999,-6.6876,-6.6568,-6.6007,-6.5601,-6.5222,-6.4769,-6.369,-6.2736,-6.1953,-6.0827,-6.0279,-6.0399,-6.0919,-6.1453,-6.2155,-6.2651,-6.2848,-6.2781,-6.2715,-6.2781,-6.2648,-6.262,-6.1939,-6.0988,-6.0487,-5.9672,-5.8209,-5.7624,-5.7303,-5.7238,-5.7174,-5.7109,-5.6979,-5.6915,-5.6785,-5.659,-5.6459,-5.6197,-5.5736,-5.5538,-5.5365,-5.5165,-5.5099,-5.5099,-5.5099,-5.5099,-5.5099,-5.5099,-5.5099,-5.5099,-5.5099,-5.5099,-5.5099,-5.5099,-5.5099,-5.5099,-5.5099,-5.5099,-5.5099,-5.5099,-5.5099,-5.5099,-5.5099,-5.5099,-5.5099,-5.5099,-5.5099,-5.5099,-5.5099,-5.5099,-5.5099,-5.4918,-5.4656,-5.4628,-5.466,-5.4323,-5.3778,-5.3754,-5.3775,-5.3619,-5.3592,-5.3592,-5.3592,-5.3592,-5.3592,-5.3592,-5.3592,-5.3592,-5.3592,-5.3592,-5.3592,-5.3592,-5.3592,-5.3592,-5.3592,-5.3592,-5.3592,-5.3592,-6.953,-6.9325,-6.8698,-6.7892,-6.6906,-6.5936,-6.4951,-6.4155,-6.4366,-6.4725,-6.5203,-6.6101,-6.667,-6.6969,-6.6999,-6.6999,-6.6937,-6.6814,-6.6506,-6.6007,-6.563,-6.5285,-6.4769,-6.3806,-6.2803,-6.2193,-6.0827,-6.0285,-6.0448,-6.0842,-6.1397,-6.2015,-6.2567,-6.282,-6.2914,-6.2914,-6.2848,-6.2763,-6.2605,-6.2043,-6.1164,-6.0558,-5.9735,-5.8391,-5.7688,-5.7367,-5.7174,-5.7174,-5.7174,-5.7174,-5.7174,-5.7109,-5.6942,-5.6812,-5.6486,-5.6224,-5.5736,-5.5538,-5.5365,-5.5165,-5.5099,-5.5099,-5.5099,-5.5099,-5.5099,-5.5099,-5.5099,-5.5099,-5.5099,-5.5099,-5.5099,-5.5099,-5.5099,-5.5099,-5.5099,-5.5099,-5.5099,-5.5099,-5.5099,-5.5099,-5.5099,-5.5099,-5.5099,-5.5099,-5.5099,-5.5099,-5.5099,-5.5072,-5.4942,-5.4708,-5.4643,-5.4599,-5.4373,-5.4128,-5.4036,-5.3931,-5.3646,-5.3592,-5.3592,-5.3592,-5.3592,-5.3592,-5.3592,-5.3592,-5.3592,-5.3592,-5.3592,-5.3592,-5.3592,-5.3592,-5.3592,-5.3592,-5.3592,-5.3592,-5.3592,-6.9641,-6.9228,-6.8266,-6.7464,-6.66,-6.5538,-6.4616,-6.3974,-6.4096,-6.4575,-6.5114,-6.5802,-6.661,-6.6909,-6.6999,-6.6999,-6.6937,-6.6753,-6.6506,-6.6132,-6.5819,-6.5475,-6.4867,-6.3868,-6.2956,-6.2472,-6.095,-6.038,-6.0495,-6.0914,-6.1312,-6.1902,-6.2605,-6.2886,-6.2914,-6.2914,-6.2914,-6.2858,-6.238,-6.179,-6.1116,-6.0462,-5.95,-5.8527,-5.788,-5.756,-5.7367,-5.7238,-5.7174,-5.7174,-5.7174,-5.7174,-5.7109,-5.7006,-5.6747,-5.6682,-5.6132,-5.5802,-5.5564,-5.5365,-5.5165,-5.5099,-5.5099,-5.5099,-5.5099,-5.5099,-5.5099,-5.5099,-5.5099,-5.5099,-5.5099,-5.5099,-5.5099,-5.5099,-5.5099,-5.5099,-5.5099,-5.5099,-5.5099,-5.5099,-5.5099,-5.5099,-5.5099,-5.5099,-5.5099,-5.5099,-5.5099,-5.5046,-5.4916,-5.4877,-5.484,-5.4734,-5.4622,-5.451,-5.4459,-5.4553,-5.4243,-5.3999,-5.3917,-5.3782,-5.3754,-5.3646,-5.3646,-5.3592,-5.3592,-5.3592,-5.3592,-5.3592,-5.3592,-5.3592,-5.3592,-5.3592,-5.3592,-5.3592,-5.3592,-6.9475,-6.8831,-6.8197,-6.7028,-6.5731,-6.517,-6.4401,-6.3815,-6.4365,-6.4904,-6.5173,-6.6251,-6.6729,-6.6969,-6.6999,-6.6999,-6.6999,-6.6876,-6.6691,-6.6382,-6.607,-6.5694,-6.5115,-6.3844,-6.3138,-6.2547,-6.1192,-6.0185,-6.0217,-6.066,-6.1208,-6.1481,-6.238,-6.2914,-6.2914,-6.2914,-6.2914,-6.283,-6.2268,-6.1621,-6.1088,-6.0321,-5.9606,-5.8633,-5.8071,-5.7752,-5.756,-5.7367,-5.7174,-5.7174,-5.7174,-5.7174,-5.7174,-5.7109,-5.6979,-5.6747,-5.6551,-5.6224,-5.5736,-5.5538,-5.5365,-5.5165,-5.5099,-5.5099,-5.5099,-5.5099,-5.5099,-5.5099,-5.5099,-5.5099,-5.5099,-5.5099,-5.5099,-5.5099,-5.5099,-5.5099,-5.5099,-5.5099,-5.5099,-5.5099,-5.5099,-5.5099,-5.5099,-5.5099,-5.5099,-5.5099,-5.5099,-5.5099,-5.502,-5.5061,-5.5075,-5.5037,-5.4971,-5.4906,-5.479,-5.5024,-5.503,-5.4786,-5.4596,-5.4243,-5.4107,-5.3782,-5.3673,-5.3498,-5.3531,-5.3592,-5.3592,-5.3592,-5.3592,-5.3592,-5.3592,-5.3592,-5.3592,-5.3592,-5.3592,-6.9583,-6.8757,-6.7905,-6.6796,-6.5421,-6.4714,-6.4126,-6.3571,-6.3884,-6.4425,-6.5054,-6.5712,-6.64,-6.6819,-6.6999,-6.6999,-6.6999,-6.6999,-6.6814,-6.6506,-6.6132,-6.5819,-6.5329,-6.3877,-6.3287,-6.2608,-6.1372,-6.0406,-6.0275,-6.0977,-6.1324,-6.1534,-6.2361,-6.2914,-6.2914,-6.2914,-6.2914,-6.2745,-6.2043,-6.1397,-6.1003,-6.0188,-5.9326,-5.8815,-5.8388,-5.8071,-5.7688,-5.756,-5.7367,-5.7238,-5.7174,-5.7174,-5.7174,-5.7174,-5.7109,-5.6979,-5.6812,-5.6459,-5.5934,-5.5736,-5.5432,-5.5165,-5.5099,-5.5099,-5.5099,-5.5099,-5.5099,-5.5099,-5.5099,-5.5099,-5.5099,-5.5099,-5.5099,-5.5099,-5.5099,-5.5099,-5.5099,-5.5099,-5.5099,-5.5099,-5.5099,-5.5099,-5.5099,-5.5099,-5.5099,-5.5099,-5.5099,-5.5099,-5.5099,-5.5165,-5.5232,-5.5181,-5.5116,-5.5294,-5.5237,-5.551,-5.5708,-5.5518,-5.5084,-5.4731,-5.429,-5.3938,-5.3572,-5.3315,-5.3349,-5.347,-5.3592,-5.3592,-5.3592,-5.3592,-5.3592,-5.3592,-5.3592,-5.3592,-5.3592,-6.9634,-6.8539,-6.7697,-6.6534,-6.5289,-6.4375,-6.388,-6.3626,-6.3432,-6.4006,-6.4964,-6.5263,-6.5981,-6.6729,-6.6999,-6.6999,-6.6999,-6.6999,-6.6876,-6.6629,-6.6195,-6.5819,-6.5216,-6.4202,-6.3254,-6.2844,-6.1791,-6.0944,-6.0958,-6.1411,-6.1642,-6.2025,-6.2671,-6.298,-6.3046,-6.2914,-6.2886,-6.2408,-6.1734,-6.1088,-6.0497,-5.9732,-5.908,-5.8767,-5.8704,-5.8388,-5.8007,-5.7752,-5.756,-5.7367,-5.7238,-5.7174,-5.7174,-5.7174,-5.7174,-5.7109,-5.6942,-5.659,-5.6263,-5.5934,-5.5604,-5.5299,-5.5165,-5.5099,-5.5099,-5.5099,-5.5099,-5.5099,-5.5099,-5.5099,-5.5099,-5.5099,-5.5099,-5.5099,-5.5099,-5.5099,-5.5099,-5.5099,-5.5099,-5.5099,-5.5099,-5.5099,-5.5099,-5.5099,-5.5099,-5.5099,-5.5099,-5.5099,-5.5099,-5.5099,-5.5139,-5.5194,-5.534,-5.5587,-5.5746,-5.5905,-5.616,-5.617,-5.5545,-5.4948,-5.4418,-5.3889,-5.3524,-5.3132,-5.3105,-5.3166,-5.3349,-5.3531,-5.347,-5.347,-5.3531,-5.3592,-5.3592,-5.3592,-5.3592,-6.9352,-6.7884,-6.7486,-6.6375,-6.4992,-6.4305,-6.3993,-6.394,-6.3878,-6.4306,-6.5084,-6.5592,-6.6221,-6.6849,-6.6999,-6.6999,-6.6999,-6.6999,-6.6937,-6.6814,-6.6319,-6.5945,-6.5731,-6.4551,-6.3603,-6.3167,-6.2322,-6.1791,-6.166,-6.189,-6.2301,-6.2751,-6.3062,-6.3376,-6.331,-6.3,-6.2633,-6.2099,-6.1425,-6.0554,-5.9683,-5.9317,-5.9171,-5.908,-5.8892,-5.8641,-5.8451,-5.8071,-5.7752,-5.7624,-5.7367,-5.7238,-5.7174,-5.7174,-5.7174,-5.7174,-5.7109,-5.6979,-5.659,-5.6263,-5.5868,-5.5564,-5.5299,-5.5165,-5.5099,-5.5099,-5.5099,-5.5099,-5.5099,-5.5099,-5.5099,-5.5099,-5.5099,-5.5099,-5.5099,-5.5099,-5.5099,-5.5099,-5.5099,-5.5099,-5.5099,-5.5099,-5.5099,-5.5099,-5.5099,-5.5099,-5.5099,-5.5099,-5.5099,-5.5099,-5.5099,-5.5153,-5.5499,-5.58,-5.6019,-5.6246,-5.6476,-5.6685,-5.6007,-5.5247,-5.4654,-5.4036,-5.3374,-5.3037,-5.2949,-5.2861,-5.2983,-5.3105,-5.3288,-5.341,-5.341,-5.3531,-5.3592,-5.3592,-5.3592,-6.9489,-6.7759,-6.7648,-6.6536,-6.4949,-6.4412,-6.4132,-6.3997,-6.381,-6.4183,-6.4934,-6.5293,-6.6011,-6.6819,-6.6999,-6.6999,-6.6999,-6.6999,-6.6999,-6.6876,-6.6382,-6.6007,-6.5672,-6.4672,-6.3806,-6.3516,-6.3022,-6.2641,-6.248,-6.2376,-6.2647,-6.3249,-6.3565,-6.3769,-6.3562,-6.3008,-6.2595,-6.205,-6.1188,-6.0104,-5.9458,-5.9205,-5.9205,-5.9205,-5.9017,-5.8892,-5.8641,-5.8451,-5.8071,-5.7816,-5.756,-5.7367,-5.7238,-5.7174,-5.7174,-5.7174,-5.7174,-5.6979,-5.6747,-5.6524,-5.6132,-5.5736,-5.5432,-5.5365,-5.5165,-5.5099,-5.5099,-5.5099,-5.5099,-5.5099,-5.5099,-5.5099,-5.5099,-5.5099,-5.5099,-5.5099,-5.5099,-5.5099,-5.5099,-5.5099,-5.5099,-5.5099,-5.5099,-5.5099,-5.5099,-5.5099,-5.5099,-5.5099,-5.5099,-5.5099,-5.5099,-5.5072,-5.5512,-5.5986,-5.6287,-5.6531,-5.6801,-5.6875,-5.6414,-5.5672,-5.4934,-5.4262,-5.3316,-5.2607,-5.2245,-5.228,-5.2492,-5.2738,-5.2922,-5.3105,-5.3288,-5.3349,-5.341,-5.3592,-5.3592,-6.9406,-6.7707,-6.7752,-6.6703,-6.5029,-6.4579,-6.4244,-6.3993,-6.3652,-6.406,-6.4934,-6.5413,-6.6161,-6.6789,-6.6999,-6.6999,-6.6999,-6.6999,-6.6999,-6.6753,-6.6382,-6.6007,-6.5702,-6.4852,-6.4212,-6.3975,-6.3574,-6.3225,-6.3018,-6.2918,-6.3024,-6.3602,-6.3456,-6.3701,-6.3572,-6.2915,-6.2267,-6.1926,-6.0829,-5.9996,-5.9601,-5.9392,-5.9329,-5.9329,-5.9205,-5.908,-5.8829,-5.8704,-5.8325,-5.8135,-5.7752,-5.756,-5.7367,-5.7238,-5.7174,-5.7174,-5.7174,-5.7109,-5.6877,-5.6655,-5.6328,-5.5934,-5.5472,-5.5299,-5.5165,-5.5099,-5.5099,-5.5099,-5.5099,-5.5099,-5.5099,-5.5099,-5.5099,-5.5099,-5.5099,-5.5099,-5.5099,-5.5099,-5.5099,-5.5099,-5.5099,-5.5099,-5.5099,-5.5099,-5.5099,-5.5099,-5.5099,-5.5099,-5.5099,-5.5099,-5.5099,-5.5099,-5.5472,-5.5934,-5.6132,-5.6459,-5.685,-5.6909,-5.6449,-5.5844,-5.4997,-5.3922,-5.2864,-5.2253,-5.181,-5.1846,-5.2094,-5.228,-5.2553,-5.2799,-5.2983,-5.3105,-5.3227,-5.3349,-5.347,-6.876,-6.7237,-6.7676,-6.6814,-6.5187,-6.466,-6.4244,-6.3993,-6.3622,-6.4118,-6.5114,-6.6191,-6.6759,-6.6969,-6.6999,-6.6999,-6.6999,-6.6999,-6.6999,-6.6753,-6.6382,-6.607,-6.5698,-6.5202,-6.459,-6.4183,-6.3864,-6.3545,-6.3167,-6.2902,-6.3275,-6.3796,-6.3221,-6.3216,-6.3089,-6.2578,-6.1759,-6.1326,-6.0579,-6.0323,-6.009,-5.9967,-5.981,-5.9601,-5.9386,-5.9205,-5.9142,-5.8892,-5.8641,-5.8515,-5.8007,-5.7688,-5.756,-5.7303,-5.7238,-5.7174,-5.7174,-5.7109,-5.7044,-5.6877,-5.6524,-5.6066,-5.5604,-5.5232,-5.5099,-5.5099,-5.5099,-5.5099,-5.5099,-5.5099,-5.5099,-5.5099,-5.5099,-5.5099,-5.5099,-5.5099,-5.5099,-5.5099,-5.5099,-5.5099,-5.5099,-5.5099,-5.5099,-5.5099,-5.5099,-5.5099,-5.5099,-5.5099,-5.5099,-5.5099,-5.5099,-5.5165,-5.5432,-5.567,-5.5736,-5.6066,-5.6524,-5.6531,-5.6154,-5.5525,-5.4871,-5.3707,-5.2853,-5.2102,-5.1721,-5.1721,-5.1659,-5.197,-5.2245,-5.2492,-5.2677,-5.2773,-5.2861,-5.3044,-5.3105,-6.8806,-6.7414,-6.7261,-6.644,-6.5297,-6.4857,-6.4412,-6.4049,-6.388,-6.4262,-6.5114,-6.637,-6.6999,-6.6999,-6.6999,-6.6999,-6.6999,-6.6999,-6.6999,-6.6753,-6.6382,-6.607,-6.5756,-6.5412,-6.4851,-6.4532,-6.4241,-6.3719,-6.3138,-6.2761,-6.2587,-6.2699,-6.272,-6.3039,-6.2885,-6.2289,-6.1471,-6.0913,-6.0708,-6.0765,-6.076,-6.0853,-6.0693,-6.0297,-5.9921,-5.9542,-5.9227,-5.9108,-5.8892,-5.8641,-5.8262,-5.8007,-5.7688,-5.7431,-5.7238,-5.7174,-5.7174,-5.7174,-5.7201,-5.7071,-5.672,-5.6105,-5.567,-5.5299,-5.5165,-5.5099,-5.5099,-5.5099,-5.5099,-5.5099,-5.5099,-5.5099,-5.5099,-5.5099,-5.5099,-5.5099,-5.5099,-5.5099,-5.5099,-5.5099,-5.5099,-5.5099,-5.5099,-5.5099,-5.5099,-5.5099,-5.5099,-5.5099,-5.5099,-5.5099,-5.5099,-5.5099,-5.5365,-5.5498,-5.5538,-5.5934,-5.6328,-5.6088,-5.582,-5.5248,-5.4677,-5.4219,-5.3335,-5.2513,-5.18,-5.1816,-5.1816,-5.1773,-5.1934,-5.2183,-5.2368,-5.2404,-5.2553,-5.2677,-5.2738,-6.8355,-6.7291,-6.6775,-6.6145,-6.5437,-6.5053,-6.4554,-6.4049,-6.3993,-6.4377,-6.5114,-6.637,-6.6999,-6.6999,-6.6999,-6.6999,-6.6999,-6.6999,-6.6999,-6.6753,-6.6382,-6.607,-6.5756,-6.5441,-6.4967,-6.4851,-6.4357,-6.3719,-6.308,-6.2412,-6.2093,-6.2093,-6.2267,-6.2499,-6.2612,-6.2109,-6.1372,-6.1077,-6.1332,-6.1705,-6.1729,-6.1611,-6.1592,-6.1018,-6.047,-5.9935,-5.957,-5.9339,-5.908,-5.8829,-5.8515,-5.8198,-5.788,-5.756,-5.7303,-5.7238,-5.7174,-5.7174,-5.7201,-5.7071,-5.6785,-5.6197,-5.5802,-5.5405,-5.5232,-5.5099,-5.5099,-5.5099,-5.5099,-5.5099,-5.5099,-5.5099,-5.5099,-5.5099,-5.5099,-5.5099,-5.5099,-5.5099,-5.5099,-5.5099,-5.5099,-5.5099,-5.5099,-5.5099,-5.5099,-5.5099,-5.5099,-5.5099,-5.5099,-5.5099,-5.5099,-5.5165,-5.5232,-5.5365,-5.5432,-5.5736,-5.5934,-5.5802,-5.5509,-5.5073,-5.4584,-5.4153,-5.3576,-5.2649,-5.213,-5.2014,-5.2093,-5.2287,-5.2177,-5.196,-5.2023,-5.2032,-5.2094,-5.2245,-5.243,-6.7281,-6.6596,-6.6362,-6.6009,-6.5592,-6.5163,-6.4554,-6.408,-6.4088,-6.444,-6.5144,-6.64,-6.6999,-6.6999,-6.6999,-6.6999,-6.6999,-6.6999,-6.6999,-6.6814,-6.6319,-6.607,-6.5756,-6.5378,-6.4996,-6.4822,-6.4241,-6.3574,-6.308,-6.2267,-6.1774,-6.1483,-6.1629,-6.1832,-6.2093,-6.2122,-6.2093,-6.2119,-6.267,-6.2869,-6.2861,-6.2503,-6.2371,-6.1804,-6.0935,-6.0343,-5.9907,-5.943,-5.9171,-5.9017,-5.8767,-5.8451,-5.8198,-5.7816,-5.7496,-5.7303,-5.7238,-5.7174,-5.7174,-5.6942,-5.659,-5.6197,-5.5802,-5.5538,-5.5206,-5.5099,-5.5099,-5.5099,-5.5099,-5.5099,-5.5099,-5.5099,-5.5099,-5.5099,-5.5099,-5.5099,-5.5099,-5.5099,-5.5099,-5.5099,-5.5099,-5.5099,-5.5099,-5.5099,-5.5099,-5.5099,-5.5099,-5.5099,-5.5099,-5.5099,-5.5099,-5.5099,-5.5165,-5.5232,-5.5299,-5.5472,-5.5578,-5.5446,-5.5287,-5.4905,-5.4524,-5.4078,-5.3424,-5.2668,-5.2589,-5.2668,-5.2798,-5.2929,-5.2575,-5.2193,-5.1826,-5.1721,-5.1783,-5.1872,-5.2059,-6.7218,-6.6565,-6.6299,-6.6,-6.5646,-6.5351,-6.4691,-6.4145,-6.45,-6.4812,-6.5233,-6.64,-6.6969,-6.6999,-6.6999,-6.6999,-6.6999,-6.6999,-6.6999,-6.6937,-6.6319,-6.607,-6.5819,-6.5378,-6.4996,-6.4677,-6.4038,-6.3399,-6.308,-6.2093,-6.1513,-6.1251,-6.1629,-6.189,-6.2064,-6.2151,-6.2238,-6.279,-6.3341,-6.3656,-6.3714,-6.3625,-6.3271,-6.2679,-6.1572,-6.0773,-6.0188,-5.9626,-5.9317,-5.9171,-5.8892,-5.8641,-5.8388,-5.8071,-5.7688,-5.7496,-5.7367,-5.7174,-5.7174,-5.7044,-5.672,-5.6301,-5.5973,-5.567,-5.5232,-5.5099,-5.5099,-5.5099,-5.5099,-5.5099,-5.5099,-5.5099,-5.5099,-5.5099,-5.5099,-5.5099,-5.5099,-5.5099,-5.5099,-5.5099,-5.5099,-5.5099,-5.5099,-5.5099,-5.5099,-5.5099,-5.5099,-5.5099,-5.5099,-5.5099,-5.5099,-5.5099,-5.5099,-5.5099,-5.5165,-5.5272,-5.5339,-5.5286,-5.5089,-5.4839,-5.4459,-5.4171,-5.3752,-5.3217,-5.3269,-5.3347,-5.3426,-5.3373,-5.2929,-5.2511,-5.2119,-5.1727,-5.1659,-5.1721,-5.1721,-6.6997,-6.6617,-6.6406,-6.6054,-6.57,-6.5406,-6.4802,-6.4175,-6.4479,-6.4784,-6.5233,-6.6191,-6.6789,-6.6909,-6.6999,-6.6999,-6.6999,-6.6999,-6.6999,-6.6876,-6.6319,-6.607,-6.5819,-6.5378,-6.506,-6.4619,-6.3835,-6.308,-6.3022,-6.1803,-6.1425,-6.1658,-6.2122,-6.2587,-6.2761,-6.2964,-6.3022,-6.3545,-6.398,-6.4231,-6.422,-6.4073,-6.3837,-6.3057,-6.2223,-6.1337,-6.0561,-5.9935,-5.943,-5.9255,-5.9017,-5.8767,-5.8578,-5.8262,-5.7816,-5.7688,-5.7431,-5.7238,-5.7174,-5.7174,-5.685,-5.6394,-5.6263,-5.5868,-5.5365,-5.5165,-5.5099,-5.5099,-5.5099,-5.5099,-5.5099,-5.5099,-5.5099,-5.5099,-5.5099,-5.5099,-5.5099,-5.5099,-5.5099,-5.5099,-5.5099,-5.5099,-5.5099,-5.5099,-5.5099,-5.5099,-5.5099,-5.5099,-5.5099,-5.5099,-5.5099,-5.5099,-5.5099,-5.5099,-5.5099,-5.5165,-5.5165,-5.5099,-5.4994,-5.4889,-5.4837,-5.4576,-5.4184,-5.3896,-5.4027,-5.4105,-5.4001,-5.3818,-5.3478,-5.3034,-5.2537,-5.2119,-5.1701,-5.1596,-5.1596,-6.6617,-6.6586,-6.6586,-6.6268,-6.57,-6.5351,-6.4721,-6.3997,-6.4058,-6.4395,-6.5084,-6.5772,-6.643,-6.6909,-6.6999,-6.6999,-6.6999,-6.6999,-6.6999,-6.6814,-6.6319,-6.6132,-6.5756,-6.5378,-6.4973,-6.4502,-6.3806,-6.2993,-6.2906,-6.1832,-6.1513,-6.2122,-6.2645,-6.3225,-6.3661,-6.3922,-6.398,-6.4212,-6.4473,-6.4573,-6.4467,-6.4203,-6.3908,-6.3204,-6.2454,-6.1695,-6.0947,-6.0357,-5.9767,-5.943,-5.9142,-5.8955,-5.8704,-5.8388,-5.8071,-5.7688,-5.7394,-5.7265,-5.7174,-5.7174,-5.7044,-5.6655,-5.6394,-5.6,-5.5604,-5.5299,-5.5099,-5.5099,-5.5099,-5.5099,-5.5099,-5.5099,-5.5099,-5.5099,-5.5099,-5.5099,-5.5099,-5.5099,-5.5099,-5.5099,-5.5099,-5.5099,-5.5099,-5.5099,-5.5099,-5.5099,-5.5099,-5.5099,-5.5099,-5.5099,-5.5099,-5.5099,-5.5099,-5.5099,-5.5099,-5.5099,-5.5099,-5.5099,-5.5099,-5.502,-5.4994,-5.4968,-5.4654,-5.4524,-5.4785,-5.4811,-5.4576,-5.4393,-5.4184,-5.3687,-5.3112,-5.2537,-5.2145,-5.1701,-5.1596,-6.6586,-6.6586,-6.6586,-6.6268,-6.5592,-6.4746,-6.4188,-6.4027,-6.4028,-6.4395,-6.5084,-6.5712,-6.6311,-6.6939,-6.6999,-6.6999,-6.6999,-6.6999,-6.6999,-6.6753,-6.6319,-6.607,-6.5756,-6.5319,-6.4769,-6.4183,-6.3516,-6.279,-6.2325,-6.1513,-6.1861,-6.2732,-6.3022,-6.3719,-6.4328,-6.4706,-6.4677,-6.4677,-6.488,-6.4682,-6.4547,-6.4289,-6.39,-6.3337,-6.2623,-6.19,-6.118,-6.0469,-5.9851,-5.9345,-5.9233,-5.908,-5.908,-5.8704,-5.8325,-5.7752,-5.7431,-5.7174,-5.7174,-5.7174,-5.7109,-5.7006,-5.6682,-5.6224,-5.5763,-5.5365,-5.5165,-5.5099,-5.5099,-5.5099,-5.5099,-5.5099,-5.5099,-5.5099,-5.5099,-5.5099,-5.5099,-5.5099,-5.5099,-5.5099,-5.5099,-5.5099,-5.5099,-5.5099,-5.5099,-5.5099,-5.5099,-5.5099,-5.5099,-5.5099,-5.5099,-5.5099,-5.5099,-5.5099,-5.5099,-5.5099,-5.5099,-5.5099,-5.5099,-5.5099,-5.5072,-5.502,-5.4994,-5.4994,-5.502,-5.5046,-5.502,-5.4811,-5.4602,-5.4314,-5.3792,-5.3164,-5.2563,-5.2119,-5.1701,-6.6586,-6.6586,-6.6586,-6.6268,-6.5592,-6.4604,-6.4075,-6.3997,-6.3757,-6.4006,-6.4665,-6.5293,-6.5981,-6.655,-6.6849,-6.6999,-6.6999,-6.6999,-6.6999,-6.6814,-6.6319,-6.607,-6.5727,-6.5086,-6.445,-6.3835,-6.3196,-6.247,-6.2035,-6.1919,-6.2151,-6.2964,-6.3254,-6.4067,-6.4677,-6.4938,-6.4938,-6.4874,-6.4839,-6.4612,-6.4418,-6.416,-6.3704,-6.3206,-6.2623,-6.19,-6.1152,-6.0441,-5.9851,-5.9317,-5.9233,-5.9205,-5.908,-5.8767,-5.8325,-5.7688,-5.7367,-5.7238,-5.7174,-5.7174,-5.7174,-5.7109,-5.6877,-5.642,-5.5961,-5.5538,-5.5299,-5.5165,-5.5099,-5.5099,-5.5099,-5.5099,-5.5099,-5.5099,-5.5099,-5.5099,-5.5099,-5.5099,-5.5099,-5.5099,-5.5099,-5.5099,-5.5099,-5.5099,-5.5099,-5.5099,-5.5099,-5.5099,-5.5099,-5.5099,-5.5099,-5.5099,-5.5099,-5.5099,-5.5099,-5.5099,-5.5099,-5.5099,-5.5099,-5.5099,-5.5099,-5.5072,-5.5046,-5.5046,-5.5072,-5.5099,-5.5099,-5.5099,-5.4916,-5.4628,-5.4341,-5.3792,-5.3164,-5.2589,-5.2145,-6.6586,-6.6586,-6.6565,-6.6214,-6.5646,-6.4771,-6.4244,-6.3936,-6.3454,-6.3496,-6.4096,-6.4755,-6.5473,-6.6191,-6.67,-6.6969,-6.6999,-6.6999,-6.6999,-6.6999,-6.6444,-6.6103,-6.5467,-6.4706,-6.4076,-6.3486,-6.2906,-6.2151,-6.2064,-6.2006,-6.2296,-6.308,-6.3661,-6.4328,-6.488,-6.4996,-6.4996,-6.4804,-6.4612,-6.4354,-6.403,-6.3704,-6.3188,-6.2783,-6.2268,-6.1706,-6.1031,-6.0413,-5.9851,-5.943,-5.9205,-5.9205,-5.9017,-5.8641,-5.8198,-5.7816,-5.7496,-5.7303,-5.7238,-5.7174,-5.7174,-5.7109,-5.6915,-5.6616,-5.6197,-5.5736,-5.5405,-5.5165,-5.5099,-5.5099,-5.5099,-5.5099,-5.5099,-5.5099,-5.5099,-5.5229,-5.5386,-5.5491,-5.57,-5.57,-5.57,-5.5647,-5.536,-5.5386,-5.5255,-5.5177,-5.5099,-5.5099,-5.5099,-5.5099,-5.5099,-5.5099,-5.5099,-5.5099,-5.5099,-5.5099,-5.5099,-5.5099,-5.5099,-5.5099,-5.5099,-5.5099,-5.5099,-5.5099,-5.5099,-5.5099,-5.5099,-5.5099,-5.5072,-5.4968,-5.4654,-5.4341,-5.3818,-5.3164,-5.2589,-6.6586,-6.6533,-6.6108,-6.5808,-6.5592,-6.4771,-6.4244,-6.3993,-6.3595,-6.364,-6.4066,-6.4725,-6.5353,-6.5951,-6.667,-6.6999,-6.6999,-6.6999,-6.6999,-6.6846,-6.6476,-6.584,-6.53,-6.4542,-6.3706,-6.2793,-6.2151,-6.1832,-6.1658,-6.189,-6.2441,-6.308,-6.3719,-6.4357,-6.4938,-6.4996,-6.4903,-6.456,-6.4239,-6.3988,-6.37,-6.3468,-6.3075,-6.254,-6.1902,-6.134,-6.0722,-6.0216,-5.9739,-5.9345,-5.9233,-5.9205,-5.9142,-5.8767,-5.8451,-5.8135,-5.7752,-5.7431,-5.7238,-5.7174,-5.7174,-5.7201,-5.7071,-5.6877,-5.6551,-5.5934,-5.5564,-5.5299,-5.5125,-5.5125,-5.5151,-5.5151,-5.5203,-5.5203,-5.5203,-5.5465,-5.57,-5.5987,-5.6275,-5.6327,-5.6327,-5.6092,-5.5804,-5.5595,-5.5465,-5.5308,-5.5151,-5.5099,-5.5099,-5.5099,-5.5099,-5.5099,-5.5099,-5.5099,-5.5099,-5.5099,-5.5099,-5.5099,-5.5099,-5.5099,-5.5099,-5.5099,-5.5099,-5.5099,-5.5099,-5.5099,-5.5099,-5.5099,-5.5072,-5.5046,-5.4994,-5.4654,-5.4367,-5.3818,-5.3164,-6.6586,-6.648,-6.5969,-6.57,-6.5592,-6.4881,-6.4468,-6.4132,-6.388,-6.3719,-6.3882,-6.4604,-6.5233,-6.5772,-6.655,-6.6999,-6.6999,-6.6999,-6.6999,-6.6846,-6.6364,-6.5791,-6.5067,-6.4229,-6.3369,-6.2395,-6.1863,-6.1513,-6.1338,-6.1803,-6.2441,-6.3109,-6.3719,-6.4357,-6.4909,-6.4967,-6.4602,-6.4051,-6.373,-6.3422,-6.3114,-6.2725,-6.2642,-6.2015,-6.1397,-6.0835,-6.0413,-5.9935,-5.9542,-5.9289,-5.9233,-5.9205,-5.9142,-5.8829,-5.8515,-5.8198,-5.788,-5.756,-5.7303,-5.7174,-5.7201,-5.7228,-5.7499,-5.7412,-5.7219,-5.6691,-5.616,-5.5919,-5.561,-5.5543,-5.57,-5.5752,-5.619,-5.6337,-5.6363,-5.6562,-5.6667,-5.6799,-5.6794,-5.6615,-5.6536,-5.6353,-5.604,-5.5804,-5.5621,-5.5255,-5.5125,-5.5099,-5.5099,-5.5099,-5.5099,-5.5099,-5.5099,-5.5099,-5.5099,-5.5099,-5.5099,-5.5099,-5.5099,-5.5099,-5.5099,-5.5099,-5.5099,-5.5099,-5.5099,-5.5099,-5.5099,-5.5099,-5.5099,-5.5072,-5.5046,-5.4968,-5.468,-5.4367,-5.3739,-6.6586,-6.6512,-6.6,-6.5754,-6.5646,-6.5132,-6.4746,-6.4412,-6.4075,-6.3823,-6.3722,-6.4544,-6.4964,-6.5473,-6.634,-6.6759,-6.6999,-6.6999,-6.6999,-6.6758,-6.6036,-6.5586,-6.4779,-6.3736,-6.2965,-6.2224,-6.1633,-6.1428,-6.1251,-6.1948,-6.2674,-6.3167,-6.3748,-6.4386,-6.4735,-6.4729,-6.437,-6.3498,-6.295,-6.2402,-6.2053,-6.1759,-6.1743,-6.1369,-6.0807,-6.0097,-5.9879,-5.9598,-5.9261,-5.9233,-5.9205,-5.9205,-5.9142,-5.8955,-5.8578,-5.8262,-5.8007,-5.7624,-5.7303,-5.7174,-5.7255,-5.7418,-5.7852,-5.7992,-5.777,-5.7424,-5.6957,-5.6595,-5.6284,-5.6066,-5.6223,-5.6353,-5.682,-5.7304,-5.7372,-5.752,-5.7546,-5.7625,-5.7472,-5.7197,-5.7023,-5.684,-5.6458,-5.6196,-5.5778,-5.5386,-5.5125,-5.5099,-5.5099,-5.5099,-5.5099,-5.5099,-5.5099,-5.5099,-5.5099,-5.5099,-5.5099,-5.5099,-5.5099,-5.5099,-5.5099,-5.5099,-5.5099,-5.5099,-5.5099,-5.5099,-5.5099,-5.5099,-5.5099,-5.5099,-5.5072,-5.5046,-5.4968,-5.4628,-5.4184,-6.6586,-6.6565,-6.6246,-6.5947,-6.5646,-6.5351,-6.4912,-6.4382,-6.4162,-6.3823,-6.387,-6.4483,-6.5024,-6.5114,-6.64,-6.6969,-6.6999,-6.6969,-6.6999,-6.6818,-6.604,-6.5441,-6.4605,-6.3534,-6.2764,-6.2024,-6.1461,-6.1282,-6.1396,-6.2267,-6.2906,-6.3051,-6.427,-6.4532,-6.4125,-6.4062,-6.367,-6.283,-6.2314,-6.1918,-6.138,-6.1096,-6.0835,-6.0582,-6.0273,-5.9823,-5.9514,-5.9289,-5.9233,-5.9205,-5.9205,-5.9205,-5.9142,-5.908,-5.8767,-5.8388,-5.8135,-5.7752,-5.7496,-5.7238,-5.7282,-5.777,-5.815,-5.8422,-5.8307,-5.8201,-5.781,-5.7607,-5.7267,-5.6804,-5.6771,-5.6824,-5.7145,-5.7689,-5.7948,-5.8366,-5.8541,-5.8764,-5.8838,-5.8629,-5.8464,-5.8009,-5.745,-5.6961,-5.6317,-5.5872,-5.5229,-5.5177,-5.5099,-5.5099,-5.5099,-5.5099,-5.5099,-5.5099,-5.5099,-5.5099,-5.5099,-5.5099,-5.5099,-5.5099,-5.5099,-5.5099,-5.5099,-5.5099,-5.5099,-5.5099,-5.5099,-5.5099,-5.5099,-5.5099,-5.5099,-5.5072,-5.5046,-5.4916,-5.4471]},{"header":{"parameterUnit":"m.s-1","parameterCategory":1,"la1":31.0,"la2":29.5877,"lo1":-88.7671,"lo2":-86.6584,"dy":0.0162,"dx":0.0185,"nx":115,"ny":88,"refTime":"2024-04-29T06:00:00:Z","depth":0,"parameterNumber":3,"parameterNumberName":"V-component_of_WINDS"},"data":[0.0,0.0,0.0,0.0,0.0,0.0,0.0,0.0,0.0,0.0,0.0,0.0,0.0,0.0,0.0,0.0,0.0,0.0,0.0,0.0,0.0,0.0,0.0,0.0,0.0,0.0,0.0,0.0,0.0,0.0,0.0,0.0,0.0,0.0,0.0,0.0,0.0,0.0,0.0,0.0,0.0,0.0,0.0,0.0,0.0,0.0,0.0,0.0,0.0,0.0,0.0,0.0,0.0,0.0,0.0,0.0,0.0,0.0,0.0,0.0,0.0,0.0,0.0,0.0,0.0,0.0,0.0,0.0,0.0,0.0,0.0,0.0,0.0,0.0,0.0,0.0,0.0,0.0,0.0,0.0,0.0,0.0,0.0,0.0,0.0,0.0,0.0,0.0,0.0,0.0,0.0,0.0,0.0,0.0,0.0,0.0,0.0,0.0,0.0,0.0,0.0,0.0,0.0,0.0,0.0,0.0,0.0,0.0,0.0,0.0,0.0,0.0,0.0,0.0,0.0,0.0,0.0,0.0,0.0,0.0,0.0,0.0,0.0,0.0,0.0,0.0,0.0,0.0,0.0,0.0,0.0,0.0,0.0,0.0,0.0,0.0,0.0,0.0,0.0,0.0,0.0,0.0,0.0,0.0,0.0,0.0,0.0,0.0,0.0,0.0,0.0,0.0,0.0,0.0,0.0,0.0,0.0,0.0,0.0,0.0,0.0,0.0,0.0,0.0,0.0,0.0,0.0,0.0,0.0,0.0,0.0,0.0,0.0,0.0,0.0,0.0,0.0,0.0,0.0,0.0,0.0,0.0,0.0,0.0,0.0,0.0,0.0,0.0,0.0,0.0,0.0,0.0,0.0,0.0,0.0,0.0,0.0,0.0,0.0,0.0,0.0,0.0,0.0,0.0,0.0,0.0,0.0,0.0,0.0,0.0,0.0,0.0,0.0,0.0,0.0,0.0,0.0,0.0,0.0,0.0,0.0,0.0,0.0,0.0,0.0,0.0,0.0,0.0,0.0,0.0,0.0,0.0,0.0,0.0,0.0,0.0,0.0,0.0,0.0,0.0,0.0,0.0,0.0,0.0,0.0,0.0,0.0,0.0,0.0,0.0,0.0,0.0,0.0,0.0,0.0,0.0,0.0,0.0,0.0,0.0,0.0,0.0,0.0,0.0,0.0,0.0,0.0,0.0,0.0,0.0,0.0,0.0,0.0,0.0,0.0,0.0,0.0,0.0,0.0,0.0,0.0,0.0,0.0,0.0,0.0,0.0,0.0,0.0,0.0,0.0,0.0,0.0,0.0,0.0,0.0,0.0,0.0,0.0,0.0,0.0,0.0,0.0,0.0,0.0,0.0,0.0,0.0,0.0,0.0,0.0,0.0,0.0,0.0,0.0,0.0,0.0,0.0,0.0,0.0,0.0,0.0,0.0,0.0,0.0,0.0,0.0,0.0,0.0,0.0,0.0,0.0,0.0,0.0,0.0,0.0,0.0,0.0,0.0,0.0,0.0,0.0,0.0,0.0,0.0,0.0,0.0,0.0,0.0,0.0,0.0,0.0,0.0,0.0,0.0,0.0,0.0,0.0,0.0,0.0,0.0,0.0,0.0,0.0,0.0,0.0,0.0,0.0,0.0,0.0,0.0,0.0,0.0,0.0,0.0,0.0,0.0,0.0,0.0,0.0,0.0,0.0,0.0,0.0,0.0,0.0,0.0,0.0,0.0,0.0,0.0,0.0,0.0,0.0,0.0,0.0,0.0,0.0,0.0,0.0,0.0,0.0,0.0,0.0,0.0,0.0,0.0,0.0,0.0,0.0,0.0,0.0,0.0,0.0,0.0,0.0,0.0,0.0,0.0,0.0,0.0,0.0,0.0,0.0,0.0,0.0,0.0,0.0,0.0,0.0,0.0,0.0,0.0,0.0,0.0,0.0,0.0,0.0,0.0,0.0,0.0,0.0,0.0,0.0,0.0,0.0,0.0,0.0,0.0,0.0,0.0,0.0,0.0,0.0,0.0,0.0,0.0,0.0,0.0,0.0,0.0,0.0,0.0,0.0,0.0,0.0,0.0,0.0,0.0,0.0,0.0,0.0,0.0,0.0,0.0,0.0,0.0,0.0,0.0,0.0,0.0,0.0,0.0,0.0,0.0,0.0,0.0,0.0,0.0,0.0,0.0,0.0,0.0,0.0,0.0,0.0,0.0,0.0,0.0,0.0,0.0,0.0,0.0,0.0,0.0,0.0,0.0,0.0,0.0,0.0,0.0,0.0,0.0,0.0,0.0,0.0,0.0,0.0,0.0,0.0,0.0,0.0,0.0,0.0,0.0,0.0,0.0,0.0,0.0,0.0,0.0,0.0,0.0,0.0,0.0,0.0,0.0,0.0,0.0,0.0,0.0,0.0,0.0,0.0,0.0,0.0,0.0,0.0,0.0,0.0,0.0,0.0,0.0,0.0,0.0,0.0,0.0,0.0,0.0,0.0,0.0,0.0,0.0,0.0,0.0,0.0,0.0,0.0,0.0,0.0,0.0,0.0,0.0,0.0,0.0,0.0,0.0,0.0,0.0,0.0,0.0,0.0,0.0,0.0,0.0,0.0,0.0,0.0,0.0,0.0,0.0,0.0,0.0,0.0,0.0,0.0,0.0,0.0,0.0,0.0,0.0,0.0,0.0,0.0,0.0,0.0,0.0,0.0,0.0,0.0,0.0,0.0,0.0,0.0,0.0,0.0,0.0,0.0,0.0,0.0,0.0,0.0,0.0,0.0,0.0,0.0,0.0,0.0,0.0,0.0,0.0,0.0,0.0,0.0,0.0,0.0,0.0,0.0,0.0,0.0,0.0,0.0,0.0,0.0,0.0,0.0,0.0,0.0,0.0,0.0,0.0,0.0,0.0,0.0,0.0,0.0,0.0,0.0,0.0,0.0,0.0,0.0,0.0,0.0,0.0,0.0,0.0,0.0,0.0,0.0,0.0,0.0,0.0,0.0,0.0,0.0,0.0,0.0,0.0,0.0,0.0,0.0,0.0,0.0,0.0,0.0,0.0,0.0,0.0,0.0,0.0,0.0,0.0,0.0,0.0,0.0,0.0,0.0,0.0,0.0,0.0,0.0,0.0,0.0,0.0,0.0,0.0,0.0,0.0,0.0,0.0,0.0,0.0,0.0,0.0,0.0,0.0,0.0,0.0,0.0,0.0,0.0,0.0,0.0,0.0,0.0,0.0,0.0,0.0,0.0,0.0,0.0,0.0,0.0,0.0,0.0,0.0,0.0,0.0,0.0,0.0,0.0,0.0,0.0,0.0,0.0,0.0,0.0,0.0,0.0,0.0,0.0,0.0,0.0,0.0,0.0,0.0,0.0,0.0,0.0,0.0,0.0,0.0,0.0,0.0,0.0,0.0,0.0,0.0,0.0,0.0,0.0,0.0,0.0,0.0,0.0,0.0,0.0,0.0,0.0,0.0,0.0,0.0,0.0,0.0,0.0,0.0,0.0,0.0,0.0,0.0,0.0,0.0,0.0,0.0,0.0,0.0,0.0,0.0,0.0,0.0,0.0,0.0,0.0,0.0,0.0,0.0,0.0,0.0,0.0,0.0,0.0,0.0,0.0,0.0,0.0,0.0,0.0,0.0,0.0,0.0,0.0,0.0,0.0,0.0,0.0,0.0,0.0,0.0,0.0,0.0,0.0,0.0,0.0,0.0,0.0,0.0,0.0,0.0,0.0,0.0,0.0,0.0,0.0,0.0,0.0,0.0,0.0,0.0,0.0,0.0,0.0,0.0,0.0,0.0,0.0,0.0,0.0,0.0,0.0,0.0,0.0,0.0,0.0,0.0,0.0,0.0,0.0,0.0,0.0,0.0,0.0,0.0,0.0,0.0,0.0,0.0,0.0,0.0,0.0,0.0,0.0,0.0,0.0,0.0,0.0,0.0,0.0,0.0,0.0,0.0,0.0,0.0,0.0,0.0,0.0,0.0,0.0,0.0,0.0,0.0,0.0,0.0,0.0,0.0,0.0,0.0,0.0,0.0,0.0,0.0,0.0,0.0,0.0,0.0,0.0,0.0,0.0,0.0,0.0,0.0,0.0,0.0,0.0,0.0,0.0,0.0,0.0,0.0,0.0,0.0,0.0,0.0,0.0,0.0,0.0,0.0,0.0,0.0,0.0,0.0,0.0,0.0,0.0,0.0,0.0,0.0,0.0,0.0,0.0,0.0,0.0,0.0,0.0,0.0,0.0,0.0,0.0,0.0,0.0,0.0,0.0,0.0,1.1944,0.0,0.0,0.0,1.1551,0.0,0.0,0.0,0.0,0.0,0.0,0.0,0.0,0.0,0.0,0.0,0.0,0.0,0.0,0.0,0.0,0.0,0.0,0.0,0.0,0.0,0.0,0.0,0.0,0.0,0.0,0.0,0.0,0.0,0.0,0.0,0.0,0.0,0.0,0.0,0.0,0.0,0.0,0.0,0.0,0.0,0.0,0.0,0.0,0.0,0.0,0.0,0.0,0.0,0.0,0.0,0.0,0.0,0.0,0.0,0.0,0.0,0.0,0.0,0.0,0.0,0.0,0.0,0.0,0.0,0.0,0.0,0.0,0.0,0.0,0.0,0.0,0.0,0.0,0.0,0.0,0.0,0.0,0.0,0.0,0.0,0.0,0.0,0.0,0.0,0.0,0.0,0.0,0.0,0.0,0.0,0.0,0.0,0.0,0.0,0.0,0.0,0.0,0.0,0.0,0.0,0.0,0.0,0.0,0.0,0.0,0.0,0.0,0.0,0.0,1.2122,1.1907,1.1541,1.1573,1.1845,0.0,0.0,0.0,0.0,0.0,0.0,0.0,0.0,0.0,0.0,0.0,0.0,0.0,0.0,0.0,0.0,0.0,0.0,0.0,0.0,0.0,0.0,0.0,0.0,0.0,0.0,0.0,0.0,0.0,0.0,0.0,0.0,0.0,0.0,0.0,0.0,0.0,0.0,0.0,0.0,0.0,0.0,0.0,0.0,0.0,0.0,0.0,0.0,0.0,0.0,0.0,0.0,0.0,0.0,0.0,0.0,0.0,0.0,0.0,0.0,0.0,0.0,0.0,0.0,0.0,0.0,0.0,0.0,0.0,0.0,0.0,0.0,0.0,0.0,0.0,0.0,0.0,0.0,0.0,0.0,0.0,0.0,0.0,0.0,0.0,0.0,0.0,0.0,0.0,0.0,0.0,0.0,0.0,0.0,0.0,0.0,0.0,0.0,0.0,0.0,0.0,0.0,0.0,0.0,0.0,0.0,0.0,0.0,0.0,0.0,0.0,0.0,1.1738,1.1621,1.2035,0.0,0.0,0.0,0.0,0.0,0.0,0.0,0.0,0.0,0.0,0.0,0.0,0.0,0.0,0.0,0.0,0.0,0.0,0.0,0.0,0.0,0.0,0.0,0.0,0.0,0.0,0.0,0.0,0.0,0.0,0.0,0.0,0.0,0.0,0.0,0.0,0.0,0.0,0.0,0.0,0.0,0.0,0.0,0.0,0.0,0.0,0.0,0.0,0.0,0.0,0.0,0.0,0.0,0.0,0.0,0.0,0.0,0.0,0.0,0.0,0.0,0.0,0.0,0.0,0.0,0.0,0.0,0.0,0.0,0.0,0.0,0.0,0.0,0.0,0.0,0.0,0.0,0.0,0.0,0.0,0.0,0.0,0.0,0.0,0.0,0.0,0.0,0.0,0.0,0.0,0.0,0.0,0.0,0.0,0.0,0.0,0.0,0.0,0.0,0.0,0.0,0.0,0.0,0.0,0.0,0.0,0.0,0.0,0.0,0.0,1.2611,1.2393,1.189,0.0,1.2168,0.0,0.0,0.0,0.0,0.0,0.0,0.0,0.0,0.0,0.0,0.0,0.0,0.0,0.0,0.0,0.0,0.0,0.0,0.0,0.0,0.0,0.0,0.0,0.0,0.0,0.0,0.0,0.0,0.0,0.0,0.0,0.0,0.0,0.0,0.0,0.0,0.0,0.0,0.0,0.0,0.0,0.0,0.0,0.0,0.0,0.0,0.0,0.0,0.0,0.0,0.0,0.0,0.0,0.0,0.0,0.0,0.0,0.0,0.0,0.0,0.0,0.0,0.0,0.0,0.0,0.0,0.0,0.0,0.0,0.0,0.0,0.0,0.0,0.0,0.0,0.0,0.0,0.0,0.0,0.0,0.0,0.0,0.0,0.0,0.0,0.0,0.0,0.0,0.0,0.0,0.0,0.0,0.0,0.0,0.0,0.0,0.0,0.0,0.0,0.0,0.0,0.0,0.0,0.0,0.0,0.0,0.0,0.0,0.0,0.0,1.3149,1.2787,1.2576,1.2423,0.0,0.0,0.0,0.0,0.0,0.0,0.0,0.0,0.0,0.0,0.0,0.0,0.0,0.0,0.0,0.0,0.0,0.0,0.0,0.0,0.0,0.0,0.0,0.0,0.0,0.0,0.0,0.0,0.0,0.0,0.0,0.0,0.0,0.0,0.0,0.0,0.0,0.0,0.0,0.0,0.0,0.0,0.0,0.0,0.0,0.0,0.0,0.0,0.0,0.0,0.0,0.0,0.0,0.0,0.0,0.0,0.0,0.0,0.0,0.0,0.0,0.0,0.0,0.0,0.0,0.0,0.0,0.0,0.0,0.0,0.0,0.0,0.0,0.0,0.0,0.0,0.0,0.0,0.0,0.0,0.0,0.0,0.0,0.0,0.0,0.0,0.0,0.0,0.0,0.0,0.0,0.0,0.0,0.0,0.0,0.0,0.0,0.0,0.0,0.0,0.0,0.0,0.0,0.0,0.0,0.0,0.0,0.0,0.0,0.0,1.458,1.359,1.2933,1.2978,1.2964,1.2697,0.0,0.0,0.0,0.0,0.0,0.0,0.0,0.0,0.0,0.0,0.0,0.0,0.0,0.0,0.0,0.0,0.0,0.0,0.0,0.0,0.0,0.0,0.0,0.0,0.0,0.0,0.0,0.0,0.0,0.0,0.0,0.0,0.0,0.0,0.0,0.0,0.0,0.0,0.0,0.0,0.0,0.0,0.0,0.0,0.0,0.0,0.0,0.0,0.0,0.0,0.0,0.0,0.0,0.0,0.0,0.0,0.0,0.0,0.0,0.0,0.0,0.0,0.0,0.0,0.0,0.0,0.0,0.0,0.0,0.0,0.0,0.0,0.0,0.0,0.0,0.0,0.0,0.0,0.0,0.0,0.0,0.0,0.0,0.0,0.0,0.0,0.0,0.0,0.0,0.0,0.0,0.0,0.0,0.0,0.0,0.0,0.0,0.0,0.0,0.0,0.0,0.0,0.0,0.0,0.0,0.0,0.0,0.0,1.6654,1.5363,1.3946,1.2648,1.2941,1.3004,0.0,0.0,0.0,0.0,0.0,0.0,0.0,0.0,0.0,0.0,0.0,0.0,0.0,0.0,0.0,0.0,0.0,0.0,0.0,0.0,0.0,0.0,0.0,0.0,0.0,0.0,0.0,0.0,0.0,0.0,0.0,0.0,0.0,0.0,0.0,0.0,0.0,0.0,0.0,0.0,0.0,0.0,0.0,0.0,0.0,0.0,0.0,0.0,0.0,0.0,0.0,0.0,0.0,0.0,0.0,0.0,0.0,0.0,0.0,0.0,0.0,0.0,0.0,0.0,0.0,0.0,0.0,0.0,0.0,0.0,0.0,0.0,0.0,0.0,0.0,0.0,0.0,0.0,0.0,0.0,0.0,0.0,0.0,0.0,0.0,0.0,0.0,0.0,0.0,0.0,0.0,0.0,0.0,0.0,0.0,0.0,0.0,0.0,0.0,0.0,0.0,0.0,0.0,0.0,0.0,0.0,0.0,0.0,0.0,1.7205,1.56,1.4308,1.3458,1.3734,1.3809,0.0,0.0,0.0,0.0,0.0,0.0,0.0,0.0,0.0,0.0,0.0,0.0,0.0,0.0,0.0,0.0,0.0,0.0,0.0,0.0,0.0,0.0,0.0,0.0,0.0,0.0,0.0,0.0,0.0,0.0,0.0,0.0,0.0,0.0,0.0,0.0,0.0,0.0,0.0,0.0,0.0,0.0,0.0,0.0,0.0,0.0,0.0,0.0,0.0,0.0,0.0,0.0,0.0,0.0,0.0,0.0,0.0,0.0,0.0,0.0,0.0,0.0,0.0,0.0,0.0,0.0,0.0,0.0,0.0,0.0,0.0,0.0,0.0,0.0,0.0,0.0,0.0,0.0,0.0,0.0,0.0,0.0,0.0,0.0,0.0,0.0,0.0,0.0,0.0,0.0,0.0,0.0,0.0,0.0,0.0,0.0,0.0,0.0,0.0,0.0,0.0,0.0,0.0,0.0,0.0,0.0,0.0,0.0,0.0,1.7857,0.0,1.5069,1.4514,1.458,1.4461,0.0,0.0,0.0,0.0,0.0,0.0,0.0,0.0,0.0,0.0,0.0,0.0,0.0,0.0,0.0,0.0,0.0,0.0,0.0,0.0,0.0,0.0,0.0,0.0,0.0,0.0,0.0,0.0,0.0,0.0,0.0,0.0,0.0,0.0,0.0,0.0,0.0,0.0,0.0,0.0,0.0,0.0,0.0,0.0,0.0,0.0,0.0,0.0,0.0,0.0,0.0,0.0,0.0,0.0,0.0,0.0,0.0,0.0,0.0,0.0,0.0,0.0,0.0,0.0,0.0,0.0,0.0,0.0,0.0,0.0,0.0,0.0,0.0,0.0,0.0,0.0,0.0,0.0,0.0,0.0,0.0,0.0,0.0,0.0,0.0,0.0,0.0,0.0,0.0,0.0,0.0,0.0,0.0,0.0,0.0,0.0,0.0,0.0,0.0,0.0,0.0,0.0,0.0,0.0,0.0,0.0,0.0,0.0,1.945,1.8508,1.7214,1.634,1.5762,1.5319,1.4966,0.0,0.0,0.0,0.0,0.0,0.0,0.0,0.0,0.0,0.0,0.0,0.0,0.0,0.0,0.0,0.0,0.0,0.0,0.0,0.0,0.0,0.0,0.0,0.0,0.0,0.0,0.0,0.0,0.0,0.0,0.0,0.0,0.0,0.0,0.0,0.0,0.0,0.0,0.0,0.0,0.0,0.0,0.0,0.0,0.0,0.0,0.0,0.0,0.0,0.0,0.0,0.0,0.0,0.0,0.0,0.0,0.0,0.0,0.0,0.0,0.0,0.0,0.0,0.0,0.0,0.0,0.0,0.0,0.0,0.0,0.0,0.0,0.0,0.0,0.0,0.0,0.0,0.0,0.0,0.0,0.0,0.0,0.0,0.0,0.0,0.0,0.0,0.0,0.0,0.0,0.0,0.0,0.0,0.0,0.0,0.0,0.0,0.0,0.0,0.0,0.0,0.0,0.0,0.0,0.0,0.0,0.0,0.0,0.0,1.9704,1.8841,1.8031,1.7316,1.6866,1.6324,0.0,0.0,0.0,0.0,0.0,0.0,0.0,0.0,0.0,0.0,0.0,0.0,0.0,0.0,0.0,0.0,0.0,0.0,0.0,0.0,0.0,0.0,0.0,0.0,0.0,0.0,0.0,0.0,0.0,0.0,0.0,0.0,0.0,0.0,0.0,0.0,0.0,0.0,0.0,0.0,0.0,0.0,0.0,0.0,0.0,0.0,0.0,0.0,0.0,0.0,0.0,0.0,0.0,0.0,0.0,0.0,0.0,0.0,0.0,0.0,0.0,0.0,0.0,0.0,0.0,0.0,0.0,0.0,0.0,0.0,0.0,0.0,0.0,0.0,0.0,0.0,0.0,0.0,0.0,0.0,0.0,0.0,0.0,0.0,0.0,0.0,0.0,0.0,0.0,0.0,0.0,0.0,0.0,0.0,0.0,0.0,0.0,0.0,0.0,0.0,0.0,0.0,0.0,0.0,0.0,0.0,0.0,0.0,0.0,2.2323,2.1003,1.9927,1.9252,1.8581,1.7868,1.7066,0.0,0.0,0.0,0.0,0.0,0.0,0.0,0.0,0.0,0.0,0.0,0.0,0.0,0.0,0.0,0.0,0.0,0.0,0.0,0.0,0.0,0.0,0.0,0.0,0.0,0.0,0.0,0.0,0.0,0.0,0.0,0.0,0.0,0.0,0.0,0.0,0.0,0.0,0.0,0.0,0.0,0.0,0.0,0.0,0.0,0.0,0.0,0.0,0.0,0.0,0.0,0.0,0.0,0.0,0.0,0.0,0.0,0.0,0.0,0.0,0.0,0.0,0.0,0.0,0.0,0.0,0.0,0.0,0.0,0.0,0.0,0.0,0.0,0.0,0.0,0.0,0.0,0.0,0.0,0.0,0.0,0.0,0.0,0.0,0.0,0.0,0.0,0.0,0.0,0.0,0.0,0.0,0.0,0.0,0.0,0.0,0.0,0.0,0.0,0.0,0.0,0.0,0.0,0.0,0.0,0.0,0.0,0.0,2.6048,2.3809,2.2262,2.1543,2.0409,1.9513,0.0,0.0,0.0,0.0,0.0,0.0,0.0,0.0,0.0,0.0,0.0,0.0,0.0,0.0,0.0,0.0,0.0,0.0,0.0,0.0,0.0,0.0,0.0,0.0,0.0,0.0,0.0,0.0,0.0,0.0,0.0,0.0,0.0,0.0,0.0,0.0,0.0,0.0,0.0,0.0,0.0,0.0,0.0,0.0,0.0,0.0,0.0,0.0,0.0,0.0,0.0,0.0,0.0,0.0,0.0,0.0,0.0,0.0,0.0,0.0,0.0,0.0,0.0,0.0,0.0,0.0,0.0,0.0,0.0,0.0,0.0,0.0,0.0,0.0,0.0,0.0,0.0,0.0,0.0,0.0,0.0,0.0,0.0,0.0,0.0,0.0,0.0,0.0,0.0,0.0,0.0,0.0,0.0,0.0,0.0,0.0,0.0,0.0,0.0,0.0,0.0,0.0,0.0,0.0,0.0,0.0,0.0,0.0,0.0,2.8319,2.7732,2.6308,2.3962,2.2248,2.116,0.0,0.0,0.0,0.0,0.0,0.0,0.0,0.0,0.0,0.0,0.0,0.0,0.0,0.0,0.0,0.0,0.0,0.0,0.0,0.0,0.0,0.0,0.0,0.0,0.0,0.0,0.0,0.0,0.0,0.0,0.0,0.0,0.0,0.0,0.0,0.0,0.0,0.0,0.0,0.0,0.0,0.0,0.0,0.0,0.0,0.0,0.0,0.0,0.0,0.0,0.0,0.0,0.0,0.0,0.0,0.0,0.0,0.0,0.0,0.0,0.0,0.0,0.0,0.0,0.0,0.0,0.0,0.0,0.0,0.0,0.0,0.0,0.0,0.0,0.0,0.0,0.0,0.0,0.0,0.0,0.0,0.0,0.0,0.0,0.0,0.0,0.0,0.0,0.0,0.0,0.0,0.0,0.0,0.0,0.0,0.0,0.0,0.0,0.0,0.0,0.0,0.0,0.0,0.0,0.0,0.0,0.0,0.0,2.9107,3.0217,3.0437,2.9592,2.7615,2.506,2.328,0.0,0.0,0.0,0.0,0.0,0.0,0.0,0.0,0.0,0.0,0.0,0.0,0.0,0.0,0.0,0.0,0.0,0.0,0.0,0.0,0.0,0.0,0.0,0.0,0.0,0.0,0.0,0.0,0.0,0.0,0.0,0.0,0.0,0.0,0.0,0.0,0.0,0.0,0.0,0.0,0.0,0.0,0.0,0.0,0.0,0.0,0.0,0.0,0.0,0.0,0.0,0.0,0.0,0.0,0.0,0.0,0.0,0.0,0.0,0.0,0.0,0.0,0.0,0.0,0.0,0.0,0.0,0.0,0.0,0.0,0.0,0.0,0.0,0.0,0.0,0.0,0.0,0.0,0.0,0.0,0.0,0.0,0.0,0.0,0.0,0.0,0.0,0.0,0.0,0.0,0.0,0.0,0.0,0.0,0.0,0.0,0.0,0.0,0.0,0.0,0.0,0.0,0.0,0.0,0.0,0.0,0.0,0.0,3.1059,3.1759,3.2267,3.2284,3.1719,2.8248,2.5655,0.0,0.0,0.0,0.0,0.0,0.0,0.0,0.0,0.0,0.0,0.0,0.0,0.0,0.0,0.0,0.0,0.0,0.0,0.0,0.0,0.0,0.0,0.0,0.0,0.0,0.0,0.0,0.0,0.0,0.0,0.0,0.0,0.0,0.0,0.0,0.0,0.0,0.0,0.0,0.0,0.0,0.0,0.0,0.0,0.0,0.0,0.0,0.0,0.0,0.0,0.0,0.0,0.0,0.0,0.0,0.0,0.0,0.0,0.0,0.0,0.0,0.0,0.0,0.0,0.0,0.0,0.0,0.0,0.0,0.0,0.0,0.0,0.0,0.0,0.0,0.0,0.0,0.0,0.0,0.0,0.0,0.0,0.0,0.0,0.0,0.0,0.0,0.0,0.0,0.0,0.0,0.0,0.0,0.0,0.0,0.0,0.0,0.0,0.0,0.0,0.0,0.0,0.0,0.0,0.0,0.0,0.0,0.0,3.2346,3.3384,3.4082,3.4315,3.3839,3.0187,2.7687,0.0,0.0,0.0,0.0,0.0,0.0,0.0,0.0,0.0,0.0,0.0,0.0,0.0,0.0,0.0,0.0,0.0,0.0,0.0,0.0,0.0,0.0,0.0,0.0,0.0,0.0,0.0,0.0,0.0,0.0,0.0,0.0,0.0,0.0,0.0,0.0,0.0,0.0,0.0,0.0,0.0,0.0,0.0,0.0,0.0,0.0,0.0,0.0,2.1854,0.0,0.0,0.0,0.0,0.0,0.0,0.0,0.0,0.0,0.0,0.0,0.0,0.0,0.0,0.0,0.0,0.0,0.0,0.0,0.0,0.0,0.0,0.0,0.0,0.0,0.0,0.0,0.0,0.0,0.0,0.0,0.0,0.0,0.0,0.0,0.0,0.0,0.0,0.0,0.0,0.0,0.0,0.0,0.0,0.0,0.0,0.0,0.0,0.0,0.0,0.0,0.0,0.0,0.0,0.0,0.0,0.0,0.0,0.0,3.4395,3.554,3.6017,3.611,3.5834,3.3061,3.0491,0.0,0.0,0.0,0.0,0.0,0.0,0.0,0.0,0.0,0.0,0.0,0.0,0.0,0.0,0.0,0.0,0.0,0.0,0.0,0.0,0.0,0.0,0.0,0.0,0.0,0.0,0.0,0.0,0.0,0.0,0.0,0.0,0.0,0.0,0.0,0.0,0.0,0.0,0.0,0.0,0.0,0.0,0.0,0.0,0.0,0.0,0.0,0.0,0.0,0.0,0.0,0.0,0.0,0.0,0.0,0.0,0.0,0.0,0.0,0.0,0.0,0.0,0.0,0.0,0.0,0.0,0.0,0.0,0.0,0.0,0.0,0.0,0.0,0.0,0.0,0.0,0.0,0.0,0.0,0.0,0.0,0.0,0.0,0.0,0.0,0.0,0.0,0.0,0.0,0.0,0.0,0.0,0.0,0.0,0.0,0.0,0.0,0.0,0.0,0.0,0.0,0.0,0.0,0.0,0.0,0.0,0.0,3.5145,3.6607,3.7786,3.7754,3.7792,3.7827,3.5812,3.3251,3.0136,0.0,0.0,0.0,0.0,0.0,0.0,0.0,0.0,0.0,0.0,0.0,0.0,0.0,0.0,0.0,0.0,0.0,0.0,0.0,0.0,0.0,0.0,0.0,0.0,0.0,0.0,0.0,0.0,0.0,0.0,0.0,0.0,0.0,0.0,0.0,0.0,0.0,0.0,3.2432,3.2502,0.0,0.0,0.0,0.0,0.0,0.0,0.0,0.0,2.4887,0.0,0.0,0.0,0.0,0.0,0.0,0.0,0.0,0.0,0.0,0.0,0.0,0.0,0.0,0.0,0.0,0.0,0.0,0.0,0.0,0.0,0.0,0.0,0.0,0.0,0.0,0.0,0.0,0.0,0.0,0.0,0.0,0.0,0.0,0.0,0.0,0.0,0.0,0.0,0.0,0.0,0.0,0.0,0.0,0.0,0.0,0.0,0.0,0.0,0.0,0.0,0.0,0.0,0.0,0.0,0.0,3.5017,3.6712,3.821,3.9405,3.9439,3.9397,3.9431,3.7172,3.4923,3.2786,0.0,0.0,0.0,0.0,0.0,0.0,0.0,0.0,0.0,0.0,0.0,0.0,0.0,0.0,0.0,0.0,0.0,0.0,0.0,0.0,0.0,0.0,0.0,0.0,0.0,0.0,0.0,0.0,0.0,0.0,0.0,0.0,0.0,0.0,0.0,0.0,0.0,0.0,0.0,3.3601,3.3688,0.0,0.0,0.0,0.0,0.0,0.0,0.0,0.0,2.6368,0.0,0.0,0.0,0.0,0.0,0.0,0.0,0.0,0.0,0.0,0.0,0.0,0.0,0.0,0.0,0.0,0.0,0.0,0.0,0.0,0.0,0.0,0.0,0.0,0.0,0.0,0.0,0.0,0.0,0.0,0.0,0.0,0.0,0.0,0.0,0.0,0.0,0.0,0.0,0.0,0.0,0.0,0.0,0.0,0.0,0.0,0.0,0.0,0.0,0.0,0.0,0.0,0.0,0.0,0.0,3.6596,3.8077,3.9708,4.1286,4.0983,4.0866,4.1069,3.8497,3.6157,0.0,0.0,0.0,0.0,0.0,0.0,0.0,0.0,0.0,0.0,0.0,0.0,0.0,0.0,0.0,0.0,0.0,0.0,0.0,0.0,0.0,0.0,0.0,0.0,0.0,0.0,0.0,0.0,0.0,0.0,0.0,0.0,0.0,0.0,0.0,0.0,0.0,0.0,0.0,0.0,3.4586,3.4929,3.4895,0.0,0.0,0.0,0.0,0.0,0.0,2.9507,2.876,0.0,0.0,0.0,0.0,0.0,0.0,0.0,0.0,0.0,0.0,0.0,0.0,0.0,0.0,0.0,0.0,0.0,0.0,0.0,0.0,0.0,0.0,0.0,0.0,0.0,0.0,0.0,0.0,0.0,0.0,0.0,0.0,0.0,0.0,0.0,0.0,0.0,0.0,0.0,0.0,0.0,0.0,0.0,0.0,0.0,0.0,0.0,0.0,0.0,0.0,0.0,0.0,0.0,0.0,0.0,3.7924,3.953,4.1209,4.3024,4.2564,4.2324,4.2575,3.977,3.7371,0.0,0.0,0.0,0.0,0.0,0.0,0.0,0.0,0.0,0.0,0.0,0.0,0.0,0.0,0.0,0.0,0.0,0.0,0.0,0.0,0.0,0.0,0.0,0.0,0.0,0.0,0.0,0.0,0.0,0.0,0.0,0.0,0.0,0.0,0.0,0.0,0.0,0.0,0.0,0.0,0.0,3.5957,3.6594,3.6384,0.0,0.0,0.0,0.0,3.2843,3.2067,0.0,0.0,0.0,0.0,0.0,0.0,0.0,0.0,0.0,0.0,0.0,0.0,0.0,0.0,0.0,0.0,0.0,0.0,0.0,0.0,0.0,0.0,0.0,0.0,0.0,0.0,0.0,0.0,0.0,0.0,0.0,0.0,0.0,0.0,0.0,0.0,0.0,0.0,0.0,0.0,0.0,0.0,0.0,0.0,0.0,0.0,0.0,0.0,0.0,0.0,0.0,0.0,0.0,0.0,0.0,0.0,3.8615,4.0997,4.2991,4.4322,4.4349,4.4203,4.3816,4.0983,3.8505,0.0,0.0,0.0,0.0,0.0,0.0,0.0,0.0,0.0,0.0,0.0,0.0,0.0,0.0,0.0,0.0,0.0,0.0,0.0,0.0,0.0,0.0,0.0,0.0,0.0,0.0,0.0,0.0,0.0,0.0,0.0,0.0,0.0,0.0,0.0,0.0,0.0,0.0,0.0,0.0,0.0,3.6907,3.7421,3.7929,3.803,0.0,0.0,3.6567,3.5151,3.4258,0.0,0.0,0.0,0.0,0.0,0.0,0.0,0.0,0.0,0.0,0.0,0.0,0.0,0.0,0.0,0.0,0.0,0.0,0.0,0.0,0.0,0.0,0.0,0.0,0.0,0.0,0.0,0.0,0.0,0.0,0.0,0.0,0.0,0.0,0.0,0.0,0.0,0.0,0.0,0.0,0.0,0.0,0.0,0.0,0.0,0.0,0.0,0.0,0.0,0.0,0.0,0.0,0.0,0.0,0.0,3.7168,3.9341,4.1953,4.4022,4.5493,4.5911,4.5622,4.4705,4.2321,3.9813,0.0,0.0,0.0,0.0,0.0,0.0,0.0,0.0,0.0,0.0,0.0,0.0,0.0,0.0,0.0,0.0,0.0,0.0,0.0,0.0,0.0,0.0,0.0,0.0,0.0,0.0,0.0,0.0,0.0,0.0,0.0,0.0,0.0,0.0,0.0,0.0,0.0,0.0,0.0,0.0,0.0,0.0,3.8687,3.9451,0.0,0.0,0.0,3.8829,3.7392,0.0,0.0,0.0,0.0,0.0,0.0,0.0,0.0,0.0,0.0,0.0,0.0,0.0,0.0,0.0,0.0,0.0,0.0,0.0,0.0,0.0,0.0,0.0,0.0,0.0,0.0,0.0,0.0,0.0,0.0,0.0,0.0,0.0,0.0,0.0,0.0,0.0,0.0,0.0,0.0,0.0,0.0,0.0,0.0,0.0,0.0,0.0,0.0,0.0,0.0,0.0,0.0,0.0,0.0,0.0,0.0,0.0,3.991,4.2769,4.493,4.6416,4.7196,4.691,4.5636,4.3643,0.0,0.0,0.0,0.0,0.0,0.0,0.0,0.0,0.0,0.0,0.0,0.0,0.0,0.0,0.0,0.0,0.0,0.0,0.0,0.0,0.0,0.0,0.0,0.0,0.0,0.0,0.0,2.9507,0.0,0.0,0.0,0.0,0.0,0.0,0.0,0.0,0.0,0.0,0.0,0.0,0.0,0.0,3.8806,4.0149,4.0954,4.1452,0.0,0.0,4.108,3.9801,3.8723,3.7593,0.0,0.0,0.0,0.0,0.0,0.0,0.0,0.0,0.0,0.0,0.0,0.0,0.0,0.0,0.0,0.0,0.0,0.0,0.0,0.0,0.0,0.0,0.0,0.0,0.0,0.0,0.0,0.0,2.6083,0.0,0.0,0.0,0.0,0.0,0.0,0.0,0.0,0.0,0.0,0.0,0.0,0.0,0.0,0.0,0.0,0.0,0.0,0.0,0.0,0.0,0.0,0.0,0.0,0.0,3.8046,4.0301,4.3556,4.5783,4.6862,4.809,4.8113,4.6815,4.5069,4.2724,0.0,0.0,0.0,0.0,0.0,0.0,0.0,0.0,0.0,0.0,0.0,0.0,0.0,0.0,0.0,0.0,0.0,0.0,0.0,0.0,0.0,0.0,0.0,0.0,0.0,0.0,0.0,0.0,0.0,0.0,0.0,0.0,0.0,0.0,0.0,0.0,0.0,0.0,0.0,0.0,0.0,4.0204,4.1721,4.2769,4.3576,0.0,4.3715,4.3134,4.2441,4.1242,4.0044,3.898,0.0,0.0,0.0,0.0,0.0,0.0,0.0,0.0,0.0,0.0,0.0,0.0,0.0,0.0,0.0,0.0,0.0,0.0,0.0,0.0,0.0,0.0,0.0,0.0,0.0,2.6205,2.6753,0.0,2.7539,0.0,0.0,0.0,0.0,0.0,0.0,0.0,0.0,0.0,0.0,0.0,0.0,0.0,0.0,0.0,0.0,0.0,0.0,0.0,0.0,0.0,0.0,0.0,0.0,3.8335,4.0991,4.4357,4.6787,4.8234,4.9603,4.9581,4.8004,4.6772,4.4616,0.0,0.0,0.0,0.0,0.0,0.0,0.0,0.0,0.0,0.0,0.0,0.0,0.0,0.0,0.0,0.0,0.0,0.0,0.0,0.0,0.0,0.0,0.0,0.0,0.0,0.0,0.0,0.0,3.3136,3.3571,3.3853,0.0,0.0,0.0,0.0,0.0,0.0,0.0,0.0,0.0,0.0,4.2355,4.3193,4.4489,0.0,0.0,4.5141,4.4711,4.3677,4.2668,4.1587,4.0513,3.9574,0.0,0.0,0.0,0.0,0.0,0.0,0.0,0.0,0.0,0.0,0.0,0.0,0.0,0.0,0.0,0.0,0.0,0.0,0.0,0.0,0.0,0.0,0.0,0.0,0.0,0.0,2.8962,2.9083,0.0,0.0,0.0,0.0,0.0,0.0,0.0,0.0,0.0,0.0,0.0,0.0,0.0,0.0,0.0,0.0,0.0,0.0,0.0,0.0,0.0,0.0,0.0,0.0,3.8684,4.1569,4.4953,4.7532,4.9266,5.0722,5.0843,4.9325,4.8424,4.6398,4.3065,0.0,0.0,0.0,0.0,0.0,0.0,0.0,0.0,0.0,0.0,0.0,0.0,0.0,0.0,0.0,0.0,0.0,0.0,0.0,0.0,0.0,0.0,0.0,0.0,0.0,0.0,0.0,3.4339,3.4691,3.5002,0.0,0.0,0.0,0.0,0.0,0.0,0.0,0.0,0.0,0.0,4.4064,4.473,4.5981,4.6841,4.6819,4.6633,4.6135,4.5198,4.4444,4.3655,4.2713,0.0,0.0,0.0,0.0,0.0,0.0,0.0,0.0,0.0,0.0,0.0,0.0,0.0,0.0,0.0,0.0,0.0,0.0,0.0,0.0,0.0,0.0,0.0,0.0,0.0,0.0,0.0,3.1134,0.0,0.0,3.1465,0.0,0.0,0.0,0.0,0.0,0.0,0.0,0.0,0.0,0.0,0.0,0.0,0.0,0.0,0.0,0.0,0.0,0.0,0.0,0.0,0.0,0.0,3.926,4.1888,4.5348,4.7935,4.9675,5.1413,5.1847,5.0936,4.9903,4.7984,4.4984,0.0,0.0,0.0,0.0,0.0,0.0,0.0,0.0,0.0,0.0,0.0,0.0,0.0,0.0,0.0,0.0,0.0,0.0,0.0,0.0,0.0,0.0,0.0,0.0,0.0,0.0,3.5356,3.5927,3.6277,0.0,0.0,0.0,0.0,0.0,0.0,0.0,0.0,0.0,4.2386,4.3863,4.5205,4.6226,4.7179,4.7976,4.8453,4.8059,4.7651,4.7215,4.6713,4.6333,0.0,0.0,0.0,0.0,0.0,0.0,0.0,0.0,0.0,0.0,0.0,0.0,0.0,0.0,0.0,0.0,0.0,0.0,0.0,0.0,0.0,0.0,0.0,0.0,0.0,0.0,0.0,3.3287,3.3355,0.0,0.0,0.0,0.0,0.0,0.0,0.0,0.0,0.0,0.0,0.0,4.0616,4.1099,0.0,0.0,0.0,0.0,0.0,0.0,0.0,0.0,0.0,0.0,0.0,0.0,4.0372,4.3012,4.6415,4.9001,5.073,5.2531,5.3037,5.2118,5.1699,4.9818,4.6166,0.0,0.0,0.0,0.0,0.0,0.0,0.0,0.0,0.0,0.0,0.0,0.0,0.0,0.0,0.0,0.0,0.0,0.0,0.0,0.0,0.0,0.0,0.0,0.0,0.0,3.7271,0.0,0.0,0.0,0.0,0.0,0.0,0.0,0.0,0.0,0.0,4.1698,4.3325,4.4023,4.5575,4.6909,4.7537,4.8451,4.9067,0.0,0.0,0.0,0.0,0.0,0.0,0.0,0.0,0.0,0.0,0.0,0.0,0.0,4.3416,4.2271,4.0579,4.0075,3.9688,3.8792,0.0,0.0,0.0,0.0,0.0,0.0,0.0,0.0,0.0,0.0,0.0,0.0,0.0,0.0,3.6102,3.6039,3.5995,0.0,0.0,0.0,0.0,0.0,0.0,0.0,0.0,4.1485,4.2563,4.3797,4.4405,4.4475,4.4013,4.3617,4.1855,0.0,0.0,0.0,0.0,0.0,0.0,0.0,0.0,4.1923,4.4436,4.7555,5.0131,5.2098,5.3577,5.4154,5.3675,5.3023,5.1079,4.7731,4.4804,4.2067,0.0,0.0,0.0,0.0,0.0,0.0,0.0,0.0,0.0,0.0,0.0,0.0,0.0,0.0,0.0,0.0,0.0,0.0,0.0,0.0,0.0,0.0,0.0,3.9054,0.0,0.0,0.0,0.0,0.0,0.0,0.0,0.0,0.0,4.2083,4.3741,4.5303,4.6044,4.7383,4.8422,4.8774,0.0,0.0,0.0,0.0,0.0,0.0,0.0,4.8976,4.8624,4.8345,4.8024,4.7557,4.7021,4.6537,4.6336,0.0,0.0,4.318,4.2615,4.2231,4.1387,4.1054,4.0698,4.0015,3.9887,3.9887,0.0,0.0,0.0,0.0,3.6585,0.0,0.0,0.0,3.8981,3.9216,0.0,3.9078,0.0,0.0,0.0,0.0,3.8965,4.0235,0.0,0.0,4.3937,4.5293,4.6899,4.7571,4.7494,4.6724,4.7041,4.6475,4.4866,4.0692,3.8096,0.0,0.0,0.0,0.0,0.0,4.3927,4.6133,4.8738,5.1251,5.3605,5.4652,5.5299,5.5512,5.3883,5.1923,4.9632,4.7118,4.4875,4.3057,3.9443,0.0,0.0,0.0,0.0,0.0,0.0,0.0,0.0,0.0,0.0,0.0,0.0,0.0,0.0,0.0,0.0,0.0,0.0,0.0,0.0,3.9878,0.0,0.0,0.0,0.0,0.0,0.0,0.0,0.0,0.0,4.6408,4.531,4.6153,4.7272,4.839,0.0,0.0,0.0,0.0,5.0588,5.0588,5.0588,5.0588,5.0588,5.0652,5.0626,5.0652,0.0,0.0,4.9244,4.9094,4.8885,4.8303,4.8172,4.7464,4.5132,4.4615,4.4323,4.3546,4.333,4.3246,4.2925,4.2602,4.2602,4.3414,0.0,0.0,0.0,0.0,4.0738,4.1198,4.1947,4.2319,4.2311,4.2036,4.1965,0.0,0.0,0.0,0.0,0.0,0.0,4.4478,4.5797,4.7247,4.851,4.9486,5.0278,5.0413,5.0102,4.9974,4.924,4.8008,4.6216,4.3808,4.0974,0.0,0.0,0.0,0.0,4.5465,4.7244,5.0053,5.2297,5.4052,5.5222,5.5868,5.5934,5.5126,5.3983,5.2653,5.0297,4.8064,4.5883,4.2772,0.0,0.0,0.0,0.0,0.0,0.0,0.0,0.0,0.0,0.0,0.0,0.0,0.0,0.0,0.0,0.0,0.0,0.0,0.0,4.2706,4.33,4.345,0.0,0.0,0.0,0.0,0.0,0.0,0.0,0.0,0.0,4.8823,4.8575,4.8621,0.0,0.0,4.9896,5.0306,5.0486,5.0677,5.0931,5.0931,0.0,5.1283,5.1471,5.1685,5.1685,5.1523,5.1001,4.9955,4.9743,4.9558,4.8943,4.8837,4.8584,4.7963,4.7008,4.618,4.5405,4.5019,4.4718,4.4286,4.3855,4.3466,4.7004,4.4864,4.3623,4.3332,4.3601,4.3824,4.4228,4.4727,4.5195,4.5299,4.5061,4.4982,4.4789,4.4548,4.4548,0.0,0.0,0.0,4.7189,4.8338,4.9595,5.0713,5.1626,5.2221,5.2485,5.2347,5.2151,5.16,5.0678,4.9659,4.797,4.5699,0.0,4.349,4.3673,4.5611,4.7457,4.9141,5.1408,5.3373,5.4919,5.601,5.6524,5.6497,5.6026,5.5216,5.431,5.2411,5.0359,4.8249,4.5388,4.2722,0.0,0.0,0.0,0.0,0.0,0.0,0.0,0.0,0.0,0.0,0.0,3.4987,3.69,0.0,0.0,0.0,4.2528,4.4036,4.5089,4.5505,0.0,0.0,0.0,0.0,0.0,0.0,0.0,4.8,4.9191,5.0194,5.0883,5.069,5.0549,5.0861,5.0887,5.1018,5.1356,0.0,5.1471,5.1685,5.1685,5.1747,5.197,5.2183,5.2368,5.2492,5.241,5.2058,5.1239,5.0864,5.0488,4.9952,4.963,4.9385,4.9328,4.8695,4.7893,4.7088,4.6601,4.6239,4.5791,4.5403,4.5117,4.9534,4.8945,4.7353,4.6335,4.5803,4.6517,4.684,4.6909,4.7617,4.7957,4.7909,4.7834,4.7817,4.7817,4.7817,0.0,4.8304,4.884,4.9618,5.0635,5.1229,5.2117,5.3269,5.3627,5.3826,5.3826,5.3826,5.3541,5.2893,5.1653,5.101,5.0881,4.8197,4.6849,4.697,4.7991,4.9606,5.1511,5.2841,5.4352,5.6144,5.6796,5.7119,5.7092,5.6549,5.5799,5.4799,5.3476,5.1838,5.0018,4.7289,4.4877,4.2843,0.0,0.0,0.0,0.0,0.0,0.0,0.0,0.0,0.0,0.0,0.0,0.0,0.0,0.0,4.3085,4.5366,0.0,4.6743,4.6795,0.0,0.0,0.0,4.7457,4.7959,4.8801,4.956,5.0174,0.0,0.0,5.2024,5.2452,5.2799,5.2773,5.265,5.2615,5.2615,5.2527,5.2615,5.2615,5.2615,5.265,5.265,5.2711,5.2861,5.3105,5.3193,5.3106,5.2691,5.2262,5.1692,5.0902,5.0444,4.9951,4.9697,4.9556,4.9328,4.8437,4.7971,4.7677,4.7306,4.7144,4.6982,5.1609,5.1393,5.1009,4.9535,4.749,4.7929,4.8138,4.8207,4.8892,4.9165,4.9257,4.9493,4.9579,4.9579,4.9554,4.9646,4.9738,5.0549,5.1092,5.1412,5.2725,5.3529,5.3859,5.4489,5.4756,5.4756,5.4756,5.4576,5.4236,5.3908,5.367,5.3451,5.1953,5.0262,4.8549,4.9651,5.0929,5.2242,5.38,5.5317,5.6861,5.6675,5.6495,5.6495,5.5925,5.5141,5.4235,5.3262,5.2082,5.0705,4.8035,4.6011,4.4626,4.1861,0.0,0.0,0.0,0.0,0.0,0.0,0.0,0.0,0.0,3.9233,4.1074,0.0,4.3741,0.0,4.7033,4.8687,4.9138,4.959,0.0,0.0,4.9854,5.022,4.9894,5.0871,5.1758,5.2384,5.2947,5.3421,5.3828,5.4019,5.4101,5.4101,5.3227,5.2615,5.2615,5.2615,5.2677,5.2922,5.2983,5.3044,5.3349,5.3592,5.3773,5.3833,5.4041,5.3942,5.3221,5.2943,5.2447,5.1207,5.0797,5.0468,5.0005,4.9727,4.9556,4.927,4.8837,4.8431,4.8373,4.78,4.7256,5.2499,5.2283,5.2283,5.1369,4.9914,4.9911,4.9813,4.9782,5.0336,5.0705,5.0911,5.1228,5.1389,5.1433,5.1365,5.1557,5.1805,5.231,5.2748,5.3206,5.4268,5.4808,5.5014,5.5585,5.5726,5.5465,5.5666,5.5484,5.5103,5.5034,5.4937,5.4746,5.393,5.2651,5.11,5.1435,5.2226,5.3335,5.4911,5.6202,5.7119,5.6604,5.6305,5.6278,5.5464,5.4642,5.3862,5.3086,5.2131,5.0746,4.9054,4.7438,4.6032,4.3802,4.2267,0.0,0.0,0.0,0.0,0.0,0.0,0.0,0.0,0.0,0.0,0.0,4.6152,4.764,4.9592,5.0875,5.1227,5.1796,5.2013,5.1688,5.2353,5.2798,5.2716,5.3312,5.3929,5.4534,5.4575,5.4607,5.4939,5.4745,5.4607,5.4607,5.3981,5.347,5.347,5.3498,5.3531,5.374,5.38,5.38,5.4041,5.4221,5.4341,5.4341,5.4488,5.441,5.3901,5.3598,5.3069,5.212,5.1516,5.0996,5.0471,5.0059,4.9783,4.9727,4.9412,4.9068,4.8895,4.8342,4.7843,5.2884,5.2475,5.2475,5.2427,5.2355,5.1947,5.1656,5.143,5.1733,5.2128,5.2615,5.2892,5.3055,5.313,5.313,5.3381,5.3808,5.3808,5.4295,5.5127,5.5504,5.5897,5.6245,5.6591,5.6536,5.604,5.6367,5.6278,5.5776,5.5587,5.5488,5.5526,5.4965,5.4367,5.3859,5.3414,5.3682,5.4634,5.6052,5.6877,5.7174,5.6549,5.6197,5.6142,5.5003,5.4053,5.3341,5.2826,5.1868,5.0443,4.9798,4.8766,4.7333,4.5633,4.4653,0.0,4.2938,0.0,0.0,0.0,0.0,0.0,0.0,0.0,0.0,4.6965,4.8715,5.1238,5.2443,5.3091,5.3257,5.3754,5.4059,5.4086,5.4529,5.5114,5.5612,5.5695,5.595,5.6476,5.6027,5.5751,5.5723,5.5197,5.4837,5.4897,5.4754,5.4639,5.4699,5.458,5.4488,5.4607,5.4607,5.4488,5.4548,5.4607,5.4639,5.4639,5.4699,5.4699,5.4639,5.4197,5.3723,5.3265,5.2407,5.1522,5.1075,5.0528,5.0118,4.998,4.9783,4.9499,4.924,4.8926,4.8721,5.363,5.3534,5.3534,5.3293,5.2982,5.3156,5.2938,5.2572,5.2514,5.2812,5.3418,5.3487,5.3808,5.4235,5.426,5.431,5.4411,5.4482,5.4673,5.5101,5.5478,5.5923,5.6271,5.6617,5.6745,5.6615,5.6577,5.6597,5.6731,5.6527,5.6558,5.6817,5.6222,5.5871,5.5763,0.0,0.0,0.0,5.6692,5.7109,5.7146,5.6142,5.5573,5.5545,5.4406,0.0,5.188,5.1718,5.1098,4.9798,4.901,0.0,0.0,0.0,0.0,0.0,0.0,0.0,0.0,0.0,0.0,0.0,5.0161,5.0051,4.8927,5.0103,5.1809,5.3716,5.4138,5.4667,5.5635,5.5828,5.5911,5.5911,5.6204,5.6526,5.6637,5.6908,5.7085,5.7169,5.7085,5.7029,5.6973,5.6469,5.6076,5.5961,5.5656,5.5348,5.5348,5.4936,5.4607,5.4607,5.4667,5.4607,5.4607,5.4817,5.4936,5.4967,5.5144,5.5203,5.4967,5.4852,5.446,5.3779,5.3155,5.2486,5.1495,5.0996,5.0553,5.0091,4.9953,4.984,4.9556,4.9213,4.8952,5.3822,5.3822,5.3822,5.3678,0.0,5.386,5.401,5.3864,5.3513,5.364,5.4135,5.4135,5.4285,5.4561,5.4561,5.4712,5.4963,5.5177,5.5543,5.5939,5.6508,5.6888,5.7099,5.745,5.7503,5.7216,5.7451,5.7501,5.7437,5.7703,5.7938,5.8069,5.7472,5.7167,5.6995,5.6885,5.6759,5.6739,5.7231,5.7431,5.7404,5.6286,5.566,5.5632,5.4304,0.0,0.0,0.0,0.0,0.0,0.0,0.0,0.0,5.0021,4.9693,5.0189,4.9444,4.9554,5.0906,5.1155,5.185,5.3161,5.4232,5.4176,5.2628,5.3664,5.49,5.6076,5.6336,5.6708,5.7238,5.7636,5.78,5.7645,5.802,5.8216,5.8093,5.8155,5.8278,5.825,5.8025,5.7828,5.7828,5.6985,5.6451,5.6395,5.5889,5.5524,5.5496,5.5261,5.5054,5.5054,5.5054,5.5054,5.5054,5.5172,5.5261,5.5261,5.5379,5.5437,5.5261,5.5261,5.5032,5.4432,5.3979,5.3334,5.2489,5.1686,5.0996,5.0555,5.02,4.998,4.9783,4.9556,4.9297,5.3822,5.3822,5.3822,5.3798,5.3972,5.4347,5.4794,5.5189,5.4491,0.0,0.0,5.4712,5.4762,5.4934,5.4934,5.5257,5.566,5.6045,5.6514,5.6993,5.7641,5.7927,5.7999,5.8355,5.8261,5.7887,5.8451,5.8476,5.805,5.8711,5.8992,5.8964,5.8476,5.8184,5.7989,5.7842,5.7779,5.7704,5.7733,5.7816,5.7725,5.6683,5.6107,5.6135,5.4712,5.3419,5.2357,5.2221,5.1983,5.1667,5.1836,5.2283,5.304,5.2821,5.2992,5.3696,5.2827,5.3108,5.4967,5.4714,5.5026,5.642,5.7308,5.7277,5.6126,5.6755,5.7499,5.8065,5.8332,5.848,5.8653,5.914,5.9362,5.9087,5.948,5.964,5.9329,5.9267,5.9211,5.9149,5.8755,5.8446,5.8418,5.7491,5.6676,5.6535,5.6114,5.558,5.5524,5.5496,5.5437,5.5437,5.5437,5.5496,5.5496,5.5496,5.5496,5.5496,5.5496,5.5496,5.5496,5.5496,5.5379,5.5116,5.4639,5.4041,5.341,5.241,5.1498,5.1105,5.0417,5.001,4.9953,4.984,4.967,5.3822,5.3822,5.3822,5.4047,5.4322,5.4719,5.5337,5.5949,5.5469,5.5193,5.5265,5.529,5.5541,5.5993,5.6356,5.6526,5.6602,5.7061,5.7374,5.7713,5.7856,5.807,5.8452,5.8452,5.847,5.8437,5.8636,5.8689,5.8624,5.89,5.8992,5.8992,5.891,5.9001,5.9221,5.9466,5.9597,5.9587,5.8595,5.8135,5.8135,5.7472,5.7114,5.7058,5.5894,5.4929,5.4212,5.3689,5.3196,5.2674,5.3347,5.3941,5.4371,5.5023,5.5593,5.5994,5.5909,5.6165,5.6936,5.6936,5.7309,5.8318,5.9038,5.9006,5.8021,5.8021,5.8422,5.9022,5.9168,5.9397,5.9822,6.0026,6.0022,5.999,6.0047,6.001,5.9668,5.9606,5.9544,5.9267,5.9149,5.9064,5.8952,5.839,5.7744,5.7294,5.662,5.6086,5.5664,5.5496,5.5496,5.5496,5.5496,5.5496,5.5496,5.5496,5.5496,5.5496,5.5496,5.5496,5.5496,5.5496,5.5437,5.5437,5.5091,5.4633,5.4071,5.3,5.2106,5.1525,5.0696,5.0091,5.0037,4.9953,4.984,5.3822,5.3822,5.3822,5.4023,5.4472,5.5041,5.5632,5.6194,5.5942,5.5842,5.5842,5.606,5.6258,5.6558,5.6946,5.7163,5.7163,5.7523,5.7739,5.7927,5.8141,5.831,5.8523,5.8523,5.8523,5.8497,5.8937,5.9222,5.9264,5.9737,5.9941,6.0009,6.0018,6.0121,6.0265,6.0514,6.0775,6.1016,6.0051,5.9542,5.9514,5.8759,5.832,5.832,5.7149,5.6261,5.5646,5.5367,5.5147,5.5042,5.547,5.6013,5.6558,5.7018,5.7423,5.7742,5.7742,5.8059,5.8868,5.9243,5.9619,6.0056,6.0405,6.0374,5.9906,5.9877,5.9992,6.0281,6.0309,6.0425,6.0713,6.0742,6.0681,6.0499,6.0499,6.0316,6.001,5.9792,5.9668,5.9482,5.9267,5.9205,5.9205,5.8671,5.8221,5.7828,5.7069,5.6311,5.6002,5.5693,5.5496,5.5496,5.5496,5.5496,5.5496,5.5496,5.5496,5.5496,5.5496,5.5496,5.5496,5.5496,5.5496,5.5496,5.5379,5.5119,5.4667,5.3902,5.3003,5.1993,5.1277,5.0726,5.0202,5.001,4.9953,5.3822,5.3822,5.3822,5.4122,5.4645,5.5411,5.5926,5.6219,5.6219,5.6219,5.6292,5.6656,5.6801,5.6874,5.7307,5.7523,5.7595,5.7856,5.7999,5.807,5.8381,5.8523,5.8523,5.8523,5.8523,5.8594,5.9228,5.9578,5.9718,6.0411,6.0851,6.0906,6.1011,6.1098,6.1231,6.1408,6.1734,6.2155,6.1473,6.0924,6.0477,5.9753,5.938,5.9245,5.8231,5.7503,5.7171,5.7002,5.7036,5.73,5.7473,5.7963,5.857,5.886,5.9065,5.9302,5.9302,5.9651,6.038,6.0903,6.1193,6.1193,6.1193,6.1193,6.1193,6.1193,6.1193,6.1193,6.1164,6.1164,6.1193,6.1193,6.1073,6.0831,6.0802,6.0681,6.0377,6.0071,5.9853,5.9702,5.9482,5.9267,5.9149,5.8812,5.8474,5.8165,5.721,5.6479,5.6339,5.5889,5.5524,5.5496,5.5496,5.5496,5.5496,5.5496,5.5496,5.5496,5.5496,5.5496,5.5496,5.5496,5.5496,5.5496,5.5496,5.5379,5.5088,5.4497,5.3735,5.2862,5.1971,5.1058,5.0202,5.001,5.001,5.3822,5.3822,5.3822,5.4272,5.5041,5.5779,5.6146,5.6219,5.6219,5.6219,5.6292,5.6583,5.6801,5.6874,5.7498,5.7856,5.7856,5.8284,5.8426,5.8452,5.8523,5.8523,5.8523,5.8523,5.8523,5.8594,5.9228,5.9578,5.9648,6.0411,6.0961,6.1234,6.1559,6.184,6.2203,6.2547,6.2707,6.283,6.2735,6.1865,6.0265,6.0041,5.9893,5.964,5.9017,5.8803,5.8962,5.8449,5.8135,5.8222,5.9063,5.9587,5.9702,6.0432,6.093,6.093,6.093,6.1048,6.1106,6.1164,6.1193,6.1193,6.1193,6.1193,6.1193,6.1193,6.1193,6.1193,6.1193,6.1193,6.1193,6.1193,6.1193,6.1133,6.1133,6.1013,6.0742,6.0621,6.0377,5.9792,5.973,5.9544,5.9267,5.9121,5.8896,5.8446,5.7407,5.6592,5.6479,5.6002,5.5552,5.5524,5.5496,5.5496,5.5496,5.5496,5.5496,5.5496,5.5496,5.5496,5.5496,5.5496,5.5496,5.5496,5.5496,5.5437,5.5267,5.4728,5.4162,5.3597,5.2504,5.1113,5.0313,5.001,5.001,5.3822,5.3822,5.3822,5.4272,5.5016,5.5852,5.6219,5.6219,5.6219,5.6219,5.6292,5.6656,5.6946,5.7163,5.7641,5.7999,5.8212,5.8426,5.8523,5.8523,5.8523,5.8523,5.8523,5.8523,5.8523,5.8594,5.9228,5.9578,5.9718,6.0411,6.092,6.1029,6.1546,6.1884,6.2086,6.2582,6.2914,6.2914,6.2914,6.2212,6.0891,6.0857,6.08,6.0517,6.0165,6.0065,6.0367,6.0168,6.0023,6.0052,6.0432,6.0607,6.0636,6.0988,6.1193,6.1193,6.1193,6.1193,6.1193,6.1193,6.1193,6.1193,6.1193,6.1193,6.1193,6.1193,6.1193,6.1193,6.1193,6.1193,6.1193,6.1193,6.1193,6.1193,6.1193,6.1133,6.1013,6.0831,6.056,6.0316,6.0132,5.9887,5.9516,5.9329,5.9121,5.8783,5.8025,5.7407,5.7041,5.6451,5.5917,5.5608,5.5496,5.5496,5.5496,5.5496,5.5496,5.5496,5.5496,5.5496,5.5496,5.5496,5.5496,5.5496,5.5496,5.5496,5.5496,5.5211,5.4814,5.4134,5.2757,5.1252,5.0892,5.0367,5.0064,5.3822,5.3822,5.4047,5.4421,5.5041,5.5852,5.6219,5.6219,5.6219,5.6219,5.6219,5.651,5.6874,5.7235,5.7713,5.807,5.831,5.8452,5.8523,5.8523,5.8523,5.8523,5.8523,5.8523,5.8523,5.8594,5.9228,5.9718,5.9927,6.048,6.0851,6.1029,6.1546,6.1856,6.2018,6.2582,6.2914,6.2914,6.2914,6.2352,6.1256,6.1316,6.1175,6.0784,6.0635,6.0742,6.1073,6.1133,6.1193,6.1193,6.1193,6.1193,6.1193,6.1193,6.1193,6.1193,6.1193,6.1193,6.1193,6.1193,6.1193,6.1193,6.1193,6.1193,6.1193,6.1193,6.1193,6.1193,6.1193,6.1193,6.1193,6.1193,6.1193,6.1193,6.1193,6.1193,6.1193,6.0952,6.0831,6.0681,6.0438,6.0194,5.9792,5.9482,5.9329,5.9121,5.8643,5.8081,5.7463,5.6816,5.6198,5.5636,5.5496,5.5496,5.5496,5.5496,5.5496,5.5496,5.5496,5.5496,5.5496,5.5496,5.5496,5.5496,5.5496,5.5496,5.5496,5.5381,5.5182,5.419,5.3065,5.1948,5.1534,5.0867,5.0424,5.3822,5.3897,5.457,5.4967,5.5041,5.5852,5.6219,5.6219,5.6219,5.6219,5.6219,5.6219,5.6412,5.6874,5.7498,5.7927,5.7999,5.8284,5.8523,5.8523,5.8523,5.8523,5.8523,5.8523,5.8523,5.8594,5.9228,5.9996,6.0618,6.0782,6.0961,6.1261,6.1614,6.2018,6.2315,6.2715,6.2914,6.2914,6.2914,6.2324,6.1256,6.1088,6.0717,5.9928,6.0071,6.0438,6.0742,6.1013,6.1193,6.1193,6.1193,6.1193,6.1193,6.1193,6.1193,6.1193,6.1193,6.1193,6.1193,6.1193,6.1193,6.1193,6.1193,6.1193,6.1193,6.1193,6.1193,6.1193,6.1193,6.1193,6.1193,6.1193,6.1193,6.1193,6.1193,6.1193,6.1193,6.1193,6.1013,6.0802,6.0681,6.0377,5.9853,5.973,5.9544,5.9245,5.8699,5.8137,5.7547,5.6873,5.6283,5.5777,5.5552,5.5496,5.5496,5.5496,5.5496,5.5496,5.5496,5.5496,5.5496,5.5496,5.5496,5.5496,5.5496,5.5496,5.5496,5.5353,5.5098,5.4502,5.4134,5.3292,5.2398,5.1699,5.1172,5.3822,5.3897,5.4669,5.4967,5.5115,5.5852,5.6219,5.6219,5.6219,5.6219,5.6219,5.6219,5.6292,5.6438,5.6946,5.7426,5.7856,5.807,5.8212,5.8452,5.8523,5.8523,5.8523,5.8523,5.8523,5.8594,5.9228,5.9996,6.0687,6.0755,6.0851,6.1029,6.1546,6.1884,6.2086,6.2582,6.2914,6.2914,6.2914,6.2352,6.1228,6.1088,6.0561,5.9504,5.9887,6.0377,6.0681,6.1013,6.1193,6.1193,6.1193,6.1193,6.1193,6.1193,6.1193,6.1193,6.1193,6.1193,6.1193,6.1193,6.1193,6.1193,6.1193,6.1193,6.1193,6.1193,6.1193,6.1193,6.1193,6.1193,6.1193,6.1193,6.1193,6.1193,6.1193,6.1193,6.1193,6.1193,6.1133,6.1013,6.0892,6.056,6.0316,6.0132,5.9887,5.9578,5.9346,5.8861,5.8114,5.7435,5.6788,5.6198,5.5749,5.5496,5.5496,5.5496,5.5496,5.5496,5.5496,5.5496,5.5496,5.5496,5.5496,5.5496,5.5496,5.5496,5.5496,5.5496,5.5182,5.5126,5.4672,5.4107,5.3377,5.2593,5.1897,5.3822,5.3897,5.4496,5.4892,5.5041,5.5681,5.6072,5.6219,5.6219,5.6219,5.6219,5.6219,5.6219,5.6219,5.651,5.6946,5.7569,5.7784,5.807,5.831,5.8426,5.8523,5.8523,5.8523,5.8523,5.8594,5.9228,5.9996,6.0687,6.0755,6.0755,6.0824,6.1478,6.1789,6.1951,6.2515,6.2914,6.2914,6.2914,6.2324,6.1256,6.1088,6.0497,5.9492,5.9763,6.0194,6.0499,6.0892,6.1073,6.1193,6.1193,6.1193,6.1193,6.1193,6.1193,6.1193,6.1193,6.1193,6.1193,6.1193,6.1193,6.1193,6.1193,6.1193,6.1193,6.1193,6.1193,6.1193,6.1193,6.1193,6.1193,6.1193,6.1193,6.1193,6.1193,6.1193,6.1193,6.1193,6.1193,6.1133,6.1013,6.0831,6.0681,6.0499,6.0194,5.9887,5.9853,5.9447,5.8636,5.7954,5.7274,5.6507,5.5861,5.558,5.5496,5.5496,5.5496,5.5496,5.5496,5.5496,5.5496,5.5496,5.5496,5.5496,5.5496,5.5496,5.5496,5.5496,5.5496,5.5468,5.5182,5.4674,5.3997,5.3351,5.2764,5.3822,5.3897,5.4248,5.4645,5.5041,5.5485,5.5852,5.6146,5.6219,5.6219,5.6219,5.6219,5.6219,5.6219,5.6292,5.6438,5.6946,5.7498,5.7856,5.7999,5.831,5.8523,5.8523,5.8523,5.8594,5.8638,5.9272,5.9969,6.0755,6.0755,6.0755,6.0892,6.1411,6.1721,6.1789,6.2515,6.2876,6.2876,6.2914,6.2324,6.1256,6.1088,6.0497,5.9373,5.9516,5.9825,6.0194,6.056,6.0863,6.1133,6.1193,6.1193,6.1193,6.1193,6.1193,6.1193,6.1193,6.1193,6.1193,6.1193,6.1193,6.1193,6.1193,6.1193,6.1193,6.1193,6.1193,6.1193,6.1193,6.1193,6.1193,6.1193,6.1193,6.1193,6.1193,6.1193,6.1193,6.1193,6.1193,6.1193,6.1133,6.1073,6.0802,6.0681,6.056,6.0316,6.0165,5.99,5.9026,5.8253,5.7426,5.6683,5.5973,5.5524,5.5496,5.5496,5.5496,5.5496,5.5496,5.5496,5.5496,5.5496,5.5496,5.5496,5.5496,5.5496,5.5496,5.5496,5.5496,5.5468,5.5269,5.5185,5.4676,5.4055,5.3718,5.3822,5.3822,5.4248,5.4645,5.5041,5.5411,5.5852,5.6219,5.6219,5.6219,5.6219,5.6219,5.6219,5.6219,5.6219,5.6292,5.6438,5.7163,5.7641,5.7927,5.831,5.8523,5.8523,5.8523,5.8806,5.9149,5.9083,5.969,6.0632,6.0755,6.0755,6.0892,6.1234,6.1546,6.1816,6.2287,6.2676,6.2848,6.2914,6.2324,6.1228,6.1088,6.0497,5.9373,5.9267,5.9516,5.9825,6.0377,6.0742,6.0892,6.1073,6.1193,6.1193,6.1193,6.1193,6.1193,6.1193,6.1193,6.1193,6.1193,6.1193,6.1193,6.1193,6.1193,6.1193,6.1193,6.1193,6.1193,6.1193,6.1193,6.1193,6.1193,6.1193,6.1193,6.1193,6.1193,6.1193,6.1193,6.1193,6.1193,6.1193,6.1133,6.1073,6.1013,6.0892,6.0621,6.056,6.0295,5.9761,5.8576,5.7831,5.7341,5.6432,5.5524,5.5496,5.5496,5.5496,5.5496,5.5496,5.5496,5.5496,5.5496,5.5496,5.5496,5.5496,5.5496,5.5496,5.5496,5.5496,5.5496,5.544,5.5327,5.5215,5.4818,5.4424,5.3822,5.3822,5.4047,5.4496,5.4967,5.5263,5.5705,5.6146,5.6219,5.6219,5.6219,5.6219,5.6219,5.6219,5.6219,5.6219,5.6292,5.7019,5.7523,5.7784,5.831,5.8523,5.847,5.8261,5.8534,5.9057,5.8716,5.918,6.043,6.0457,6.0607,6.0797,6.1098,6.1506,6.1789,6.2153,6.2582,6.2848,6.2914,6.2324,6.1369,6.1088,6.0497,5.943,5.9205,5.9267,5.9544,6.0038,6.0467,6.071,6.1013,6.1193,6.1193,6.1193,6.1193,6.1193,6.1193,6.1193,6.1193,6.1193,6.1193,6.1193,6.1193,6.1193,6.1193,6.1193,6.1193,6.1193,6.1193,6.1193,6.1193,6.1193,6.1193,6.1193,6.1193,6.1193,6.1193,6.1193,6.1193,6.1193,6.1193,6.1193,6.1193,6.1193,6.1133,6.0923,6.0863,6.0742,6.018,5.8991,5.8355,5.7548,5.6432,5.5807,5.5524,5.5496,5.5496,5.5496,5.5496,5.5496,5.5496,5.5496,5.5496,5.5496,5.5496,5.5496,5.5496,5.5496,5.5496,5.5496,5.5496,5.544,5.5327,5.5243,5.4904,5.3822,5.3822,5.3822,5.4272,5.4942,5.4992,5.5385,5.607,5.6118,5.6118,5.6118,5.6194,5.6219,5.6219,5.6219,5.6219,5.6365,5.6946,5.7379,5.7595,5.8096,5.8452,5.8444,5.7921,5.8078,5.8578,5.8156,5.8644,5.9968,5.9996,6.0185,6.077,6.1098,6.1438,6.1749,6.218,6.2381,6.2648,6.2781,6.2192,6.1043,6.1023,6.0434,5.9227,5.9142,5.9205,5.9267,5.9606,6.0071,6.0621,6.0923,6.1073,6.1133,6.1193,6.1133,6.1193,6.1193,6.1193,6.1193,6.1193,6.1193,6.1193,6.1193,6.1193,6.1193,6.1193,6.1193,6.1193,6.1193,6.1193,6.1193,6.1193,6.1193,6.1193,6.1193,6.1193,6.1193,6.1193,6.1193,6.1193,6.1193,6.1193,6.1193,6.1193,6.1193,6.1133,6.1133,6.1013,6.0511,5.9491,5.836,5.7468,5.6522,5.5836,5.5496,5.5496,5.5496,5.5496,5.5496,5.5496,5.5496,5.5496,5.5496,5.5496,5.5496,5.5496,5.5496,5.5496,5.5496,5.5496,5.5496,5.5496,5.544,5.5355,5.5299,5.3822,5.3822,5.3822,5.4272,5.4893,5.4647,5.489,5.5544,5.5616,5.5641,5.5691,5.6043,5.6219,5.6219,5.6219,5.6219,5.6365,5.6729,5.7163,5.7451,5.7856,5.8212,5.8217,5.7503,5.7657,5.8392,5.773,5.8161,5.9833,5.9833,6.0158,6.0755,6.0892,6.1098,6.1438,6.1574,6.1777,6.2018,6.2086,6.1503,6.0542,6.0543,6.0058,5.8969,5.9017,5.9142,5.9205,5.9544,5.9887,6.0255,6.0438,6.056,6.0802,6.0802,6.0952,6.1133,6.1193,6.1193,6.1193,6.1193,6.1193,6.1193,6.1193,6.1193,6.1193,6.1193,6.1193,6.1193,6.1193,6.1193,6.1193,6.1193,6.1193,6.1193,6.1193,6.1193,6.1193,6.1193,6.1193,6.1193,6.1193,6.1193,6.1193,6.1193,6.1193,6.1193,6.1193,6.1164,6.0692,5.9525,5.828,5.7672,5.6868,5.6037,5.5496,5.5496,5.5496,5.5496,5.5496,5.5496,5.5496,5.5496,5.5496,5.5496,5.5496,5.5496,5.5496,5.5496,5.5496,5.5496,5.5496,5.5496,5.5496,5.544,5.544,5.3672,5.3822,5.3822,5.4272,5.4893,5.4451,5.4667,5.5318,5.539,5.539,5.5516,5.5968,5.6219,5.6219,5.6219,5.6219,5.6292,5.6656,5.7019,5.7451,5.7953,5.831,5.8165,5.7373,5.7325,5.8115,5.7197,5.7785,5.925,5.9507,5.9968,6.062,6.0755,6.0988,6.1329,6.1329,6.1438,6.1749,6.1761,6.1209,6.0104,6.0189,5.9718,5.8954,5.8892,5.9045,5.9205,5.9392,5.9702,6.0071,6.0255,6.0316,6.0499,6.0621,6.0802,6.1013,6.1133,6.1193,6.1193,6.1193,6.1193,6.1193,6.1193,6.1193,6.1193,6.1193,6.1193,6.1193,6.1193,6.1193,6.1193,6.1193,6.1193,6.1193,6.1193,6.1193,6.1193,6.1193,6.1193,6.1193,6.1193,6.1193,6.1193,6.1193,6.1193,6.1193,6.1193,6.1193,6.0988,5.95,5.8369,5.7904,5.7071,5.6126,5.561,5.5524,5.5496,5.5496,5.5496,5.5496,5.5496,5.5496,5.5496,5.5496,5.5496,5.5496,5.5496,5.5496,5.5496,5.5496,5.5496,5.5496,5.5496,5.5496,5.5496,5.337,5.3747,5.3747,5.4248,5.477,5.4377,5.4468,5.5117,5.5214,5.5265,5.539,5.5942,5.6194,5.6219,5.6219,5.6219,5.6219,5.651,5.6946,5.7451,5.8025,5.8381,5.8366,5.7346,5.7262,5.7621,5.6691,5.7275,5.856,5.8964,5.9616,6.0403,6.0674,6.0961,6.1098,6.1261,6.1438,6.1546,6.1614,6.0914,6.0045,5.9835,5.9451,5.8772,5.8829,5.8955,5.9142,5.9267,5.9454,6.0071,6.0132,6.0043,6.0132,6.0438,6.0621,6.0742,6.0952,6.1133,6.1193,6.1193,6.1193,6.1193,6.1193,6.1193,6.1193,6.1193,6.1193,6.1193,6.1193,6.1193,6.1193,6.1193,6.1193,6.1193,6.1193,6.1193,6.1193,6.1193,6.1193,6.1193,6.1193,6.1193,6.1193,6.1193,6.1193,6.1193,6.1193,6.1193,6.093,5.9908,5.9035,5.848,5.7385,5.6128,5.5812,5.558,5.5524,5.5496,5.5496,5.5496,5.5496,5.5496,5.5496,5.5496,5.5496,5.5496,5.5496,5.5496,5.5496,5.5496,5.5496,5.5496,5.5496,5.5496,5.5496,5.3243,5.3394,5.3672,5.4029,5.4279,5.3836,5.3775,5.4135,5.4561,5.4762,5.4963,5.5767,5.6168,5.6219,5.6219,5.6219,5.6219,5.6365,5.6729,5.7379,5.7784,5.8212,5.8191,5.7346,5.7236,5.7394,5.6598,5.6954,5.8073,5.8829,5.9344,6.0023,6.0634,6.0824,6.0892,6.0961,6.0892,6.1029,6.1002,6.047,5.9542,5.944,5.9154,5.8463,5.8767,5.908,5.9142,5.9205,5.9267,5.9392,5.9454,5.9578,5.9763,5.9887,6.0132,6.056,6.0742,6.0952,6.1133,6.1193,6.1193,6.1193,6.1193,6.1193,6.1193,6.1193,6.1193,6.1193,6.1193,6.1193,6.1193,6.1193,6.1193,6.1193,6.1193,6.1193,6.1193,6.1193,6.1193,6.1193,6.1193,6.1193,6.1193,6.1193,6.1193,6.1193,6.1193,6.1193,6.0725,6.0171,5.9616,5.9002,5.7874,5.667,5.6152,5.5807,5.5524,5.5496,5.5496,5.5496,5.5496,5.5496,5.5496,5.5496,5.5496,5.5496,5.5496,5.5496,5.5496,5.5496,5.5496,5.5496,5.5496,5.5496,5.5496,5.2992,5.3195,5.3432,5.3763,5.4058,5.3394,5.3304,5.3713,5.4009,5.431,5.4712,5.5465,5.5942,5.6194,5.6219,5.6219,5.6292,5.6438,5.6801,5.7379,5.781,5.8141,5.8191,5.7451,5.7046,5.7365,5.6598,5.6834,5.774,5.8627,5.929,5.9887,6.0552,6.0797,6.0755,6.0755,6.0824,6.0742,6.0457,5.9914,5.9194,5.8864,5.8701,5.8391,5.8704,5.9017,5.9205,5.9205,5.9205,5.9205,5.9205,5.9267,5.9482,5.9606,5.9915,6.0161,6.056,6.0742,6.0952,6.1133,6.1193,6.1193,6.1193,6.1193,6.1193,6.1193,6.1193,6.1193,6.1193,6.1193,6.1193,6.1193,6.1193,6.1193,6.1193,6.1193,6.1193,6.1193,6.1193,6.1193,6.1193,6.1193,6.1193,6.1193,6.1193,6.1193,6.1193,6.1164,6.1019,6.0493,6.0025,5.9324,5.8308,5.7414,5.6694,5.6091,5.5552,5.5496,5.5496,5.5496,5.5496,5.5496,5.5496,5.5496,5.5496,5.5496,5.5496,5.5496,5.5496,5.5496,5.5496,5.5496,5.5496,5.5496,5.5496,5.2717,5.3001,5.3096,5.3423,5.3691,5.2954,5.2911,5.3443,5.3783,5.4185,5.4637,5.5214,5.5892,5.6143,5.6219,5.6219,5.6292,5.651,5.6801,5.7235,5.7595,5.7927,5.8023,5.7381,5.6935,5.7119,5.6465,5.6676,5.7408,5.844,5.9209,5.9778,6.0457,6.0728,6.0755,6.0755,6.0755,6.0701,6.024,5.967,5.9019,5.8515,5.8215,5.8145,5.8515,5.8829,5.9017,5.9142,5.9205,5.9205,5.9205,5.9205,5.9267,5.942,5.9668,5.973,6.0194,6.0499,6.0771,6.0952,6.1133,6.1193,6.1193,6.1193,6.1193,6.1193,6.1193,6.1193,6.1193,6.1193,6.1193,6.1193,6.1193,6.1193,6.1193,6.1193,6.1193,6.1193,6.1193,6.1193,6.1193,6.1193,6.1193,6.1193,6.1193,6.1193,6.1193,6.1135,6.099,6.0814,6.0374,5.9994,5.909,5.8073,5.7262,5.6739,5.617,5.5917,5.5833,5.5693,5.5664,5.5552,5.5552,5.5496,5.5496,5.5496,5.5496,5.5496,5.5496,5.5496,5.5496,5.5496,5.5496,5.5496,5.5496,5.2353,5.2104,5.2804,5.2841,5.2402,5.2539,5.2618,5.2839,5.3889,5.4461,5.4687,5.5591,5.5993,5.6194,5.6219,5.6219,5.6219,5.6365,5.6583,5.6946,5.7307,5.7739,5.7862,5.7233,5.685,5.6689,5.6318,5.637,5.7019,5.8196,5.8979,5.9371,6.024,6.0755,6.0755,6.0755,6.0755,6.0674,6.0131,5.9507,5.8992,5.8379,5.7939,5.7871,5.8325,5.8641,5.8829,5.9017,5.9205,5.9205,5.9205,5.9205,5.9205,5.9267,5.9392,5.9668,5.9853,6.0161,6.056,6.0742,6.0952,6.1133,6.1193,6.1193,6.1193,6.1193,6.1193,6.1193,6.1193,6.1193,6.1193,6.1193,6.1193,6.1193,6.1193,6.1193,6.1193,6.1193,6.1193,6.1193,6.1193,6.1193,6.1193,6.1193,6.1193,6.1193,6.1193,6.1193,6.1106,6.1017,6.0899,6.0458,5.999,5.888,5.7863,5.7479,5.6985,5.6732,5.6535,5.617,5.603,5.5693,5.558,5.5641,5.5554,5.5496,5.5496,5.5496,5.5496,5.5496,5.5496,5.5496,5.5496,5.5496,5.5496,5.2079,5.1812,5.2223,5.2187,5.2038,5.2171,5.2276,5.2521,5.3368,5.4059,5.4587,5.5139,5.5717,5.6068,5.6219,5.6219,5.6219,5.6219,5.6438,5.6801,5.7235,5.7595,5.7798,5.7138,5.6859,5.6621,5.6237,5.5961,5.6331,5.7865,5.8577,5.9035,6.009,6.0755,6.0755,6.0755,6.0755,6.0593,5.9914,5.929,5.891,5.8123,5.7666,5.7798,5.8007,5.8325,5.8704,5.8829,5.9017,5.9142,5.9205,5.9205,5.9205,5.9205,5.9267,5.9392,5.9606,5.9887,6.0377,6.056,6.0892,6.1133,6.1193,6.1193,6.1193,6.1193,6.1193,6.1193,6.1193,6.1193,6.1193,6.1193,6.1193,6.1193,6.1193,6.1193,6.1193,6.1193,6.1193,6.1193,6.1193,6.1193,6.1193,6.1193,6.1193,6.1193,6.1193,6.1193,6.1193,6.1133,6.1073,6.075,6.0281,5.9426,5.8462,5.7987,5.7688,5.7491,5.7041,5.6676,5.6342,5.5976,5.584,5.5816,5.5729,5.5613,5.5496,5.5496,5.5496,5.5496,5.5496,5.5496,5.5496,5.5496,5.5496,5.188,5.1648,5.1595,5.1633,5.1701,5.1782,5.196,5.2332,5.2873,5.3708,5.4511,5.4762,5.5365,5.5993,5.6219,5.6219,5.6219,5.6219,5.6365,5.6656,5.7163,5.7595,5.7572,5.7302,5.6954,5.6709,5.6127,5.5722,5.6226,5.7518,5.8241,5.886,5.9994,6.0687,6.0618,6.0755,6.0728,6.0267,5.9616,5.8992,5.8422,5.7809,5.7303,5.7624,5.7688,5.8007,5.8388,5.8641,5.8829,5.9017,5.9142,5.9205,5.9205,5.9205,5.9205,5.9267,5.9482,5.9763,6.0071,6.0377,6.0681,6.1013,6.1133,6.1193,6.1193,6.1193,6.1193,6.1193,6.1193,6.1193,6.1193,6.1193,6.1193,6.1193,6.1193,6.1193,6.1193,6.1193,6.1193,6.1193,6.1193,6.1193,6.1193,6.1193,6.1193,6.1193,6.1193,6.1193,6.1193,6.1193,6.1104,6.0897,6.0393,5.974,5.9002,5.8527,5.8283,5.8165,5.7519,5.6901,5.6598,5.6293,5.6156,5.599,5.5961,5.5903,5.5729,5.5554,5.5613,5.5613,5.5554,5.5496,5.5496,5.5496,5.5496,5.167,5.1154,5.155,5.1393,5.1006,5.1495,5.182,5.2009,5.3009,5.3959,5.4612,5.5039,5.5566,5.6093,5.6219,5.6219,5.6219,5.6219,5.6292,5.6438,5.7019,5.7451,5.7518,5.7614,5.7268,5.6876,5.6238,5.6127,5.6501,5.7462,5.8224,5.8773,5.9583,6.0273,6.0342,6.0441,6.0484,5.9968,5.9317,5.8476,5.7635,5.7282,5.7265,5.7303,5.7496,5.7752,5.7944,5.8325,5.8641,5.8767,5.9017,5.9142,5.9205,5.9205,5.9205,5.9205,5.9267,5.9392,5.9763,6.0071,6.0438,6.0771,6.1013,6.1133,6.1193,6.1193,6.1193,6.1193,6.1193,6.1193,6.1193,6.1193,6.1193,6.1193,6.1193,6.1193,6.1193,6.1193,6.1193,6.1193,6.1193,6.1193,6.1193,6.1193,6.1193,6.1193,6.1193,6.1193,6.1193,6.1193,6.1193,6.0986,6.0566,5.9969,5.955,5.9012,5.8738,5.8699,5.7997,5.721,5.6968,5.6694,5.6245,5.6134,5.6163,5.6193,5.6077,5.5961,5.5787,5.5671,5.5671,5.5554,5.5496,5.5496,5.5496,5.142,5.106,5.1208,5.1055,5.0744,5.1236,5.1586,5.1939,5.2601,5.3618,5.4486,5.4787,5.539,5.6068,5.6219,5.6219,5.6219,5.6219,5.6219,5.6365,5.6946,5.7379,5.7466,5.7596,5.7451,5.719,5.6745,5.6526,5.6878,5.7282,5.791,5.8467,5.9275,5.9857,5.9793,5.9923,5.9791,5.94,5.8831,5.8042,5.7418,5.7174,5.7174,5.7174,5.7367,5.7496,5.7752,5.7944,5.8325,5.8578,5.8829,5.9017,5.9142,5.9205,5.9205,5.9205,5.9205,5.9392,5.9668,5.9825,6.0194,6.056,6.0892,6.0952,6.1133,6.1193,6.1193,6.1193,6.1193,6.1193,6.1193,6.1193,6.1193,6.1193,6.1193,6.1193,6.1193,6.1193,6.1193,6.1193,6.1193,6.1193,6.1193,6.1193,6.1193,6.1193,6.1193,6.1193,6.1193,6.1193,6.1193,6.1164,6.0713,6.0169,5.9834,5.9442,5.9076,5.8896,5.8418,5.7776,5.751,5.718,5.6676,5.6537,5.6766,5.668,5.6537,5.6308,5.6135,5.5961,5.5787,5.5729,5.5671,5.5496,5.5496,5.1007,5.0674,5.0939,5.0837,5.0578,5.1025,5.1446,5.182,5.2238,5.3278,5.4365,5.4888,5.5516,5.6043,5.6219,5.6219,5.6219,5.6219,5.6219,5.651,5.6946,5.7379,5.7492,5.7629,5.7817,5.773,5.7242,5.6928,5.6866,5.7151,5.7499,5.8025,5.853,5.9014,5.9153,5.9055,5.8831,5.8509,5.785,5.7308,5.6931,5.6979,5.7044,5.7044,5.7174,5.7303,5.756,5.7688,5.8071,5.8262,5.8641,5.8829,5.9017,5.9142,5.9205,5.9205,5.9205,5.9267,5.9544,5.9702,6.001,6.0377,6.0802,6.1013,6.1133,6.1193,6.1193,6.1193,6.1193,6.1193,6.1193,6.1193,6.1193,6.1193,6.1193,6.1193,6.1193,6.1193,6.1193,6.1193,6.1193,6.1193,6.1193,6.1193,6.1193,6.1193,6.1193,6.1193,6.1193,6.1193,6.1193,6.1193,6.0802,6.0377,6.0194,5.9887,5.9516,5.9189,5.871,5.8208,5.7828,5.7446,5.6938,5.7024,5.7163,5.7078,5.6851,5.668,5.648,5.625,5.6077,5.5961,5.5845,5.5729,5.5613,5.0302,4.9866,5.0651,5.0691,5.0246,5.086,5.1446,5.182,5.2213,5.3208,5.4637,5.5541,5.6018,5.6194,5.6219,5.6219,5.6219,5.6219,5.6219,5.651,5.6946,5.7307,5.7615,5.794,5.8157,5.7791,5.7503,5.7216,5.6876,5.6762,5.7223,5.7695,5.7805,5.7926,5.8064,5.81,5.7717,5.7438,5.6863,5.6622,5.6527,5.6658,5.6881,5.6931,5.7098,5.7174,5.7238,5.7496,5.7752,5.788,5.8388,5.8704,5.8829,5.908,5.9142,5.9205,5.9205,5.9267,5.9329,5.9544,5.9825,6.0255,6.0681,6.1073,6.1193,6.1193,6.1193,6.1193,6.1193,6.1193,6.1193,6.1193,6.1193,6.1193,6.1193,6.1193,6.1193,6.1193,6.1193,6.1193,6.1193,6.1193,6.1193,6.1193,6.1193,6.1193,6.1193,6.1193,6.1193,6.1193,6.1193,6.1133,6.0892,6.0621,6.056,6.0255,5.9825,5.9442,5.9045,5.8512,5.7948,5.7594,5.7427,5.7109,5.7191,5.7191,5.7247,5.6964,5.6766,5.6537,5.6365,5.6222,5.6193,5.6019,5.5961,5.0106,4.943,5.0226,5.0408,5.0104,5.0672,5.1236,5.1751,5.196,5.2973,5.4637,5.5691,5.6219,5.6219,5.6219,5.6219,5.6219,5.6219,5.6219,5.651,5.6946,5.7307,5.7667,5.7999,5.8392,5.8104,5.7843,5.7373,5.685,5.651,5.6353,5.6578,5.6846,5.7135,5.7246,5.7203,5.6823,5.6678,5.6611,5.6664,5.6784,5.737,5.7596,5.7219,5.7613,5.7499,5.732,5.733,5.7496,5.7752,5.8135,5.8388,5.8704,5.8955,5.9142,5.9205,5.9205,5.9205,5.9233,5.9358,5.964,6.0165,6.0621,6.1013,6.1133,6.1193,6.1193,6.1193,6.1193,6.1193,6.1193,6.1193,6.1193,6.1193,6.1193,6.1193,6.1193,6.1193,6.1193,6.1193,6.1193,6.1193,6.1193,6.1193,6.1193,6.1193,6.1193,6.1193,6.1193,6.1193,6.1193,6.1193,6.0952,6.0831,6.0742,6.0377,6.001,5.9753,5.9469,5.8988,5.8506,5.8398,5.8204,5.7685,5.7278,5.7421,5.7421,5.7249,5.705,5.6823,5.6652,5.6566,5.648,5.6365,5.6308,4.9663,4.9002,4.9637,4.9957,4.9985,5.0483,5.1119,5.1751,5.182,5.2833,5.4637,5.5691,5.6219,5.6219,5.6219,5.6219,5.6219,5.6219,5.6219,5.651,5.6946,5.7307,5.7667,5.8025,5.8497,5.8392,5.7948,5.7373,5.6798,5.6196,5.5909,5.5909,5.6066,5.6275,5.65,5.6416,5.6237,5.6213,5.657,5.6915,5.7062,5.7705,5.8067,5.7651,5.7887,5.7879,5.7526,5.7428,5.7303,5.756,5.788,5.8198,5.8515,5.8829,5.908,5.9142,5.9205,5.9205,5.9233,5.9358,5.9578,6.0132,6.0499,6.0863,6.1073,6.1193,6.1193,6.1193,6.1193,6.1193,6.1193,6.1193,6.1193,6.1193,6.1193,6.1193,6.1193,6.1193,6.1193,6.1193,6.1193,6.1193,6.1193,6.1193,6.1193,6.1193,6.1193,6.1193,6.1193,6.1193,6.1193,6.1133,6.1073,6.0952,6.0892,6.056,6.0377,6.0234,5.9919,5.9578,5.9178,5.9097,5.8725,5.8089,5.7769,5.7768,5.7855,5.7943,5.7568,5.7079,5.7022,5.6908,5.6851,5.6766,5.6595,4.8882,4.8496,4.8882,4.9292,4.9652,5.0341,5.1119,5.1775,5.2013,5.3002,5.4662,5.5717,5.6219,5.6219,5.6219,5.6219,5.6219,5.6219,5.6219,5.6438,5.7019,5.7307,5.7667,5.8096,5.8523,5.8366,5.7843,5.7242,5.6798,5.6066,5.5621,5.536,5.5491,5.5674,5.5909,5.5935,5.5909,5.6055,5.6552,5.6856,5.7099,5.7777,5.8035,5.8012,5.8078,5.8019,5.7852,5.7391,5.7265,5.7367,5.7624,5.7944,5.8198,5.8578,5.8892,5.908,5.9142,5.9205,5.9205,5.9482,5.9763,6.0132,6.0499,6.0742,6.1044,6.1193,6.1193,6.1193,6.1193,6.1193,6.1193,6.1193,6.1193,6.1193,6.1193,6.1193,6.1193,6.1193,6.1193,6.1193,6.1193,6.1193,6.1193,6.1193,6.1193,6.1193,6.1193,6.1193,6.1193,6.1193,6.1193,6.1193,6.1133,6.1073,6.1013,6.0802,6.0652,6.0508,6.0336,6.005,5.9764,5.9535,5.9074,5.8493,5.8406,5.8493,5.8639,5.8784,5.8262,5.7712,5.7306,5.7191,5.7134,5.7107,5.6936,4.8837,4.8473,4.8835,4.9173,4.958,5.0033,5.0884,5.1943,5.3052,5.4023,5.4737,5.5717,5.6194,5.6219,5.6219,5.6219,5.6219,5.6219,5.6219,5.6292,5.7019,5.7307,5.7595,5.8096,5.8523,5.8235,5.766,5.7085,5.6798,5.5909,5.5386,5.5151,5.5491,5.5726,5.5883,5.5961,5.604,5.6536,5.7033,5.7442,5.7494,5.8174,5.8615,5.8449,5.8429,5.8305,5.8123,5.7581,5.7282,5.7265,5.7496,5.7752,5.8007,5.8325,5.8704,5.8892,5.9017,5.9205,5.9205,5.9329,5.964,5.9981,6.0287,6.0621,6.1073,6.1193,6.1193,6.1193,6.1193,6.1193,6.1193,6.1193,6.1193,6.1193,6.1193,6.1193,6.1193,6.1193,6.1193,6.1193,6.1193,6.1193,6.1193,6.1193,6.1193,6.1193,6.1193,6.1193,6.1193,6.1193,6.1193,6.1193,6.1193,6.1193,6.1133,6.0984,6.0923,6.0865,6.0781,6.0638,6.035,6.0031,5.9567,5.9103,5.9161,5.9248,5.9335,5.9277,5.8784,5.8319,5.7884,5.7448,5.7247,5.7191,5.7191,4.8676,4.84,4.8691,4.9101,4.9509,4.9961,5.0742,5.1968,5.3508,5.4361,5.4737,5.5541,5.6043,5.6143,5.6219,5.6219,5.6219,5.6219,5.6219,5.6365,5.7019,5.7307,5.7595,5.8096,5.8452,5.8183,5.7477,5.6798,5.6745,5.5647,5.5308,5.5517,5.5935,5.6353,5.651,5.6693,5.6745,5.7216,5.7608,5.8088,5.8333,5.8841,5.9269,5.9189,5.9048,5.8845,5.8356,5.7879,5.7391,5.7347,5.7367,5.7624,5.7816,5.8135,5.8578,5.8704,5.8955,5.9142,5.9205,5.9205,5.9516,5.9948,6.0071,6.0438,6.0952,6.1133,6.1193,6.1193,6.1193,6.1193,6.1193,6.1193,6.1193,6.1193,6.1193,6.1193,6.1193,6.1193,6.1193,6.1193,6.1193,6.1193,6.1193,6.1193,6.1193,6.1193,6.1193,6.1193,6.1193,6.1193,6.1193,6.1193,6.1193,6.1193,6.1193,6.1133,6.1133,6.1193,6.1077,6.0961,6.0903,6.0613,6.0177,5.9858,6.0003,6.009,5.9974,5.9771,5.9393,5.89,5.8348,5.7884,5.7419,5.7303,5.7303,4.84,4.8377,4.8377,4.8812,4.9509,5.0033,5.0908,5.1939,5.3158,5.4034,5.4612,5.5189,5.5742,5.6143,5.6219,5.6219,5.6219,5.6219,5.6219,5.6438,5.7019,5.7235,5.7667,5.8096,5.8373,5.8078,5.7451,5.6719,5.6641,5.5674,5.5386,5.5935,5.6405,5.6928,5.732,5.7556,5.7608,5.7817,5.8052,5.8525,5.8815,5.9219,5.9595,5.9717,5.9656,5.9318,5.8856,5.8286,5.7716,5.7391,5.7238,5.7431,5.7688,5.8007,5.8325,5.8704,5.9045,5.9171,5.9205,5.9205,5.9329,5.9702,5.9948,6.0316,6.0681,6.1013,6.1193,6.1193,6.1193,6.1193,6.1193,6.1193,6.1193,6.1193,6.1193,6.1193,6.1193,6.1193,6.1193,6.1193,6.1193,6.1193,6.1193,6.1193,6.1193,6.1193,6.1193,6.1193,6.1193,6.1193,6.1193,6.1193,6.1193,6.1193,6.1193,6.1193,6.1193,6.1193,6.1193,6.1106,6.1077,6.1048,6.07,6.0555,6.0845,6.0874,6.0613,6.0409,6.0177,5.9626,5.8987,5.8348,5.7913,5.7419,5.7303,4.8377,4.8377,4.8377,4.8812,4.9652,5.0813,5.1516,5.1964,5.3133,5.4034,5.4612,5.5139,5.5641,5.6168,5.6219,5.6219,5.6219,5.6219,5.6219,5.651,5.7019,5.7307,5.7667,5.8044,5.8191,5.7791,5.719,5.6536,5.6118,5.5386,5.57,5.6484,5.6745,5.7373,5.7921,5.8261,5.8235,5.8235,5.8418,5.8753,5.9017,5.9298,5.9718,5.9974,5.9818,5.9386,5.8952,5.8395,5.7798,5.7309,5.7201,5.7303,5.7303,5.7688,5.8071,5.8641,5.8955,5.9205,5.9205,5.9205,5.9267,5.942,5.973,6.0161,6.0589,6.0952,6.1133,6.1193,6.1193,6.1193,6.1193,6.1193,6.1193,6.1193,6.1193,6.1193,6.1193,6.1193,6.1193,6.1193,6.1193,6.1193,6.1193,6.1193,6.1193,6.1193,6.1193,6.1193,6.1193,6.1193,6.1193,6.1193,6.1193,6.1193,6.1193,6.1193,6.1193,6.1193,6.1193,6.1193,6.1164,6.1106,6.1077,6.1077,6.1106,6.1135,6.1106,6.0874,6.0642,6.0322,5.9742,5.9045,5.8377,5.7884,5.7419,4.8377,4.8377,4.8377,4.8812,4.9652,5.093,5.1656,5.1939,5.2909,5.3708,5.426,5.4787,5.5365,5.5842,5.6093,5.6219,5.6219,5.6219,5.6219,5.6438,5.7019,5.7307,5.7641,5.7837,5.7903,5.7477,5.6902,5.6249,5.5857,5.5752,5.5961,5.6693,5.6954,5.7686,5.8235,5.847,5.847,5.8541,5.8638,5.8947,5.9158,5.9438,5.9927,6.0112,5.9818,5.9386,5.8925,5.8367,5.7798,5.7282,5.7201,5.7174,5.7303,5.7624,5.8071,5.8704,5.9017,5.9142,5.9205,5.9205,5.9205,5.9267,5.9544,5.9977,6.0406,6.0742,6.1013,6.1133,6.1193,6.1193,6.1193,6.1193,6.1193,6.1193,6.1193,6.1193,6.1193,6.1193,6.1193,6.1193,6.1193,6.1193,6.1193,6.1193,6.1193,6.1193,6.1193,6.1193,6.1193,6.1193,6.1193,6.1193,6.1193,6.1193,6.1193,6.1193,6.1193,6.1193,6.1193,6.1193,6.1193,6.1164,6.1135,6.1135,6.1164,6.1193,6.1193,6.1193,6.099,6.0671,6.0351,5.9742,5.9045,5.8406,5.7913,4.8377,4.8377,4.8473,4.8884,4.958,5.0718,5.1446,5.189,5.254,5.3161,5.3783,5.4336,5.4938,5.5541,5.5968,5.6194,5.6219,5.6219,5.6219,5.6219,5.6874,5.721,5.7286,5.7499,5.7442,5.7163,5.6641,5.5961,5.5883,5.583,5.6092,5.6798,5.732,5.7921,5.8418,5.8523,5.8523,5.8735,5.8947,5.9228,5.9578,5.9927,6.0357,6.0497,6.0131,5.9589,5.8937,5.834,5.7798,5.7391,5.7174,5.7174,5.7367,5.7752,5.8198,5.8578,5.8892,5.908,5.9142,5.9205,5.9205,5.9267,5.9454,5.9792,6.0132,6.056,6.0863,6.1133,6.1193,6.1193,6.1193,6.1193,6.1193,6.1193,6.1193,6.1338,6.1513,6.1629,6.1861,6.1861,6.1861,6.1803,6.1483,6.1513,6.1367,6.128,6.1193,6.1193,6.1193,6.1193,6.1193,6.1193,6.1193,6.1193,6.1193,6.1193,6.1193,6.1193,6.1193,6.1193,6.1193,6.1193,6.1193,6.1193,6.1193,6.1193,6.1193,6.1193,6.1164,6.1048,6.07,6.0351,5.9771,5.9045,5.8406,4.8377,4.845,4.9029,4.9365,4.9652,5.0718,5.1446,5.182,5.2308,5.2928,5.3758,5.431,5.4838,5.534,5.5942,5.6219,5.6219,5.6219,5.6219,5.634,5.6776,5.6857,5.6764,5.6977,5.686,5.6415,5.5961,5.5674,5.5517,5.5726,5.6223,5.6798,5.7373,5.7948,5.847,5.8523,5.8567,5.8771,5.9122,5.9279,5.9531,5.9835,6.0249,6.0131,5.9778,5.9236,5.8639,5.815,5.7689,5.7309,5.7201,5.7174,5.7238,5.7624,5.7944,5.8262,5.8641,5.8955,5.9142,5.9205,5.9205,5.9233,5.9358,5.9544,5.9853,6.0377,6.0771,6.1013,6.1222,6.1222,6.1251,6.1251,6.1309,6.1309,6.1309,6.16,6.1861,6.218,6.2499,6.2558,6.2558,6.2296,6.1977,6.1745,6.16,6.1425,6.1251,6.1193,6.1193,6.1193,6.1193,6.1193,6.1193,6.1193,6.1193,6.1193,6.1193,6.1193,6.1193,6.1193,6.1193,6.1193,6.1193,6.1193,6.1193,6.1193,6.1193,6.1193,6.1164,6.1135,6.1077,6.07,6.038,5.9771,5.9045,4.8377,4.8523,4.915,4.9509,4.9652,5.0577,5.1165,5.1586,5.196,5.2526,5.3248,5.4089,5.4737,5.5189,5.5842,5.6219,5.6219,5.6219,5.6219,5.634,5.6305,5.6315,5.6437,5.6328,5.6064,5.5689,5.558,5.5386,5.5229,5.5647,5.6223,5.6824,5.7373,5.7948,5.8444,5.8497,5.8551,5.8692,5.904,5.9142,5.9242,5.9654,5.9967,5.9887,5.929,5.8747,5.834,5.7879,5.7499,5.7255,5.7201,5.7174,5.7238,5.756,5.788,5.8198,5.8515,5.8829,5.908,5.9205,5.9233,5.9261,5.9542,5.9843,6.0297,6.0794,6.102,6.1293,6.1626,6.1687,6.1861,6.1919,6.1997,6.2022,6.2051,6.2134,6.2249,6.2394,6.2662,6.2877,6.279,6.2587,6.2238,6.1977,6.1774,6.1367,6.1222,6.1193,6.1193,6.1193,6.1193,6.1193,6.1193,6.1193,6.1193,6.1193,6.1193,6.1193,6.1193,6.1193,6.1193,6.1193,6.1193,6.1193,6.1193,6.1193,6.1193,6.1193,6.1193,6.1164,6.1135,6.1048,6.0729,6.038,5.9684,4.8377,4.8546,4.9173,4.9437,4.958,5.0317,5.0813,5.1236,5.1656,5.203,5.2645,5.4039,5.4511,5.4938,5.5666,5.6018,5.6219,5.6219,5.6219,5.6141,5.6027,5.5893,5.5694,5.5527,5.534,5.5294,5.5252,5.5188,5.5151,5.5778,5.6432,5.6876,5.7399,5.7974,5.8287,5.841,5.8342,5.8312,5.8445,5.8574,5.8886,5.9251,5.9494,5.9263,5.872,5.8162,5.7825,5.7553,5.7228,5.7201,5.7174,5.7174,5.7238,5.7431,5.7816,5.8135,5.8388,5.8767,5.908,5.9205,5.9289,5.9458,5.9907,6.0315,6.0744,6.1177,6.1347,6.1628,6.1964,6.2267,6.2441,6.2587,6.2691,6.2673,6.2611,6.2635,6.2663,6.275,6.2996,6.3246,6.3192,6.2989,6.2703,6.2412,6.1948,6.1513,6.1222,6.1193,6.1193,6.1193,6.1193,6.1193,6.1193,6.1193,6.1193,6.1193,6.1193,6.1193,6.1193,6.1193,6.1193,6.1193,6.1193,6.1193,6.1193,6.1193,6.1193,6.1193,6.1193,6.1193,6.1164,6.1135,6.1048,6.0671,6.0177,4.8377,4.8473,4.8908,4.9245,4.958,5.0033,5.0601,5.1211,5.1611,5.203,5.265,5.3869,5.4561,5.4637,5.5717,5.6194,5.6219,5.6194,5.6219,5.6191,5.566,5.54,5.5178,5.4865,5.468,5.4754,5.4976,5.5058,5.5282,5.6066,5.6641,5.6771,5.7869,5.8104,5.7739,5.7808,5.7834,5.7826,5.7982,5.8119,5.8631,5.8871,5.8747,5.8503,5.8205,5.777,5.7472,5.7255,5.7201,5.7174,5.7174,5.7174,5.7238,5.7303,5.7624,5.8007,5.8262,5.8641,5.8892,5.9142,5.9317,5.9823,6.0216,6.0497,6.1041,6.1734,6.1994,6.2182,6.2496,6.2811,6.3051,6.3109,6.3188,6.2956,6.2825,6.2864,6.2914,6.3293,6.3651,6.3843,6.3942,6.3723,6.3386,6.2985,6.2409,6.1916,6.1338,6.128,6.1193,6.1193,6.1193,6.1193,6.1193,6.1193,6.1193,6.1193,6.1193,6.1193,6.1193,6.1193,6.1193,6.1193,6.1193,6.1193,6.1193,6.1193,6.1193,6.1193,6.1193,6.1193,6.1193,6.1164,6.1135,6.099,6.0496]}]]